| time (UTC) | temp F | wind direction | speed MPH | gust MPH | rain 1hr in | rain 24hr in | rain mn in | humidity % | barometer mb |
| 20260510081501 | 55 | 15 | 2.0 | 8.0 | 0.00 | 0.00 | 0.00 | 100 | 1016.1 |
| 20260510081402 | 55 | 92 | 3.0 | 8.0 | 0.00 | 0.00 | 0.00 | 100 | 1016.0 |
| 20260510081301 | 55 | 78 | 4.0 | 10.0 | 0.00 | 0.00 | 0.00 | 100 | 1016.1 |
| 20260510081213 | 55 | 78 | 4.0 | 10.0 | 0.00 | 0.00 | 0.00 | 100 | 1016.1 |
| 20260510081201 | 55 | 360 | 7.0 | 10.0 | 0.00 | 0.00 | 0.00 | 100 | 1016.0 |
| 20260510081101 | 55 | 86 | 2.0 | 10.0 | 0.00 | 0.00 | 0.00 | 100 | 1016.0 |
| 20260510081001 | 55 | 25 | 4.0 | 10.0 | 0.00 | 0.00 | 0.00 | 100 | 1016.0 |
| 20260510080900 | 55 | 42 | 5.0 | 10.0 | 0.00 | 0.00 | 0.00 | 100 | 1016.0 |
| 20260510080800 | 55 | 9 | 6.0 | 11.0 | 0.00 | 0.00 | 0.00 | 100 | 1016.0 |
| 20260510080713 | 55 | 9 | 6.0 | 11.0 | 0.00 | 0.00 | 0.00 | 100 | 1016.0 |
| 20260510080701 | 55 | 344 | 6.0 | 11.0 | 0.00 | 0.00 | 0.00 | 100 | 1016.1 |
| 20260510080601 | 55 | 343 | 8.0 | 11.0 | 0.00 | 0.00 | 0.00 | 100 | 1015.9 |
| 20260510080501 | 55 | 36 | 7.0 | 11.0 | 0.00 | 0.00 | 0.00 | 100 | 1016.0 |
| 20260510080401 | 55 | 28 | 8.0 | 11.0 | 0.00 | 0.00 | 0.00 | 100 | 1016.0 |
| 20260510080301 | 55 | 360 | 6.0 | 11.0 | 0.00 | 0.00 | 0.00 | 100 | 1016.0 |
| 20260510080214 | 55 | 360 | 6.0 | 11.0 | 0.00 | 0.00 | 0.00 | 100 | 1016.0 |
| 20260510080202 | 55 | 15 | 3.0 | 10.0 | 0.00 | 0.00 | 0.00 | 100 | 1016.1 |
| 20260510080100 | 55 | 5 | 4.0 | 10.0 | 0.00 | 0.00 | 0.00 | 100 | 1016.1 |
| 20260510080000 | 55 | 349 | 6.0 | 10.0 | 0.00 | 0.00 | 0.00 | 100 | 1016.0 |
| 20260510075900 | 55 | 9 | 8.0 | 10.0 | 0.00 | 0.00 | 0.00 | 100 | 1016.1 |
| 20260510075801 | 55 | 351 | 8.0 | 14.0 | 0.00 | 0.00 | 0.00 | 100 | 1016.1 |
| 20260510075712 | 55 | 351 | 8.0 | 14.0 | 0.00 | 0.00 | 0.00 | 100 | 1016.1 |
| 20260510075700 | 55 | 46 | 9.0 | 14.0 | 0.00 | 0.00 | 0.00 | 100 | 1016.1 |
| 20260510075600 | 55 | 36 | 4.0 | 10.0 | 0.00 | 0.00 | 0.00 | 100 | 1016.2 |
| 20260510075500 | 55 | 348 | 5.0 | 10.0 | 0.00 | 0.00 | 0.00 | 100 | 1016.2 |
| 20260510075400 | 55 | 17 | 10.0 | 10.0 | 0.00 | 0.00 | 0.00 | 100 | 1016.1 |
| 20260510075300 | 55 | 332 | 3.0 | 10.0 | 0.00 | 0.00 | 0.00 | 100 | 1016.2 |
| 20260510075212 | 55 | 332 | 3.0 | 10.0 | 0.00 | 0.00 | 0.00 | 100 | 1016.2 |
| 20260510075201 | 55 | 349 | 4.0 | 10.0 | 0.00 | 0.00 | 0.00 | 100 | 1016.1 |
| 20260510075101 | 55 | 355 | 4.0 | 10.0 | 0.00 | 0.00 | 0.00 | 100 | 1016.2 |
| 20260510075001 | 55 | 29 | 5.0 | 10.0 | 0.00 | 0.00 | 0.00 | 100 | 1016.2 |
| 20260510074901 | 55 | 360 | 10.0 | 10.0 | 0.00 | 0.00 | 0.00 | 100 | 1016.2 |
| 20260510074801 | 55 | 40 | 4.0 | 12.0 | 0.00 | 0.00 | 0.00 | 100 | 1016.2 |
| 20260510074714 | 55 | 40 | 4.0 | 12.0 | 0.00 | 0.00 | 0.00 | 100 | 1016.2 |
| 20260510074701 | 55 | 51 | 9.0 | 12.0 | 0.00 | 0.00 | 0.00 | 100 | 1016.2 |
| 20260510074601 | 55 | 333 | 2.0 | 7.0 | 0.00 | 0.00 | 0.00 | 100 | 1016.2 |
| 20260510074501 | 55 | 32 | 3.0 | 7.0 | 0.00 | 0.00 | 0.00 | 100 | 1016.1 |
| 20260510074401 | 55 | 19 | 5.0 | 7.0 | 0.00 | 0.00 | 0.00 | 100 | 1016.1 |
| 20260510074301 | 55 | 59 | 3.0 | 10.0 | 0.00 | 0.00 | 0.00 | 100 | 1016.1 |
| 20260510074213 | 55 | 59 | 3.0 | 10.0 | 0.00 | 0.00 | 0.00 | 100 | 1016.1 |
| 20260510074201 | 55 | 355 | 3.0 | 10.0 | 0.00 | 0.00 | 0.00 | 100 | 1016.1 |
| 20260510074101 | 55 | 30 | 3.0 | 10.0 | 0.00 | 0.00 | 0.00 | 100 | 1016.0 |
| 20260510074001 | 55 | 5 | 7.0 | 8.0 | 0.00 | 0.00 | 0.00 | 100 | 1016.0 |
| 20260510073901 | 55 | 9 | 8.0 | 8.0 | 0.00 | 0.00 | 0.00 | 100 | 1016.1 |
| 20260510073801 | 55 | 344 | 10.0 | 10.0 | 0.00 | 0.00 | 0.00 | 100 | 1016.0 |
| 20260510073713 | 55 | 344 | 10.0 | 10.0 | 0.00 | 0.00 | 0.00 | 100 | 1016.0 |
| 20260510073701 | 55 | 15 | 8.0 | 10.0 | 0.00 | 0.00 | 0.00 | 100 | 1016.1 |
| 20260510073601 | 55 | 14 | 9.0 | 10.0 | 0.00 | 0.00 | 0.00 | 100 | 1016.1 |
| 20260510073501 | 55 | 333 | 4.0 | 7.0 | 0.00 | 0.00 | 0.00 | 100 | 1016.0 |
| 20260510073402 | 55 | 28 | 3.0 | 5.0 | 0.00 | 0.00 | 0.00 | 100 | 1016.1 |
| 20260510073302 | 55 | 346 | 3.0 | 9.0 | 0.00 | 0.00 | 0.00 | 100 | 1016.1 |
| 20260510073214 | 55 | 346 | 3.0 | 9.0 | 0.00 | 0.00 | 0.00 | 100 | 1016.1 |
| 20260510073201 | 55 | 40 | 6.0 | 9.0 | 0.00 | 0.00 | 0.00 | 100 | 1016.1 |
| 20260510073101 | 55 | 360 | 5.0 | 9.0 | 0.00 | 0.00 | 0.00 | 100 | 1016.1 |
| 20260510073001 | 55 | 31 | 7.0 | 8.0 | 0.00 | 0.00 | 0.00 | 100 | 1016.1 |
| 20260510072901 | 55 | 350 | 3.0 | 8.0 | 0.00 | 0.00 | 0.00 | 100 | 1016.1 |
| 20260510072801 | 55 | 355 | 3.0 | 8.0 | 0.00 | 0.00 | 0.00 | 100 | 1016.1 |
| 20260510072713 | 55 | 355 | 3.0 | 8.0 | 0.00 | 0.00 | 0.00 | 100 | 1016.1 |
| 20260510072701 | 55 | 19 | 5.0 | 8.0 | 0.00 | 0.00 | 0.00 | 100 | 1016.1 |
| 20260510072601 | 55 | 11 | 4.0 | 8.0 | 0.00 | 0.00 | 0.00 | 100 | 1016.1 |
| 20260510072501 | 55 | 41 | 5.0 | 8.0 | 0.00 | 0.00 | 0.00 | 100 | 1016.1 |
| 20260510072400 | 55 | 297 | 3.0 | 4.0 | 0.00 | 0.00 | 0.00 | 100 | 1016.1 |
| 20260510072300 | 55 | 355 | 2.0 | 11.0 | 0.00 | 0.00 | 0.00 | 100 | 1016.2 |
| 20260510072214 | 55 | 355 | 2.0 | 11.0 | 0.00 | 0.00 | 0.00 | 100 | 1016.2 |
| 20260510072202 | 55 | 42 | 5.0 | 11.0 | 0.00 | 0.00 | 0.00 | 100 | 1016.1 |
| 20260510072102 | 55 | 11 | 3.0 | 11.0 | 0.00 | 0.00 | 0.00 | 100 | 1016.1 |
| 20260510072001 | 55 | 30 | 3.0 | 11.0 | 0.00 | 0.00 | 0.00 | 100 | 1016.1 |
| 20260510071900 | 55 | 38 | 3.0 | 11.0 | 0.00 | 0.00 | 0.00 | 100 | 1016.1 |
| 20260510071800 | 55 | 12 | 8.0 | 8.0 | 0.00 | 0.00 | 0.00 | 100 | 1016.1 |
| 20260510071712 | 55 | 12 | 8.0 | 8.0 | 0.00 | 0.00 | 0.00 | 100 | 1016.1 |
| 20260510071700 | 55 | 17 | 6.0 | 7.0 | 0.00 | 0.00 | 0.00 | 100 | 1016.1 |
| 20260510071600 | 55 | 75 | 6.0 | 7.0 | 0.00 | 0.00 | 0.00 | 100 | 1016.2 |
| 20260510071500 | 55 | 47 | 7.0 | 7.0 | 0.00 | 0.00 | 0.00 | 100 | 1016.2 |
| 20260510071400 | 55 | 24 | 2.0 | 3.0 | 0.00 | 0.00 | 0.00 | 100 | 1016.3 |
| 20260510071300 | 55 | 34 | 4.0 | 11.0 | 0.00 | 0.00 | 0.00 | 100 | 1016.2 |
| 20260510071213 | 55 | 34 | 4.0 | 11.0 | 0.00 | 0.00 | 0.00 | 100 | 1016.2 |
| 20260510071201 | 55 | 360 | 4.0 | 11.0 | 0.00 | 0.00 | 0.00 | 100 | 1016.2 |
| 20260510071101 | 55 | 355 | 4.0 | 11.0 | 0.00 | 0.00 | 0.00 | 100 | 1016.3 |
| 20260510071000 | 55 | 31 | 3.0 | 11.0 | 0.00 | 0.00 | 0.00 | 100 | 1016.2 |
| 20260510070900 | 55 | 27 | 5.0 | 11.0 | 0.00 | 0.00 | 0.00 | 100 | 1016.2 |
| 20260510070800 | 55 | 55 | 10.0 | 10.0 | 0.00 | 0.00 | 0.00 | 100 | 1016.3 |
| 20260510070712 | 55 | 55 | 10.0 | 10.0 | 0.00 | 0.00 | 0.00 | 100 | 1016.3 |
| 20260510070700 | 55 | 51 | 3.0 | 10.0 | 0.00 | 0.00 | 0.00 | 100 | 1016.3 |
| 20260510070602 | 55 | 32 | 2.0 | 10.0 | 0.00 | 0.00 | 0.00 | 100 | 1016.3 |
| 20260510070502 | 55 | 16 | 6.0 | 10.0 | 0.00 | 0.00 | 0.00 | 100 | 1016.3 |
| 20260510070402 | 55 | 5 | 4.0 | 7.0 | 0.00 | 0.00 | 0.00 | 100 | 1016.3 |
| 20260510070302 | 55 | 30 | 7.0 | 7.0 | 0.00 | 0.00 | 0.00 | 100 | 1016.2 |
| 20260510070214 | 55 | 30 | 7.0 | 7.0 | 0.00 | 0.00 | 0.00 | 100 | 1016.2 |
| 20260510070201 | 55 | 360 | 5.0 | 7.0 | 0.00 | 0.00 | 0.00 | 100 | 1016.3 |
| 20260510070001 | 55 | 360 | 6.0 | 6.0 | 0.00 | 0.00 | 0.00 | 100 | 1016.3 |
| 20260510065900 | 55 | 5 | 3.0 | 3.0 | 0.00 | 0.00 | 0.00 | 100 | 1016.3 |
| 20260510065800 | 55 | 24 | 3.0 | 6.0 | 0.00 | 0.00 | 0.00 | 100 | 1016.3 |
| 20260510065712 | 55 | 24 | 3.0 | 6.0 | 0.00 | 0.00 | 0.00 | 100 | 1016.3 |
| 20260510065700 | 55 | 36 | 2.0 | 6.0 | 0.00 | 0.00 | 0.00 | 100 | 1016.3 |
| 20260510065600 | 55 | 84 | 3.0 | 6.0 | 0.00 | 0.00 | 0.00 | 100 | 1016.3 |
| 20260510065501 | 55 | 333 | 6.0 | 6.0 | 0.00 | 0.00 | 0.00 | 100 | 1016.3 |
| 20260510065401 | 55 | 355 | 3.0 | 3.0 | 0.00 | 0.00 | 0.00 | 100 | 1016.2 |
| 20260510065301 | 55 | 355 | 3.0 | 3.0 | 0.00 | 0.00 | 0.00 | 100 | 1016.3 |
| 20260510065213 | 55 | 355 | 3.0 | 3.0 | 0.00 | 0.00 | 0.00 | 100 | 1016.3 |
| 20260510065201 | 55 | 355 | 3.0 | 3.0 | 0.00 | 0.00 | 0.00 | 100 | 1016.2 |
| 20260510065101 | 55 | 355 | 3.0 | 3.0 | 0.00 | 0.00 | 0.00 | 100 | 1016.1 |
| 20260510065001 | 55 | 355 | 3.0 | 3.0 | 0.00 | 0.00 | 0.00 | 100 | 1016.1 |
| 20260510064901 | 55 | 355 | 3.0 | 3.0 | 0.00 | 0.00 | 0.00 | 100 | 1016.1 |
| 20260510064800 | 55 | 355 | 3.0 | 4.0 | 0.00 | 0.00 | 0.00 | 100 | 1016.1 |
| 20260510064712 | 55 | 355 | 3.0 | 4.0 | 0.00 | 0.00 | 0.00 | 100 | 1016.1 |
| 20260510064700 | 55 | 355 | 3.0 | 4.0 | 0.00 | 0.00 | 0.00 | 100 | 1016.2 |
| 20260510064600 | 55 | 355 | 3.0 | 4.0 | 0.00 | 0.00 | 0.00 | 100 | 1016.2 |
| 20260510064500 | 55 | 355 | 3.0 | 4.0 | 0.00 | 0.00 | 0.00 | 100 | 1016.3 |
| 20260510064400 | 55 | 355 | 3.0 | 4.0 | 0.00 | 0.00 | 0.00 | 100 | 1016.3 |
| 20260510064300 | 55 | 60 | 3.0 | 10.0 | 0.00 | 0.00 | 0.00 | 100 | 1016.3 |
| 20260510064213 | 55 | 60 | 3.0 | 10.0 | 0.00 | 0.00 | 0.00 | 100 | 1016.3 |
| 20260510064201 | 55 | 19 | 4.0 | 10.0 | 0.00 | 0.00 | 0.00 | 100 | 1016.3 |
| 20260510064102 | 55 | 46 | 6.0 | 10.0 | 0.00 | 0.00 | 0.00 | 100 | 1016.3 |
| 20260510064001 | 54 | 32 | 2.0 | 8.0 | 0.00 | 0.00 | 0.00 | 100 | 1016.3 |
| 20260510063901 | 54 | 26 | 4.0 | 8.0 | 0.00 | 0.00 | 0.00 | 100 | 1016.3 |
| 20260510063801 | 54 | 5 | 3.0 | 5.0 | 0.00 | 0.00 | 0.00 | 100 | 1016.3 |
| 20260510063712 | 54 | 5 | 3.0 | 5.0 | 0.00 | 0.00 | 0.00 | 100 | 1016.3 |
| 20260510063700 | 54 | 69 | 4.0 | 5.0 | 0.00 | 0.00 | 0.00 | 100 | 1016.3 |
| 20260510063600 | 54 | 9 | 3.0 | 5.0 | 0.00 | 0.00 | 0.00 | 100 | 1016.3 |
| 20260510063500 | 54 | 57 | 2.0 | 3.0 | 0.00 | 0.00 | 0.00 | 100 | 1016.3 |
| 20260510063400 | 54 | 327 | 3.0 | 3.0 | 0.00 | 0.00 | 0.00 | 100 | 1016.3 |
| 20260510063300 | 54 | 38 | 2.0 | 4.0 | 0.00 | 0.00 | 0.00 | 100 | 1016.3 |
| 20260510063212 | 54 | 38 | 2.0 | 4.0 | 0.00 | 0.00 | 0.00 | 100 | 1016.3 |
| 20260510063200 | 54 | 322 | 3.0 | 3.0 | 0.00 | 0.00 | 0.00 | 100 | 1016.4 |
| 20260510063100 | 54 | 66 | 3.0 | 3.0 | 0.00 | 0.00 | 0.00 | 100 | 1016.3 |
| 20260510063000 | 54 | 330 | 3.0 | 3.0 | 0.00 | 0.00 | 0.00 | 100 | 1016.3 |
| 20260510062900 | 54 | 34 | 1.0 | 3.0 | 0.00 | 0.00 | 0.00 | 100 | 1016.3 |
| 20260510062800 | 54 | 115 | 3.0 | 7.0 | 0.00 | 0.00 | 0.00 | 100 | 1016.3 |
| 20260510062712 | 54 | 115 | 3.0 | 7.0 | 0.00 | 0.00 | 0.00 | 100 | 1016.3 |
| 20260510062700 | 54 | 17 | 4.0 | 7.0 | 0.00 | 0.00 | 0.00 | 100 | 1016.3 |
| 20260510062601 | 54 | 49 | 2.0 | 7.0 | 0.00 | 0.00 | 0.00 | 100 | 1016.2 |
| 20260510062501 | 54 | 39 | 3.0 | 7.0 | 0.00 | 0.00 | 0.00 | 100 | 1016.2 |
| 20260510062401 | 54 | 355 | 5.0 | 7.0 | 0.00 | 0.00 | 0.00 | 100 | 1016.3 |
| 20260510062301 | 54 | 25 | 9.0 | 10.0 | 0.00 | 0.00 | 0.00 | 100 | 1016.2 |
| 20260510062213 | 54 | 25 | 9.0 | 10.0 | 0.00 | 0.00 | 0.00 | 100 | 1016.2 |
| 20260510062200 | 54 | 33 | 4.0 | 7.0 | 0.00 | 0.00 | 0.00 | 100 | 1016.3 |
| 20260510062100 | 54 | 17 | 4.0 | 7.0 | 0.00 | 0.00 | 0.00 | 100 | 1016.3 |
| 20260510062000 | 54 | 26 | 3.0 | 4.0 | 0.00 | 0.00 | 0.00 | 100 | 1016.3 |
| 20260510061900 | 54 | 20 | 2.0 | 4.0 | 0.00 | 0.00 | 0.00 | 100 | 1016.3 |
| 20260510061800 | 54 | 19 | 6.0 | 10.0 | 0.00 | 0.00 | 0.00 | 100 | 1016.2 |
| 20260510061712 | 54 | 19 | 6.0 | 10.0 | 0.00 | 0.00 | 0.00 | 100 | 1016.2 |
| 20260510061700 | 54 | 57 | 9.0 | 9.0 | 0.00 | 0.00 | 0.00 | 100 | 1016.2 |
| 20260510061601 | 54 | 333 | 4.0 | 9.0 | 0.00 | 0.00 | 0.00 | 100 | 1016.2 |
| 20260510061501 | 54 | 52 | 3.0 | 9.0 | 0.00 | 0.00 | 0.00 | 100 | 1016.3 |
| 20260510061401 | 54 | 360 | 5.0 | 8.0 | 0.00 | 0.00 | 0.00 | 100 | 1016.3 |
| 20260510061301 | 54 | 346 | 3.0 | 10.0 | 0.00 | 0.00 | 0.00 | 100 | 1016.3 |
| 20260510061213 | 54 | 346 | 3.0 | 10.0 | 0.00 | 0.00 | 0.00 | 100 | 1016.3 |
| 20260510061201 | 54 | 34 | 3.0 | 10.0 | 0.00 | 0.00 | 0.00 | 100 | 1016.3 |
| 20260510061100 | 54 | 355 | 2.0 | 10.0 | 0.00 | 0.00 | 0.00 | 100 | 1016.3 |
| 20260510061000 | 54 | 49 | 3.0 | 10.0 | 0.00 | 0.00 | 0.00 | 100 | 1016.3 |
| 20260510060900 | 54 | 5 | 6.0 | 10.0 | 0.00 | 0.00 | 0.00 | 100 | 1016.3 |
| 20260510060800 | 54 | 18 | 9.0 | 11.0 | 0.00 | 0.00 | 0.00 | 100 | 1016.3 |
| 20260510060712 | 54 | 18 | 9.0 | 11.0 | 0.00 | 0.00 | 0.00 | 100 | 1016.3 |
| 20260510060700 | 54 | 40 | 10.0 | 11.0 | 0.00 | 0.00 | 0.00 | 100 | 1016.3 |
| 20260510060600 | 54 | 5 | 3.0 | 8.0 | 0.00 | 0.00 | 0.00 | 100 | 1016.3 |
| 20260510060500 | 54 | 46 | 1.0 | 8.0 | 0.00 | 0.00 | 0.00 | 100 | 1016.4 |
| 20260510060400 | 54 | 45 | 3.0 | 8.0 | 0.00 | 0.00 | 0.00 | 100 | 1016.4 |
| 20260510060301 | 53 | 50 | 2.0 | 8.0 | 0.00 | 0.00 | 0.00 | 100 | 1016.3 |
| 20260510060213 | 53 | 50 | 2.0 | 8.0 | 0.00 | 0.00 | 0.00 | 100 | 1016.3 |
| 20260510060201 | 54 | 35 | 3.0 | 8.0 | 0.00 | 0.00 | 0.00 | 100 | 1016.3 |
| 20260510060100 | 53 | 27 | 5.0 | 8.0 | 0.00 | 0.00 | 0.00 | 100 | 1016.2 |
| 20260510060000 | 53 | 59 | 3.0 | 4.0 | 0.00 | 0.00 | 0.00 | 100 | 1016.2 |
| 20260510055900 | 53 | 28 | 4.0 | 4.0 | 0.00 | 0.00 | 0.00 | 100 | 1016.2 |
| 20260510055800 | 53 | 355 | 3.0 | 13.0 | 0.00 | 0.00 | 0.00 | 100 | 1016.2 |
| 20260510055712 | 53 | 355 | 3.0 | 13.0 | 0.00 | 0.00 | 0.00 | 100 | 1016.2 |
| 20260510055700 | 53 | 344 | 3.0 | 13.0 | 0.00 | 0.00 | 0.00 | 100 | 1016.1 |
| 20260510055600 | 53 | 9 | 5.0 | 13.0 | 0.00 | 0.00 | 0.00 | 100 | 1016.2 |
| 20260510055500 | 53 | 330 | 6.0 | 13.0 | 0.00 | 0.00 | 0.00 | 100 | 1016.2 |
| 20260510055400 | 54 | 79 | 4.0 | 9.0 | 0.00 | 0.00 | 0.00 | 100 | 1016.1 |
| 20260510055301 | 53 | 348 | 6.0 | 12.0 | 0.00 | 0.00 | 0.00 | 100 | 1016.1 |
| 20260510055213 | 53 | 348 | 6.0 | 12.0 | 0.00 | 0.00 | 0.00 | 100 | 1016.1 |
| 20260510055201 | 53 | 9 | 3.0 | 12.0 | 0.00 | 0.00 | 0.00 | 100 | 1016.1 |
| 20260510055101 | 54 | 355 | 3.0 | 12.0 | 0.00 | 0.00 | 0.00 | 100 | 1016.1 |
| 20260510055001 | 54 | 51 | 10.0 | 12.0 | 0.00 | 0.00 | 0.00 | 100 | 1016.1 |
| 20260510054901 | 54 | 37 | 10.0 | 10.0 | 0.00 | 0.00 | 0.00 | 100 | 1016.0 |
| 20260510054801 | 54 | 24 | 3.0 | 9.0 | 0.00 | 0.00 | 0.00 | 100 | 1016.0 |
| 20260510054713 | 54 | 24 | 3.0 | 9.0 | 0.00 | 0.00 | 0.00 | 100 | 1016.0 |
| 20260510054701 | 54 | 21 | 8.0 | 9.0 | 0.00 | 0.00 | 0.00 | 100 | 1016.1 |
| 20260510054600 | 54 | 35 | 3.0 | 8.0 | 0.00 | 0.00 | 0.00 | 100 | 1016.1 |
| 20260510054500 | 54 | 48 | 2.0 | 7.0 | 0.00 | 0.00 | 0.00 | 100 | 1016.1 |
| 20260510054400 | 54 | 69 | 6.0 | 7.0 | 0.00 | 0.00 | 0.00 | 100 | 1016.1 |
| 20260510054300 | 54 | 355 | 2.0 | 11.0 | 0.00 | 0.00 | 0.00 | 100 | 1016.1 |
| 20260510054212 | 54 | 355 | 2.0 | 11.0 | 0.00 | 0.00 | 0.00 | 100 | 1016.1 |
| 20260510054202 | 54 | 350 | 4.0 | 11.0 | 0.00 | 0.00 | 0.00 | 100 | 1016.1 |
| 20260510054101 | 54 | 355 | 9.0 | 11.0 | 0.00 | 0.00 | 0.00 | 100 | 1016.1 |
| 20260510054001 | 54 | 342 | 6.0 | 11.0 | 0.00 | 0.00 | 0.00 | 100 | 1016.1 |
| 20260510053901 | 54 | 360 | 6.0 | 10.0 | 0.00 | 0.00 | 0.00 | 100 | 1016.1 |
| 20260510053801 | 54 | 50 | 5.0 | 10.0 | 0.00 | 0.00 | 0.00 | 100 | 1016.0 |
| 20260510053713 | 54 | 50 | 5.0 | 10.0 | 0.00 | 0.00 | 0.00 | 100 | 1016.0 |
| 20260510053701 | 54 | 20 | 3.0 | 9.0 | 0.00 | 0.00 | 0.00 | 100 | 1016.1 |
| 20260510053601 | 54 | 38 | 9.0 | 9.0 | 0.00 | 0.00 | 0.00 | 100 | 1016.1 |
| 20260510053501 | 54 | 349 | 3.0 | 7.0 | 0.00 | 0.00 | 0.00 | 100 | 1016.1 |
| 20260510053401 | 54 | 34 | 5.0 | 7.0 | 0.00 | 0.00 | 0.00 | 100 | 1016.1 |
| 20260510053301 | 53 | 360 | 4.0 | 15.0 | 0.00 | 0.00 | 0.00 | 100 | 1016.1 |
| 20260510053213 | 53 | 360 | 4.0 | 15.0 | 0.00 | 0.00 | 0.00 | 100 | 1016.1 |
| 20260510053201 | 54 | 331 | 11.0 | 15.0 | 0.00 | 0.00 | 0.00 | 100 | 1016.2 |
| 20260510053100 | 54 | 339 | 6.0 | 8.0 | 0.00 | 0.00 | 0.00 | 100 | 1016.2 |
| 20260510053001 | 53 | 63 | 8.0 | 8.0 | 0.00 | 0.00 | 0.00 | 100 | 1016.2 |
| 20260510052901 | 53 | 13 | 4.0 | 6.0 | 0.00 | 0.00 | 0.00 | 100 | 1016.2 |
| 20260510052801 | 53 | 24 | 5.0 | 11.0 | 0.00 | 0.00 | 0.00 | 100 | 1016.1 |
| 20260510052713 | 53 | 24 | 5.0 | 11.0 | 0.00 | 0.00 | 0.00 | 100 | 1016.1 |
| 20260510052701 | 53 | 51 | 5.0 | 11.0 | 0.00 | 0.00 | 0.00 | 100 | 1016.3 |
| 20260510052601 | 53 | 35 | 1.0 | 9.0 | 0.00 | 0.00 | 0.00 | 100 | 1016.2 |
| 20260510052501 | 53 | 51 | 3.0 | 9.0 | 0.00 | 0.00 | 0.00 | 100 | 1016.2 |
| 20260510052401 | 53 | 338 | 4.0 | 5.0 | 0.00 | 0.00 | 0.00 | 100 | 1016.2 |
| 20260510052300 | 53 | 46 | 4.0 | 7.0 | 0.00 | 0.00 | 0.00 | 100 | 1016.2 |
| 20260510052212 | 53 | 46 | 4.0 | 7.0 | 0.00 | 0.00 | 0.00 | 100 | 1016.2 |
| 20260510052200 | 53 | 36 | 3.0 | 6.0 | 0.00 | 0.00 | 0.00 | 100 | 1016.2 |
| 20260510052100 | 53 | 46 | 2.0 | 4.0 | 0.00 | 0.00 | 0.00 | 100 | 1016.2 |
| 20260510052000 | 53 | 30 | 3.0 | 4.0 | 0.00 | 0.00 | 0.00 | 100 | 1016.1 |
| 20260510051901 | 53 | 350 | 3.0 | 4.0 | 0.00 | 0.00 | 0.00 | 100 | 1016.2 |
| 20260510051801 | 53 | 20 | 3.0 | 7.0 | 0.00 | 0.00 | 0.00 | 100 | 1016.1 |
| 20260510051713 | 53 | 20 | 3.0 | 7.0 | 0.00 | 0.00 | 0.00 | 100 | 1016.1 |
| 20260510051701 | 53 | 44 | 7.0 | 7.0 | 0.00 | 0.00 | 0.00 | 100 | 1016.1 |
| 20260510051601 | 53 | 39 | 3.0 | 6.0 | 0.00 | 0.00 | 0.00 | 100 | 1016.1 |
| 20260510051501 | 53 | 31 | 3.0 | 6.0 | 0.00 | 0.00 | 0.00 | 100 | 1016.1 |
| 20260510051401 | 53 | 52 | 3.0 | 3.0 | 0.00 | 0.00 | 0.00 | 100 | 1016.0 |
| 20260510051301 | 53 | 28 | 3.0 | 6.0 | 0.00 | 0.00 | 0.00 | 100 | 1016.1 |
| 20260510051213 | 53 | 28 | 3.0 | 6.0 | 0.00 | 0.00 | 0.00 | 100 | 1016.1 |
| 20260510051200 | 53 | 5 | 2.0 | 6.0 | 0.00 | 0.00 | 0.00 | 100 | 1016.0 |
| 20260510051100 | 53 | 29 | 3.0 | 6.0 | 0.00 | 0.00 | 0.00 | 100 | 1016.1 |
| 20260510051000 | 53 | 61 | 3.0 | 4.0 | 0.00 | 0.00 | 0.00 | 100 | 1016.0 |
| 20260510050900 | 53 | 40 | 2.0 | 4.0 | 0.00 | 0.00 | 0.00 | 100 | 1016.0 |
| 20260510050800 | 53 | 5 | 2.0 | 6.0 | 0.00 | 0.00 | 0.00 | 100 | 1016.1 |
| 20260510050712 | 53 | 5 | 2.0 | 6.0 | 0.00 | 0.00 | 0.00 | 100 | 1016.1 |
| 20260510050700 | 53 | 355 | 3.0 | 6.0 | 0.00 | 0.00 | 0.00 | 100 | 1016.0 |
| 20260510050600 | 53 | 11 | 3.0 | 6.0 | 0.00 | 0.00 | 0.00 | 100 | 1016.0 |
| 20260510050500 | 53 | 16 | 2.0 | 5.0 | 0.00 | 0.00 | 0.00 | 100 | 1016.0 |
| 20260510050400 | 53 | 12 | 3.0 | 3.0 | 0.00 | 0.00 | 0.00 | 100 | 1016.0 |
| 20260510050301 | 53 | 9 | 2.0 | 9.0 | 0.00 | 0.00 | 0.00 | 100 | 1016.0 |
| 20260510050213 | 53 | 9 | 2.0 | 9.0 | 0.00 | 0.00 | 0.00 | 100 | 1016.0 |
| 20260510050201 | 53 | 108 | 3.0 | 9.0 | 0.00 | 0.00 | 0.00 | 100 | 1016.0 |
| 20260510050101 | 53 | 47 | 4.0 | 9.0 | 0.00 | 0.00 | 0.00 | 100 | 1015.9 |
| 20260510050001 | 53 | 41 | 4.0 | 9.0 | 0.00 | 0.00 | 0.00 | 100 | 1016.0 |
| 20260510045900 | 53 | 15 | 3.0 | 7.0 | 0.00 | 0.00 | 0.00 | 100 | 1016.0 |
| 20260510045800 | 53 | 76 | 7.0 | 13.0 | 0.00 | 0.00 | 0.00 | 100 | 1016.0 |
| 20260510045712 | 53 | 76 | 7.0 | 13.0 | 0.00 | 0.00 | 0.00 | 100 | 1016.0 |
| 20260510045700 | 53 | 61 | 7.0 | 10.0 | 0.00 | 0.00 | 0.00 | 100 | 1015.9 |
| 20260510045601 | 53 | 37 | 3.0 | 7.0 | 0.00 | 0.00 | 0.00 | 100 | 1015.9 |
| 20260510045501 | 53 | 37 | 3.0 | 7.0 | 0.00 | 0.00 | 0.00 | 100 | 1015.9 |
| 20260510045401 | 53 | 24 | 2.0 | 4.0 | 0.00 | 0.00 | 0.00 | 100 | 1015.9 |
| 20260510045301 | 53 | 25 | 3.0 | 10.0 | 0.00 | 0.00 | 0.00 | 100 | 1015.8 |
| 20260510045213 | 53 | 25 | 3.0 | 10.0 | 0.00 | 0.00 | 0.00 | 100 | 1015.8 |
| 20260510045201 | 53 | 13 | 2.0 | 10.0 | 0.00 | 0.00 | 0.00 | 100 | 1015.9 |
| 20260510045101 | 53 | 52 | 6.0 | 10.0 | 0.00 | 0.00 | 0.00 | 100 | 1015.9 |
| 20260510045001 | 53 | 15 | 3.0 | 7.0 | 0.00 | 0.00 | 0.00 | 100 | 1015.9 |
| 20260510044901 | 53 | 45 | 5.0 | 7.0 | 0.00 | 0.00 | 0.00 | 100 | 1015.9 |
| 20260510044801 | 53 | 341 | 4.0 | 11.0 | 0.00 | 0.00 | 0.00 | 100 | 1015.9 |
| 20260510044713 | 53 | 341 | 4.0 | 11.0 | 0.00 | 0.00 | 0.00 | 100 | 1015.9 |
| 20260510044701 | 53 | 333 | 6.0 | 9.0 | 0.00 | 0.00 | 0.00 | 100 | 1015.8 |
| 20260510044601 | 53 | 360 | 5.0 | 7.0 | 0.00 | 0.00 | 0.00 | 100 | 1015.9 |
| 20260510044502 | 53 | 46 | 7.0 | 7.0 | 0.00 | 0.00 | 0.00 | 100 | 1015.9 |
| 20260510044401 | 53 | 360 | 5.0 | 5.0 | 0.00 | 0.00 | 0.00 | 100 | 1015.9 |
| 20260510044301 | 53 | 35 | 1.0 | 8.0 | 0.00 | 0.00 | 0.00 | 100 | 1015.9 |
| 20260510044213 | 53 | 35 | 1.0 | 8.0 | 0.00 | 0.00 | 0.00 | 100 | 1015.9 |
| 20260510044201 | 53 | 55 | 5.0 | 8.0 | 0.00 | 0.00 | 0.00 | 100 | 1015.8 |
| 20260510044101 | 53 | 32 | 2.0 | 8.0 | 0.00 | 0.00 | 0.00 | 100 | 1015.9 |
| 20260510044001 | 53 | 59 | 8.0 | 8.0 | 0.00 | 0.00 | 0.00 | 100 | 1015.8 |
| 20260510043901 | 53 | 343 | 2.0 | 2.0 | 0.00 | 0.00 | 0.00 | 100 | 1015.8 |
| 20260510043801 | 53 | 343 | 3.0 | 8.0 | 0.00 | 0.00 | 0.00 | 100 | 1015.9 |
| 20260510043713 | 53 | 343 | 3.0 | 8.0 | 0.00 | 0.00 | 0.00 | 100 | 1015.9 |
| 20260510043701 | 53 | 76 | 2.0 | 8.0 | 0.00 | 0.00 | 0.00 | 100 | 1015.8 |
| 20260510043601 | 53 | 72 | 2.0 | 8.0 | 0.00 | 0.00 | 0.00 | 100 | 1015.9 |
| 20260510043500 | 53 | 26 | 5.0 | 8.0 | 0.00 | 0.00 | 0.00 | 100 | 1015.8 |
| 20260510043400 | 53 | 32 | 3.0 | 7.0 | 0.00 | 0.00 | 0.00 | 100 | 1015.8 |
| 20260510043300 | 53 | 340 | 3.0 | 6.0 | 0.00 | 0.00 | 0.00 | 100 | 1015.9 |
| 20260510043212 | 53 | 340 | 3.0 | 6.0 | 0.00 | 0.00 | 0.00 | 100 | 1015.9 |
| 20260510043200 | 53 | 34 | 1.0 | 6.0 | 0.00 | 0.00 | 0.00 | 100 | 1015.9 |
| 20260510043101 | 53 | 331 | 5.0 | 5.0 | 0.00 | 0.00 | 0.00 | 100 | 1015.9 |
| 20260510043001 | 53 | 327 | 1.0 | 3.0 | 0.00 | 0.00 | 0.00 | 100 | 1015.9 |
| 20260510042900 | 53 | 19 | 3.0 | 3.0 | 0.00 | 0.00 | 0.00 | 100 | 1015.9 |
| 20260510042800 | 53 | 348 | 3.0 | 5.0 | 0.00 | 0.00 | 0.00 | 100 | 1016.0 |
| 20260510042712 | 53 | 348 | 3.0 | 5.0 | 0.00 | 0.00 | 0.00 | 100 | 1016.0 |
| 20260510042700 | 53 | 339 | 2.0 | 4.0 | 0.00 | 0.00 | 0.00 | 100 | 1016.0 |
| 20260510042600 | 53 | 287 | 2.0 | 4.0 | 0.00 | 0.00 | 0.00 | 100 | 1016.0 |
| 20260510042500 | 53 | 360 | 3.0 | 4.0 | 0.00 | 0.00 | 0.00 | 100 | 1016.0 |
| 20260510042400 | 53 | 336 | 3.0 | 4.0 | 0.00 | 0.00 | 0.00 | 100 | 1016.0 |
| 20260510042300 | 53 | 5 | 3.0 | 7.0 | 0.00 | 0.00 | 0.00 | 100 | 1016.0 |
| 20260510042212 | 53 | 5 | 3.0 | 7.0 | 0.00 | 0.00 | 0.00 | 100 | 1016.0 |
| 20260510042200 | 53 | 53 | 3.0 | 7.0 | 0.00 | 0.00 | 0.00 | 100 | 1016.0 |
| 20260510042100 | 53 | 331 | 3.0 | 7.0 | 0.00 | 0.00 | 0.00 | 100 | 1016.0 |
| 20260510042000 | 53 | 30 | 3.0 | 6.0 | 0.00 | 0.00 | 0.00 | 100 | 1016.1 |
| 20260510041900 | 53 | 22 | 2.0 | 3.0 | 0.00 | 0.00 | 0.00 | 100 | 1016.0 |
| 20260510041800 | 53 | 360 | 3.0 | 7.0 | 0.00 | 0.00 | 0.00 | 100 | 1016.0 |
| 20260510041712 | 53 | 360 | 3.0 | 7.0 | 0.00 | 0.00 | 0.00 | 100 | 1016.0 |
| 20260510041700 | 53 | 19 | 7.0 | 7.0 | 0.00 | 0.00 | 0.00 | 100 | 1016.0 |
| 20260510041601 | 53 | 36 | 4.0 | 6.0 | 0.00 | 0.00 | 0.00 | 100 | 1016.0 |
| 20260510041502 | 53 | 82 | 6.0 | 6.0 | 0.00 | 0.00 | 0.00 | 100 | 1016.0 |
| 20260510041401 | 53 | 9 | 3.0 | 3.0 | 0.00 | 0.00 | 0.00 | 100 | 1016.0 |
| 20260510041301 | 53 | 33 | 5.0 | 6.0 | 0.00 | 0.00 | 0.00 | 100 | 1016.0 |
| 20260510041213 | 53 | 33 | 5.0 | 6.0 | 0.00 | 0.00 | 0.00 | 100 | 1016.0 |
| 20260510041201 | 53 | 15 | 5.0 | 6.0 | 0.00 | 0.00 | 0.00 | 100 | 1016.0 |
| 20260510041100 | 53 | 338 | 3.0 | 6.0 | 0.00 | 0.00 | 0.00 | 100 | 1016.0 |
| 20260510041000 | 53 | 344 | 2.0 | 5.0 | 0.00 | 0.00 | 0.00 | 100 | 1016.0 |
| 20260510040900 | 53 | 14 | 3.0 | 3.0 | 0.00 | 0.00 | 0.00 | 100 | 1016.0 |
| 20260510040800 | 53 | 9 | 3.0 | 8.0 | 0.00 | 0.00 | 0.00 | 100 | 1016.0 |
| 20260510040712 | 53 | 9 | 3.0 | 8.0 | 0.00 | 0.00 | 0.00 | 100 | 1016.0 |
| 20260510040700 | 53 | 62 | 4.0 | 8.0 | 0.00 | 0.00 | 0.00 | 100 | 1015.9 |
| 20260510040600 | 53 | 36 | 2.0 | 8.0 | 0.00 | 0.00 | 0.00 | 100 | 1016.0 |
| 20260510040500 | 53 | 33 | 4.0 | 8.0 | 0.00 | 0.00 | 0.00 | 100 | 1016.0 |
| 20260510040400 | 53 | 346 | 3.0 | 8.0 | 0.00 | 0.00 | 0.00 | 100 | 1016.0 |
| 20260510040300 | 53 | 15 | 4.0 | 9.0 | 0.00 | 0.00 | 0.00 | 100 | 1015.9 |
| 20260510040213 | 53 | 15 | 4.0 | 9.0 | 0.00 | 0.00 | 0.00 | 100 | 1015.9 |
| 20260510040201 | 53 | 46 | 3.0 | 9.0 | 0.00 | 0.00 | 0.00 | 100 | 1016.0 |
| 20260510040100 | 53 | 334 | 5.0 | 9.0 | 0.00 | 0.00 | 0.00 | 100 | 1016.0 |
| 20260510040000 | 53 | 10 | 5.0 | 8.0 | 0.00 | 0.00 | 0.00 | 100 | 1016.1 |
| 20260510035900 | 53 | 9 | 4.0 | 4.0 | 0.00 | 0.00 | 0.00 | 100 | 1016.0 |
| 20260510035800 | 53 | 9 | 6.0 | 7.0 | 0.00 | 0.00 | 0.00 | 100 | 1016.0 |
| 20260510035712 | 53 | 9 | 6.0 | 7.0 | 0.00 | 0.00 | 0.00 | 100 | 1016.0 |
| 20260510035700 | 53 | 9 | 2.0 | 7.0 | 0.00 | 0.00 | 0.00 | 100 | 1016.0 |
| 20260510035600 | 53 | 360 | 3.0 | 7.0 | 0.00 | 0.00 | 0.00 | 100 | 1016.1 |
| 20260510035500 | 53 | 15 | 3.0 | 7.0 | 0.00 | 0.00 | 0.00 | 100 | 1016.1 |
| 20260510035401 | 53 | 11 | 4.0 | 4.0 | 0.00 | 0.00 | 0.00 | 100 | 1016.1 |
| 20260510035301 | 53 | 346 | 3.0 | 8.0 | 0.00 | 0.00 | 0.00 | 100 | 1016.2 |
| 20260510035213 | 53 | 346 | 3.0 | 8.0 | 0.00 | 0.00 | 0.00 | 100 | 1016.2 |
| 20260510035201 | 53 | 12 | 3.0 | 8.0 | 0.00 | 0.00 | 0.00 | 100 | 1016.1 |
| 20260510035101 | 53 | 333 | 3.0 | 8.0 | 0.00 | 0.00 | 0.00 | 100 | 1016.2 |
| 20260510035001 | 53 | 15 | 6.0 | 6.0 | 0.00 | 0.00 | 0.00 | 100 | 1016.1 |
| 20260510034901 | 53 | 355 | 5.0 | 6.0 | 0.00 | 0.00 | 0.00 | 100 | 1016.1 |
| 20260510034801 | 53 | 11 | 3.0 | 7.0 | 0.00 | 0.00 | 0.00 | 100 | 1016.1 |
| 20260510034713 | 53 | 11 | 3.0 | 7.0 | 0.00 | 0.00 | 0.00 | 100 | 1016.1 |
| 20260510034701 | 53 | 9 | 6.0 | 7.0 | 0.00 | 0.00 | 0.00 | 100 | 1016.1 |
| 20260510034600 | 53 | 23 | 4.0 | 6.0 | 0.00 | 0.00 | 0.00 | 100 | 1016.1 |
| 20260510034500 | 53 | 341 | 5.0 | 6.0 | 0.00 | 0.00 | 0.00 | 100 | 1016.0 |
| 20260510034400 | 53 | 350 | 3.0 | 6.0 | 0.00 | 0.00 | 0.00 | 100 | 1016.1 |
| 20260510034300 | 53 | 346 | 4.0 | 7.0 | 0.00 | 0.00 | 0.00 | 100 | 1016.0 |
| 20260510034212 | 53 | 346 | 4.0 | 7.0 | 0.00 | 0.00 | 0.00 | 100 | 1016.0 |
| 20260510034200 | 53 | 38 | 3.0 | 7.0 | 0.00 | 0.00 | 0.00 | 100 | 1016.0 |
| 20260510034100 | 53 | 336 | 4.0 | 7.0 | 0.00 | 0.00 | 0.00 | 100 | 1016.1 |
| 20260510034000 | 53 | 11 | 3.0 | 7.0 | 0.00 | 0.00 | 0.00 | 100 | 1016.1 |
| 20260510033900 | 53 | 342 | 4.0 | 5.0 | 0.00 | 0.00 | 0.00 | 100 | 1016.0 |
| 20260510033800 | 53 | 336 | 4.0 | 7.0 | 0.00 | 0.00 | 0.00 | 100 | 1016.1 |
| 20260510033714 | 53 | 336 | 4.0 | 7.0 | 0.00 | 0.00 | 0.00 | 100 | 1016.1 |
| 20260510033702 | 54 | 9 | 4.0 | 7.0 | 0.00 | 0.00 | 0.00 | 100 | 1016.0 |
| 20260510033601 | 54 | 350 | 7.0 | 7.0 | 0.00 | 0.00 | 0.00 | 100 | 1016.0 |
| 20260510033500 | 54 | 351 | 5.0 | 5.0 | 0.00 | 0.00 | 0.00 | 100 | 1016.0 |
| 20260510033400 | 54 | 330 | 5.0 | 5.0 | 0.00 | 0.00 | 0.00 | 100 | 1016.0 |
| 20260510033300 | 54 | 11 | 4.0 | 8.0 | 0.00 | 0.00 | 0.00 | 100 | 1016.0 |
| 20260510033212 | 54 | 11 | 4.0 | 8.0 | 0.00 | 0.00 | 0.00 | 100 | 1016.0 |
| 20260510033200 | 54 | 327 | 7.0 | 8.0 | 0.00 | 0.00 | 0.00 | 100 | 1016.0 |
| 20260510033100 | 54 | 14 | 3.0 | 7.0 | 0.00 | 0.00 | 0.00 | 100 | 1016.0 |
| 20260510033000 | 54 | 9 | 6.0 | 7.0 | 0.00 | 0.00 | 0.00 | 100 | 1016.0 |
| 20260510032900 | 54 | 355 | 6.0 | 6.0 | 0.00 | 0.00 | 0.00 | 100 | 1016.0 |
| 20260510032800 | 54 | 20 | 6.0 | 8.0 | 0.00 | 0.00 | 0.00 | 100 | 1016.0 |
| 20260510032714 | 54 | 20 | 6.0 | 8.0 | 0.00 | 0.00 | 0.00 | 100 | 1016.0 |
| 20260510032702 | 54 | 25 | 3.0 | 8.0 | 0.00 | 0.00 | 0.00 | 100 | 1016.0 |
| 20260510032601 | 54 | 355 | 6.0 | 8.0 | 0.00 | 0.00 | 0.00 | 100 | 1016.0 |
| 20260510032502 | 54 | 360 | 7.0 | 7.0 | 0.00 | 0.00 | 0.00 | 100 | 1016.0 |
| 20260510032401 | 54 | 14 | 4.0 | 4.0 | 0.00 | 0.00 | 0.00 | 100 | 1016.0 |
| 20260510032305 | 54 | 351 | 2.0 | 6.0 | 0.00 | 0.00 | 0.00 | 100 | 1016.0 |
| 20260510032213 | 54 | 351 | 2.0 | 6.0 | 0.00 | 0.00 | 0.00 | 100 | 1016.0 |
| 20260510032201 | 54 | 346 | 3.0 | 6.0 | 0.00 | 0.00 | 0.00 | 100 | 1016.0 |
| 20260510032100 | 54 | 344 | 3.0 | 6.0 | 0.00 | 0.00 | 0.00 | 100 | 1016.0 |
| 20260510032000 | 54 | 350 | 3.0 | 6.0 | 0.00 | 0.00 | 0.00 | 100 | 1016.0 |
| 20260510031900 | 54 | 19 | 4.0 | 4.0 | 0.00 | 0.00 | 0.00 | 100 | 1016.0 |
| 20260510031800 | 54 | 36 | 3.0 | 6.0 | 0.00 | 0.00 | 0.00 | 100 | 1015.9 |
| 20260510031713 | 54 | 36 | 3.0 | 6.0 | 0.00 | 0.00 | 0.00 | 100 | 1015.9 |
| 20260510031701 | 54 | 37 | 2.0 | 6.0 | 0.00 | 0.00 | 0.00 | 100 | 1016.0 |
| 20260510031601 | 54 | 28 | 2.0 | 6.0 | 0.00 | 0.00 | 0.00 | 100 | 1016.0 |
| 20260510031501 | 54 | 10 | 3.0 | 6.0 | 0.00 | 0.00 | 0.00 | 100 | 1016.0 |
| 20260510031401 | 54 | 360 | 6.0 | 6.0 | 0.00 | 0.00 | 0.00 | 100 | 1016.0 |
| 20260510031301 | 54 | 15 | 3.0 | 7.0 | 0.00 | 0.00 | 0.00 | 100 | 1016.0 |
| 20260510031214 | 54 | 15 | 3.0 | 7.0 | 0.00 | 0.00 | 0.00 | 100 | 1016.0 |
| 20260510031202 | 54 | 19 | 4.0 | 7.0 | 0.00 | 0.00 | 0.00 | 100 | 1015.9 |
| 20260510031101 | 54 | 16 | 4.0 | 7.0 | 0.00 | 0.00 | 0.00 | 100 | 1015.9 |
| 20260510031001 | 54 | 360 | 4.0 | 7.0 | 0.00 | 0.00 | 0.00 | 100 | 1015.9 |
| 20260510030901 | 54 | 24 | 7.0 | 7.0 | 0.00 | 0.00 | 0.00 | 100 | 1016.0 |
| 20260510030801 | 54 | 15 | 6.0 | 7.0 | 0.00 | 0.00 | 0.00 | 100 | 1015.9 |
| 20260510030713 | 54 | 15 | 6.0 | 7.0 | 0.00 | 0.00 | 0.00 | 100 | 1015.9 |
| 20260510030701 | 54 | 26 | 3.0 | 6.0 | 0.00 | 0.00 | 0.00 | 100 | 1015.9 |
| 20260510030601 | 54 | 26 | 4.0 | 6.0 | 0.00 | 0.00 | 0.00 | 100 | 1015.9 |
| 20260510030501 | 54 | 339 | 4.0 | 6.0 | 0.00 | 0.00 | 0.00 | 100 | 1015.9 |
| 20260510030400 | 54 | 28 | 6.0 | 6.0 | 0.00 | 0.00 | 0.00 | 100 | 1015.9 |
| 20260510030300 | 54 | 13 | 3.0 | 9.0 | 0.00 | 0.00 | 0.00 | 100 | 1016.0 |
| 20260510030212 | 54 | 13 | 3.0 | 9.0 | 0.00 | 0.00 | 0.00 | 100 | 1016.0 |
| 20260510030200 | 54 | 11 | 7.0 | 9.0 | 0.00 | 0.00 | 0.00 | 100 | 1015.9 |
| 20260510030001 | 54 | 342 | 3.0 | 5.0 | 0.00 | 0.00 | 0.00 | 100 | 1015.9 |
| 20260510025901 | 54 | 50 | 4.0 | 5.0 | 0.00 | 0.00 | 0.00 | 100 | 1016.0 |
| 20260510025801 | 54 | 59 | 4.0 | 5.0 | 0.00 | 0.00 | 0.00 | 100 | 1015.9 |
| 20260510025713 | 54 | 59 | 4.0 | 5.0 | 0.00 | 0.00 | 0.00 | 100 | 1015.9 |
| 20260510025701 | 54 | 38 | 3.0 | 5.0 | 0.00 | 0.00 | 0.00 | 100 | 1015.9 |
| 20260510025600 | 54 | 57 | 3.0 | 5.0 | 0.00 | 0.00 | 0.00 | 100 | 1016.0 |
| 20260510025500 | 54 | 360 | 3.0 | 5.0 | 0.00 | 0.00 | 0.00 | 100 | 1016.0 |
| 20260510025400 | 54 | 19 | 3.0 | 4.0 | 0.00 | 0.00 | 0.00 | 100 | 1016.0 |
| 20260510025300 | 54 | 5 | 3.0 | 8.0 | 0.00 | 0.00 | 0.00 | 100 | 1016.0 |
| 20260510025212 | 54 | 5 | 3.0 | 8.0 | 0.00 | 0.00 | 0.00 | 100 | 1016.0 |
| 20260510025200 | 54 | 45 | 4.0 | 8.0 | 0.00 | 0.00 | 0.00 | 100 | 1016.0 |
| 20260510025101 | 54 | 31 | 3.0 | 6.0 | 0.00 | 0.00 | 0.00 | 100 | 1016.0 |
| 20260510025001 | 54 | 57 | 3.0 | 6.0 | 0.00 | 0.00 | 0.00 | 100 | 1016.0 |
| 20260510024901 | 54 | 15 | 3.0 | 6.0 | 0.00 | 0.00 | 0.00 | 100 | 1016.0 |
| 20260510024801 | 54 | 355 | 6.0 | 6.0 | 0.00 | 0.00 | 0.00 | 100 | 1016.0 |
| 20260510024713 | 54 | 355 | 6.0 | 6.0 | 0.00 | 0.00 | 0.00 | 100 | 1016.0 |
| 20260510024701 | 54 | 360 | 3.0 | 6.0 | 0.00 | 0.00 | 0.00 | 100 | 1016.0 |
| 20260510024601 | 54 | 31 | 3.0 | 6.0 | 0.00 | 0.00 | 0.00 | 100 | 1016.1 |
| 20260510024501 | 54 | 16 | 4.0 | 6.0 | 0.00 | 0.00 | 0.00 | 100 | 1016.0 |
| 20260510024401 | 54 | 10 | 5.0 | 5.0 | 0.00 | 0.00 | 0.00 | 100 | 1016.0 |
| 20260510024301 | 54 | 10 | 3.0 | 9.0 | 0.00 | 0.00 | 0.00 | 100 | 1016.0 |
| 20260510024214 | 54 | 10 | 3.0 | 9.0 | 0.00 | 0.00 | 0.00 | 100 | 1016.0 |
| 20260510024201 | 54 | 350 | 3.0 | 9.0 | 0.00 | 0.00 | 0.00 | 100 | 1016.1 |
| 20260510024101 | 54 | 52 | 3.0 | 6.0 | 0.00 | 0.00 | 0.00 | 100 | 1016.0 |
| 20260510024001 | 54 | 11 | 5.0 | 6.0 | 0.00 | 0.00 | 0.00 | 100 | 1016.0 |
| 20260510023901 | 54 | 11 | 3.0 | 6.0 | 0.00 | 0.00 | 0.00 | 100 | 1016.1 |
| 20260510023801 | 54 | 9 | 10.0 | 10.0 | 0.00 | 0.00 | 0.00 | 100 | 1016.1 |
| 20260510023713 | 54 | 9 | 10.0 | 10.0 | 0.00 | 0.00 | 0.00 | 100 | 1016.1 |
| 20260510023701 | 54 | 20 | 3.0 | 5.0 | 0.00 | 0.00 | 0.00 | 100 | 1016.1 |
| 20260510023601 | 54 | 5 | 3.0 | 5.0 | 0.00 | 0.00 | 0.00 | 100 | 1016.0 |
| 20260510023501 | 54 | 26 | 4.0 | 5.0 | 0.00 | 0.00 | 0.00 | 100 | 1016.0 |
| 20260510023402 | 54 | 360 | 5.0 | 5.0 | 0.00 | 0.00 | 0.00 | 100 | 1016.1 |
| 20260510023302 | 54 | 37 | 4.0 | 6.0 | 0.00 | 0.00 | 0.00 | 100 | 1016.1 |
| 20260510023214 | 54 | 37 | 4.0 | 6.0 | 0.00 | 0.00 | 0.00 | 100 | 1016.1 |
| 20260510023201 | 54 | 9 | 3.0 | 5.0 | 0.00 | 0.00 | 0.00 | 100 | 1016.1 |
| 20260510023101 | 54 | 341 | 3.0 | 5.0 | 0.00 | 0.00 | 0.00 | 100 | 1016.1 |
| 20260510023001 | 54 | 45 | 3.0 | 5.0 | 0.00 | 0.00 | 0.00 | 100 | 1016.1 |
| 20260510022901 | 54 | 15 | 4.0 | 5.0 | 0.00 | 0.00 | 0.00 | 100 | 1016.1 |
| 20260510022801 | 54 | 360 | 3.0 | 6.0 | 0.00 | 0.00 | 0.00 | 100 | 1016.0 |
| 20260510022713 | 54 | 360 | 3.0 | 6.0 | 0.00 | 0.00 | 0.00 | 100 | 1016.0 |
| 20260510022701 | 54 | 56 | 3.0 | 6.0 | 0.00 | 0.00 | 0.00 | 100 | 1016.0 |
| 20260510022601 | 54 | 17 | 6.0 | 6.0 | 0.00 | 0.00 | 0.00 | 100 | 1016.0 |
| 20260510022501 | 54 | 351 | 4.0 | 6.0 | 0.00 | 0.00 | 0.00 | 100 | 1016.0 |
| 20260510022401 | 54 | 344 | 2.0 | 6.0 | 0.00 | 0.00 | 0.00 | 100 | 1016.0 |
| 20260510022301 | 54 | 46 | 4.0 | 8.0 | 0.00 | 0.00 | 0.00 | 100 | 1016.0 |
| 20260510022213 | 54 | 46 | 4.0 | 8.0 | 0.00 | 0.00 | 0.00 | 100 | 1016.0 |
| 20260510022200 | 54 | 360 | 3.0 | 8.0 | 0.00 | 0.00 | 0.00 | 100 | 1015.9 |
| 20260510022100 | 54 | 346 | 3.0 | 8.0 | 0.00 | 0.00 | 0.00 | 100 | 1016.0 |
| 20260510022000 | 54 | 360 | 3.0 | 8.0 | 0.00 | 0.00 | 0.00 | 100 | 1016.0 |
| 20260510021901 | 54 | 5 | 3.0 | 8.0 | 0.00 | 0.00 | 0.00 | 100 | 1016.0 |
| 20260510021801 | 54 | 360 | 7.0 | 8.0 | 0.00 | 0.00 | 0.00 | 100 | 1015.9 |
| 20260510021713 | 54 | 360 | 7.0 | 8.0 | 0.00 | 0.00 | 0.00 | 100 | 1015.9 |
| 20260510021701 | 54 | 10 | 8.0 | 8.0 | 0.00 | 0.00 | 0.00 | 100 | 1015.9 |
| 20260510021601 | 54 | 62 | 3.0 | 5.0 | 0.00 | 0.00 | 0.00 | 100 | 1015.9 |
| 20260510021501 | 55 | 52 | 3.0 | 5.0 | 0.00 | 0.00 | 0.00 | 100 | 1015.9 |
| 20260510021401 | 55 | 39 | 3.0 | 3.0 | 0.00 | 0.00 | 0.00 | 100 | 1015.9 |
| 20260510021300 | 55 | 27 | 3.0 | 9.0 | 0.00 | 0.00 | 0.00 | 100 | 1015.9 |
| 20260510021212 | 55 | 27 | 3.0 | 9.0 | 0.00 | 0.00 | 0.00 | 100 | 1015.9 |
| 20260510021200 | 55 | 11 | 3.0 | 9.0 | 0.00 | 0.00 | 0.00 | 100 | 1015.9 |
| 20260510021100 | 55 | 46 | 8.0 | 9.0 | 0.00 | 0.00 | 0.00 | 100 | 1015.9 |
| 20260510021000 | 55 | 360 | 3.0 | 6.0 | 0.00 | 0.00 | 0.00 | 100 | 1015.9 |
| 20260510020900 | 55 | 346 | 3.0 | 4.0 | 0.00 | 0.00 | 0.00 | 100 | 1015.9 |
| 20260510020801 | 55 | 57 | 8.0 | 8.0 | 0.00 | 0.00 | 0.00 | 100 | 1015.9 |
| 20260510020713 | 55 | 57 | 8.0 | 8.0 | 0.00 | 0.00 | 0.00 | 100 | 1015.9 |
| 20260510020700 | 55 | 61 | 6.0 | 7.0 | 0.00 | 0.00 | 0.00 | 100 | 1015.9 |
| 20260510020600 | 55 | 5 | 3.0 | 7.0 | 0.00 | 0.00 | 0.00 | 100 | 1016.0 |
| 20260510020500 | 54 | 360 | 3.0 | 7.0 | 0.00 | 0.00 | 0.00 | 100 | 1016.0 |
| 20260510020401 | 54 | 46 | 7.0 | 7.0 | 0.00 | 0.00 | 0.00 | 100 | 1016.0 |
| 20260510020301 | 54 | 15 | 3.0 | 9.0 | 0.00 | 0.00 | 0.00 | 100 | 1016.0 |
| 20260510020213 | 54 | 15 | 3.0 | 9.0 | 0.00 | 0.00 | 0.00 | 100 | 1016.0 |
| 20260510020201 | 54 | 340 | 8.0 | 9.0 | 0.00 | 0.00 | 0.00 | 100 | 1016.0 |
| 20260510020101 | 54 | 12 | 6.0 | 9.0 | 0.00 | 0.00 | 0.00 | 100 | 1015.9 |
| 20260510020001 | 54 | 355 | 9.0 | 9.0 | 0.00 | 0.00 | 0.00 | 100 | 1016.0 |
| 20260510015901 | 54 | 351 | 5.0 | 5.0 | 0.00 | 0.00 | 0.00 | 100 | 1016.0 |
| 20260510015801 | 54 | 15 | 5.0 | 6.0 | 0.00 | 0.00 | 0.00 | 100 | 1016.0 |
| 20260510015713 | 54 | 15 | 5.0 | 6.0 | 0.00 | 0.00 | 0.00 | 100 | 1016.0 |
| 20260510015701 | 54 | 350 | 4.0 | 6.0 | 0.00 | 0.00 | 0.00 | 100 | 1016.0 |
| 20260510015601 | 54 | 20 | 4.0 | 6.0 | 0.00 | 0.00 | 0.00 | 100 | 1016.0 |
| 20260510015501 | 54 | 51 | 3.0 | 4.0 | 0.00 | 0.00 | 0.00 | 100 | 1016.0 |
| 20260510015401 | 54 | 351 | 3.0 | 4.0 | 0.00 | 0.00 | 0.00 | 100 | 1016.0 |
| 20260510015301 | 54 | 331 | 3.0 | 6.0 | 0.00 | 0.00 | 0.00 | 100 | 1016.0 |
| 20260510015213 | 54 | 331 | 3.0 | 6.0 | 0.00 | 0.00 | 0.00 | 100 | 1016.0 |
| 20260510015201 | 54 | 15 | 4.0 | 6.0 | 0.00 | 0.00 | 0.00 | 100 | 1016.0 |
| 20260510015101 | 54 | 346 | 3.0 | 6.0 | 0.00 | 0.00 | 0.00 | 100 | 1016.1 |
| 20260510015001 | 54 | 355 | 3.0 | 6.0 | 0.00 | 0.00 | 0.00 | 100 | 1016.1 |
| 20260510014901 | 54 | 29 | 4.0 | 4.0 | 0.00 | 0.00 | 0.00 | 100 | 1016.1 |
| 20260510014801 | 54 | 28 | 3.0 | 5.0 | 0.00 | 0.00 | 0.00 | 100 | 1016.1 |
| 20260510014713 | 54 | 28 | 3.0 | 5.0 | 0.00 | 0.00 | 0.00 | 100 | 1016.1 |
| 20260510014701 | 54 | 360 | 3.0 | 5.0 | 0.00 | 0.00 | 0.00 | 100 | 1016.0 |
| 20260510014601 | 54 | 19 | 4.0 | 5.0 | 0.00 | 0.00 | 0.00 | 100 | 1016.0 |
| 20260510014500 | 54 | 360 | 3.0 | 4.0 | 0.00 | 0.00 | 0.00 | 100 | 1016.1 |
| 20260510014401 | 54 | 44 | 3.0 | 3.0 | 0.00 | 0.00 | 0.00 | 100 | 1016.0 |
| 20260510014301 | 54 | 9 | 3.0 | 5.0 | 0.00 | 0.00 | 0.00 | 100 | 1016.1 |
| 20260510014213 | 54 | 9 | 3.0 | 5.0 | 0.00 | 0.00 | 0.00 | 100 | 1016.1 |
| 20260510014201 | 54 | 21 | 2.0 | 5.0 | 0.00 | 0.00 | 0.00 | 100 | 1016.1 |
| 20260510014101 | 54 | 9 | 3.0 | 5.0 | 0.00 | 0.00 | 0.00 | 100 | 1016.1 |
| 20260510014000 | 54 | 351 | 2.0 | 4.0 | 0.00 | 0.00 | 0.00 | 100 | 1016.1 |
| 20260510013900 | 54 | 32 | 1.0 | 3.0 | 0.00 | 0.00 | 0.00 | 100 | 1016.1 |
| 20260510013800 | 54 | 28 | 3.0 | 6.0 | 0.00 | 0.00 | 0.00 | 100 | 1016.1 |
| 20260510013712 | 54 | 28 | 3.0 | 6.0 | 0.00 | 0.00 | 0.00 | 100 | 1016.1 |
| 20260510013700 | 54 | 18 | 2.0 | 6.0 | 0.00 | 0.00 | 0.00 | 100 | 1016.2 |
| 20260510013600 | 54 | 32 | 3.0 | 6.0 | 0.00 | 0.00 | 0.00 | 100 | 1016.1 |
| 20260510013500 | 54 | 9 | 3.0 | 4.0 | 0.00 | 0.00 | 0.00 | 100 | 1016.2 |
| 20260510013400 | 54 | 37 | 4.0 | 4.0 | 0.00 | 0.00 | 0.00 | 100 | 1016.2 |
| 20260510013300 | 54 | 28 | 3.0 | 5.0 | 0.00 | 0.00 | 0.00 | 100 | 1016.2 |
| 20260510013213 | 54 | 28 | 3.0 | 5.0 | 0.00 | 0.00 | 0.00 | 100 | 1016.2 |
| 20260510013201 | 54 | 17 | 3.0 | 5.0 | 0.00 | 0.00 | 0.00 | 100 | 1016.2 |
| 20260510013100 | 54 | 47 | 4.0 | 5.0 | 0.00 | 0.00 | 0.00 | 100 | 1016.2 |
| 20260510013000 | 54 | 32 | 3.0 | 3.0 | 0.00 | 0.00 | 0.00 | 100 | 1016.3 |
| 20260510012900 | 54 | 5 | 2.0 | 3.0 | 0.00 | 0.00 | 0.00 | 100 | 1016.3 |
| 20260510012800 | 54 | 53 | 3.0 | 5.0 | 0.00 | 0.00 | 0.00 | 100 | 1016.3 |
| 20260510012713 | 54 | 53 | 3.0 | 5.0 | 0.00 | 0.00 | 0.00 | 100 | 1016.3 |
| 20260510012701 | 54 | 59 | 4.0 | 4.0 | 0.00 | 0.00 | 0.00 | 100 | 1016.2 |
| 20260510012601 | 54 | 40 | 3.0 | 3.0 | 0.00 | 0.00 | 0.00 | 100 | 1016.2 |
| 20260510012501 | 54 | 15 | 2.0 | 3.0 | 0.00 | 0.00 | 0.00 | 100 | 1016.2 |
| 20260510012401 | 54 | 44 | 3.0 | 3.0 | 0.00 | 0.00 | 0.00 | 100 | 1016.2 |
| 20260510012301 | 54 | 59 | 4.0 | 6.0 | 0.00 | 0.00 | 0.00 | 100 | 1016.3 |
| 20260510012213 | 54 | 59 | 4.0 | 6.0 | 0.00 | 0.00 | 0.00 | 100 | 1016.3 |
| 20260510012201 | 54 | 23 | 3.0 | 6.0 | 0.00 | 0.00 | 0.00 | 100 | 1016.3 |
| 20260510012101 | 54 | 51 | 3.0 | 6.0 | 0.00 | 0.00 | 0.00 | 100 | 1016.3 |
| 20260510012001 | 54 | 24 | 2.0 | 6.0 | 0.00 | 0.00 | 0.00 | 100 | 1016.3 |
| 20260510011901 | 54 | 44 | 3.0 | 4.0 | 0.00 | 0.00 | 0.00 | 100 | 1016.3 |
| 20260510011801 | 54 | 22 | 3.0 | 5.0 | 0.00 | 0.00 | 0.00 | 100 | 1016.3 |
| 20260510011713 | 54 | 22 | 3.0 | 5.0 | 0.00 | 0.00 | 0.00 | 100 | 1016.3 |
| 20260510011701 | 54 | 47 | 4.0 | 5.0 | 0.00 | 0.00 | 0.00 | 100 | 1016.3 |
| 20260510011600 | 54 | 41 | 3.0 | 5.0 | 0.00 | 0.00 | 0.00 | 100 | 1016.3 |
| 20260510011500 | 54 | 40 | 3.0 | 5.0 | 0.00 | 0.00 | 0.00 | 100 | 1016.3 |
| 20260510011401 | 54 | 17 | 3.0 | 5.0 | 0.00 | 0.00 | 0.00 | 100 | 1016.3 |
| 20260510011301 | 54 | 349 | 2.0 | 6.0 | 0.00 | 0.00 | 0.00 | 100 | 1016.2 |
| 20260510011213 | 54 | 349 | 2.0 | 6.0 | 0.00 | 0.00 | 0.00 | 100 | 1016.2 |
| 20260510011201 | 54 | 34 | 3.0 | 6.0 | 0.00 | 0.00 | 0.00 | 100 | 1016.3 |
| 20260510011101 | 54 | 36 | 2.0 | 6.0 | 0.00 | 0.00 | 0.00 | 100 | 1016.3 |
| 20260510011000 | 54 | 37 | 4.0 | 6.0 | 0.00 | 0.00 | 0.00 | 100 | 1016.3 |
| 20260510010900 | 55 | 32 | 4.0 | 4.0 | 0.00 | 0.00 | 0.00 | 100 | 1016.3 |
| 20260510010800 | 54 | 30 | 3.0 | 5.0 | 0.00 | 0.00 | 0.00 | 100 | 1016.3 |
| 20260510010712 | 54 | 30 | 3.0 | 5.0 | 0.00 | 0.00 | 0.00 | 100 | 1016.3 |
| 20260510010700 | 55 | 25 | 3.0 | 5.0 | 0.00 | 0.00 | 0.00 | 100 | 1016.3 |
| 20260510010600 | 55 | 30 | 3.0 | 5.0 | 0.00 | 0.00 | 0.00 | 100 | 1016.3 |
| 20260510010500 | 55 | 57 | 4.0 | 5.0 | 0.00 | 0.00 | 0.00 | 100 | 1016.3 |
| 20260510010400 | 55 | 38 | 4.0 | 4.0 | 0.00 | 0.00 | 0.00 | 100 | 1016.3 |
| 20260510010300 | 55 | 49 | 3.0 | 6.0 | 0.00 | 0.00 | 0.00 | 100 | 1016.3 |
| 20260510010212 | 55 | 49 | 3.0 | 6.0 | 0.00 | 0.00 | 0.00 | 100 | 1016.3 |
| 20260510010200 | 55 | 35 | 3.0 | 6.0 | 0.00 | 0.00 | 0.00 | 100 | 1016.3 |
| 20260510010001 | 55 | 63 | 2.0 | 6.0 | 0.00 | 0.00 | 0.00 | 100 | 1016.3 |
| 20260510005901 | 55 | 41 | 3.0 | 6.0 | 0.00 | 0.00 | 0.00 | 100 | 1016.3 |
| 20260510005801 | 55 | 45 | 3.0 | 5.0 | 0.00 | 0.00 | 0.00 | 100 | 1016.2 |
| 20260510005713 | 55 | 45 | 3.0 | 5.0 | 0.00 | 0.00 | 0.00 | 100 | 1016.2 |
| 20260510005701 | 55 | 32 | 3.0 | 5.0 | 0.00 | 0.00 | 0.00 | 100 | 1016.3 |
| 20260510005601 | 55 | 38 | 3.0 | 5.0 | 0.00 | 0.00 | 0.00 | 100 | 1016.2 |
| 20260510005501 | 55 | 355 | 4.0 | 5.0 | 0.00 | 0.00 | 0.00 | 100 | 1016.2 |
| 20260510005401 | 55 | 27 | 3.0 | 5.0 | 0.00 | 0.00 | 0.00 | 100 | 1016.3 |
| 20260510005301 | 55 | 33 | 3.0 | 6.0 | 0.00 | 0.00 | 0.00 | 100 | 1016.3 |
| 20260510005212 | 55 | 33 | 3.0 | 6.0 | 0.00 | 0.00 | 0.00 | 100 | 1016.3 |
| 20260510005200 | 55 | 53 | 3.0 | 6.0 | 0.00 | 0.00 | 0.00 | 100 | 1016.3 |
| 20260510005100 | 55 | 40 | 4.0 | 6.0 | 0.00 | 0.00 | 0.00 | 100 | 1016.3 |
| 20260510005000 | 55 | 9 | 3.0 | 3.0 | 0.00 | 0.00 | 0.00 | 100 | 1016.3 |
| 20260510004900 | 55 | 38 | 3.0 | 3.0 | 0.00 | 0.00 | 0.00 | 100 | 1016.3 |
| 20260510004800 | 55 | 30 | 4.0 | 7.0 | 0.00 | 0.00 | 0.00 | 100 | 1016.3 |
| 20260510004713 | 55 | 30 | 4.0 | 7.0 | 0.00 | 0.00 | 0.00 | 100 | 1016.3 |
| 20260510004701 | 55 | 22 | 3.0 | 5.0 | 0.00 | 0.00 | 0.00 | 100 | 1016.3 |
| 20260510004600 | 55 | 43 | 3.0 | 5.0 | 0.00 | 0.00 | 0.00 | 100 | 1016.3 |
| 20260510004501 | 55 | 43 | 1.0 | 5.0 | 0.00 | 0.00 | 0.00 | 100 | 1016.4 |
| 20260510004401 | 55 | 33 | 2.0 | 4.0 | 0.00 | 0.00 | 0.00 | 100 | 1016.4 |
| 20260510004301 | 55 | 48 | 2.0 | 6.0 | 0.00 | 0.00 | 0.00 | 100 | 1016.4 |
| 20260510004213 | 55 | 48 | 2.0 | 6.0 | 0.00 | 0.00 | 0.00 | 100 | 1016.4 |
| 20260510004201 | 55 | 28 | 3.0 | 6.0 | 0.00 | 0.00 | 0.00 | 100 | 1016.4 |
| 20260510004101 | 55 | 349 | 3.0 | 6.0 | 0.00 | 0.00 | 0.00 | 100 | 1016.3 |
| 20260510004001 | 55 | 20 | 3.0 | 6.0 | 0.00 | 0.00 | 0.00 | 100 | 1016.4 |
| 20260510003901 | 55 | 32 | 2.0 | 6.0 | 0.00 | 0.00 | 0.00 | 100 | 1016.4 |
| 20260510003800 | 55 | 34 | 3.0 | 5.0 | 0.00 | 0.00 | 0.00 | 100 | 1016.4 |
| 20260510003712 | 55 | 34 | 3.0 | 5.0 | 0.00 | 0.00 | 0.00 | 100 | 1016.4 |
| 20260510003700 | 55 | 51 | 3.0 | 5.0 | 0.00 | 0.00 | 0.00 | 100 | 1016.4 |
| 20260510003600 | 55 | 37 | 4.0 | 5.0 | 0.00 | 0.00 | 0.00 | 100 | 1016.4 |
| 20260510003501 | 55 | 26 | 2.0 | 5.0 | 0.00 | 0.00 | 0.00 | 100 | 1016.4 |
| 20260510003401 | 54 | 53 | 5.0 | 5.0 | 0.00 | 0.00 | 0.00 | 100 | 1016.4 |
| 20260510003301 | 54 | 28 | 3.0 | 4.0 | 0.00 | 0.00 | 0.00 | 100 | 1016.5 |
| 20260510003213 | 54 | 28 | 3.0 | 4.0 | 0.00 | 0.00 | 0.00 | 100 | 1016.5 |
| 20260510003201 | 54 | 13 | 3.0 | 4.0 | 0.00 | 0.00 | 0.00 | 100 | 1016.4 |
| 20260510003101 | 54 | 19 | 1.0 | 4.0 | 0.00 | 0.00 | 0.00 | 100 | 1016.5 |
| 20260510003000 | 54 | 39 | 3.0 | 4.0 | 0.00 | 0.00 | 0.00 | 100 | 1016.5 |
| 20260510002900 | 54 | 49 | 3.0 | 4.0 | 0.00 | 0.00 | 0.00 | 100 | 1016.4 |
| 20260510002800 | 54 | 17 | 3.0 | 4.0 | 0.00 | 0.00 | 0.00 | 100 | 1016.4 |
| 20260510002713 | 54 | 17 | 3.0 | 4.0 | 0.00 | 0.00 | 0.00 | 100 | 1016.4 |
| 20260510002701 | 54 | 36 | 2.0 | 4.0 | 0.00 | 0.00 | 0.00 | 100 | 1016.4 |
| 20260510002601 | 54 | 24 | 1.0 | 4.0 | 0.00 | 0.00 | 0.00 | 100 | 1016.4 |
| 20260510002501 | 54 | 51 | 3.0 | 4.0 | 0.00 | 0.00 | 0.00 | 100 | 1016.4 |
| 20260510002400 | 54 | 15 | 2.0 | 2.0 | 0.00 | 0.00 | 0.00 | 100 | 1016.4 |
| 20260510002301 | 54 | 33 | 3.0 | 3.0 | 0.00 | 0.00 | 0.00 | 100 | 1016.4 |
| 20260510002213 | 54 | 33 | 3.0 | 3.0 | 0.00 | 0.00 | 0.00 | 100 | 1016.4 |
| 20260510002200 | 54 | 36 | 2.0 | 3.0 | 0.00 | 0.00 | 0.00 | 100 | 1016.4 |
| 20260510002100 | 54 | 38 | 3.0 | 3.0 | 0.00 | 0.00 | 0.00 | 100 | 1016.4 |
| 20260510002000 | 54 | 28 | 1.0 | 3.0 | 0.00 | 0.00 | 0.00 | 100 | 1016.4 |
| 20260510001900 | 54 | 15 | 2.0 | 3.0 | 0.00 | 0.00 | 0.00 | 100 | 1016.3 |
| 20260510001801 | 54 | 17 | 3.0 | 5.0 | 0.00 | 0.00 | 0.00 | 100 | 1016.3 |
| 20260510001713 | 54 | 17 | 3.0 | 5.0 | 0.00 | 0.00 | 0.00 | 100 | 1016.3 |
| 20260510001701 | 54 | 9 | 3.0 | 5.0 | 0.00 | 0.00 | 0.00 | 100 | 1016.3 |
| 20260510001601 | 54 | 21 | 3.0 | 3.0 | 0.00 | 0.00 | 0.00 | 100 | 1016.3 |
| 20260510001501 | 54 | 22 | 1.0 | 2.0 | 0.00 | 0.00 | 0.00 | 100 | 1016.4 |
| 20260510001401 | 54 | 50 | 1.0 | 2.0 | 0.00 | 0.00 | 0.00 | 100 | 1016.4 |
| 20260510001301 | 54 | 22 | 2.0 | 4.0 | 0.00 | 0.00 | 0.00 | 100 | 1016.4 |
| 20260510001213 | 54 | 22 | 2.0 | 4.0 | 0.00 | 0.00 | 0.00 | 100 | 1016.4 |
| 20260510001201 | 54 | 40 | 2.0 | 4.0 | 0.00 | 0.00 | 0.00 | 100 | 1016.4 |
| 20260510001101 | 54 | 26 | 2.0 | 4.0 | 0.00 | 0.00 | 0.00 | 100 | 1016.4 |
| 20260510001001 | 54 | 48 | 3.0 | 4.0 | 0.00 | 0.00 | 0.00 | 100 | 1016.4 |
| 20260510000901 | 54 | 42 | 2.0 | 3.0 | 0.00 | 0.00 | 0.00 | 100 | 1016.4 |
| 20260510000801 | 54 | 5 | 3.0 | 6.0 | 0.00 | 0.00 | 0.00 | 100 | 1016.4 |
| 20260510000713 | 54 | 5 | 3.0 | 6.0 | 0.00 | 0.00 | 0.00 | 100 | 1016.4 |
| 20260510000700 | 54 | 30 | 2.0 | 6.0 | 0.00 | 0.00 | 0.00 | 100 | 1016.5 |
| 20260510000600 | 54 | 37 | 2.0 | 6.0 | 0.00 | 0.00 | 0.00 | 100 | 1016.4 |
| 20260510000500 | 54 | 65 | 3.0 | 6.0 | 0.00 | 0.00 | 0.00 | 100 | 1016.5 |
| 20260510000400 | 54 | 32 | 6.0 | 6.0 | 0.00 | 0.00 | 0.00 | 100 | 1016.5 |
| 20260510000300 | 54 | 64 | 1.0 | 5.0 | 0.00 | 0.00 | 0.00 | 100 | 1016.5 |
| 20260510000212 | 54 | 64 | 1.0 | 5.0 | 0.00 | 0.00 | 0.00 | 100 | 1016.5 |
| 20260510000200 | 54 | 40 | 3.0 | 5.0 | 0.00 | 0.00 | 0.00 | 100 | 1016.5 |
| 20260510000100 | 54 | 81 | 1.0 | 5.0 | 0.00 | 0.00 | 0.00 | 100 | 1016.5 |
| 20260510000000 | 54 | 21 | 1.0 | 2.0 | 0.00 | 0.00 | 0.00 | 100 | 1016.6 |
| 20260509235900 | 54 | 21 | 2.0 | 2.0 | 0.00 | 0.00 | 0.00 | 100 | 1016.6 |
| 20260509235801 | 54 | 22 | 2.0 | 2.0 | 0.00 | 0.00 | 0.00 | 100 | 1016.6 |
| 20260509235713 | 54 | 22 | 2.0 | 2.0 | 0.00 | 0.00 | 0.00 | 100 | 1016.6 |
| 20260509235701 | 54 | 45 | 1.0 | 2.0 | 0.00 | 0.00 | 0.00 | 100 | 1016.6 |
| 20260509235600 | 54 | 66 | 1.0 | 1.0 | 0.00 | 0.00 | 0.00 | 100 | 1016.6 |
| 20260509235501 | 54 | 79 | 0.0 | 1.0 | 0.00 | 0.00 | 0.00 | 100 | 1016.6 |
| 20260509235400 | 54 | 79 | 1.0 | 1.0 | 0.00 | 0.00 | 0.00 | 100 | 1016.6 |
| 20260509235300 | 54 | 79 | 0.0 | 1.0 | 0.00 | 0.00 | 0.00 | 100 | 1016.6 |
| 20260509235213 | 54 | 79 | 0.0 | 1.0 | 0.00 | 0.00 | 0.00 | 100 | 1016.6 |
| 20260509235201 | 54 | 79 | 0.0 | 1.0 | 0.00 | 0.00 | 0.00 | 100 | 1016.6 |
| 20260509235101 | 54 | 79 | 0.0 | 1.0 | 0.00 | 0.00 | 0.00 | 100 | 1016.6 |
| 20260509235001 | 54 | 79 | 0.0 | 1.0 | 0.00 | 0.00 | 0.00 | 100 | 1016.6 |
| 20260509234901 | 54 | 79 | 0.0 | 1.0 | 0.00 | 0.00 | 0.00 | 100 | 1016.5 |
| 20260509234801 | 54 | 79 | 1.0 | 3.0 | 0.00 | 0.00 | 0.00 | 100 | 1016.6 |
| 20260509234712 | 54 | 79 | 1.0 | 3.0 | 0.00 | 0.00 | 0.00 | 100 | 1016.6 |
| 20260509234700 | 54 | 46 | 2.0 | 3.0 | 0.00 | 0.00 | 0.00 | 100 | 1016.5 |
| 20260509234600 | 54 | 68 | 1.0 | 2.0 | 0.00 | 0.00 | 0.00 | 100 | 1016.6 |
| 20260509234500 | 55 | 78 | 2.0 | 2.0 | 0.00 | 0.00 | 0.00 | 100 | 1016.6 |
| 20260509234400 | 55 | 63 | 0.0 | 0.0 | 0.00 | 0.00 | 0.00 | 100 | 1016.6 |
| 20260509234302 | 55 | 63 | 0.0 | 0.0 | 0.00 | 0.00 | 0.00 | 100 | 1016.6 |
| 20260509234213 | 55 | 63 | 0.0 | 0.0 | 0.00 | 0.00 | 0.00 | 100 | 1016.6 |
| 20260509234200 | 55 | 63 | 0.0 | 0.0 | 0.00 | 0.00 | 0.00 | 100 | 1016.6 |
| 20260509234100 | 55 | 63 | 0.0 | 0.0 | 0.00 | 0.00 | 0.00 | 100 | 1016.7 |
| 20260509234000 | 55 | 63 | 0.0 | 0.0 | 0.00 | 0.00 | 0.00 | 100 | 1016.7 |
| 20260509233900 | 55 | 63 | 0.0 | 0.0 | 0.00 | 0.00 | 0.00 | 100 | 1016.6 |
| 20260509233800 | 55 | 63 | 0.0 | 3.0 | 0.00 | 0.00 | 0.00 | 100 | 1016.7 |
| 20260509233712 | 55 | 63 | 0.0 | 3.0 | 0.00 | 0.00 | 0.00 | 100 | 1016.7 |
| 20260509233700 | 55 | 63 | 1.0 | 3.0 | 0.00 | 0.00 | 0.00 | 100 | 1016.6 |
| 20260509233600 | 55 | 82 | 0.0 | 3.0 | 0.00 | 0.00 | 0.00 | 100 | 1016.6 |
| 20260509233501 | 55 | 82 | 2.0 | 3.0 | 0.00 | 0.00 | 0.00 | 100 | 1016.6 |
| 20260509233401 | 55 | 88 | 2.0 | 3.0 | 0.00 | 0.00 | 0.00 | 100 | 1016.6 |
| 20260509233301 | 55 | 60 | 0.0 | 3.0 | 0.00 | 0.00 | 0.00 | 100 | 1016.5 |
| 20260509233213 | 55 | 60 | 0.0 | 3.0 | 0.00 | 0.00 | 0.00 | 100 | 1016.5 |
| 20260509233201 | 55 | 60 | 0.0 | 3.0 | 0.00 | 0.00 | 0.00 | 100 | 1016.6 |
| 20260509233100 | 55 | 103 | 2.0 | 3.0 | 0.00 | 0.00 | 0.00 | 100 | 1016.6 |
| 20260509233000 | 55 | 79 | 3.0 | 3.0 | 0.00 | 0.00 | 0.00 | 100 | 1016.5 |
| 20260509232900 | 55 | 80 | 2.0 | 3.0 | 0.00 | 0.00 | 0.00 | 100 | 1016.6 |
| 20260509232800 | 55 | 64 | 2.0 | 3.0 | 0.00 | 0.00 | 0.00 | 100 | 1016.6 |
| 20260509232714 | 55 | 64 | 2.0 | 3.0 | 0.00 | 0.00 | 0.00 | 100 | 1016.6 |
| 20260509232702 | 55 | 67 | 0.0 | 3.0 | 0.00 | 0.00 | 0.00 | 100 | 1016.5 |
| 20260509232600 | 55 | 65 | 0.0 | 3.0 | 0.00 | 0.00 | 0.00 | 100 | 1016.6 |
| 20260509232500 | 55 | 78 | 0.0 | 3.0 | 0.00 | 0.00 | 0.00 | 100 | 1016.5 |
| 20260509232400 | 55 | 78 | 0.0 | 3.0 | 0.00 | 0.00 | 0.00 | 100 | 1016.5 |
| 20260509232300 | 55 | 30 | 0.0 | 6.0 | 0.00 | 0.00 | 0.00 | 100 | 1016.5 |
| 20260509232213 | 55 | 30 | 0.0 | 6.0 | 0.00 | 0.00 | 0.00 | 100 | 1016.5 |
| 20260509232201 | 55 | 45 | 3.0 | 6.0 | 0.00 | 0.00 | 0.00 | 100 | 1016.5 |
| 20260509232100 | 55 | 42 | 3.0 | 5.0 | 0.00 | 0.00 | 0.00 | 100 | 1016.5 |
| 20260509232000 | 55 | 38 | 1.0 | 5.0 | 0.00 | 0.00 | 0.00 | 100 | 1016.5 |
| 20260509231900 | 55 | 51 | 2.0 | 5.0 | 0.00 | 0.00 | 0.00 | 100 | 1016.5 |
| 20260509231800 | 55 | 18 | 1.0 | 5.0 | 0.00 | 0.00 | 0.00 | 100 | 1016.6 |
| 20260509231713 | 55 | 18 | 1.0 | 5.0 | 0.00 | 0.00 | 0.00 | 100 | 1016.6 |
| 20260509231701 | 55 | 27 | 3.0 | 4.0 | 0.00 | 0.00 | 0.00 | 100 | 1016.6 |
| 20260509231601 | 55 | 50 | 0.0 | 4.0 | 0.00 | 0.00 | 0.00 | 100 | 1016.6 |
| 20260509231501 | 55 | 85 | 3.0 | 4.0 | 0.00 | 0.00 | 0.00 | 100 | 1016.6 |
| 20260509231401 | 55 | 20 | 1.0 | 4.0 | 0.00 | 0.00 | 0.00 | 100 | 1016.6 |
| 20260509231301 | 55 | 30 | 2.0 | 6.0 | 0.00 | 0.00 | 0.00 | 100 | 1016.6 |
| 20260509231213 | 55 | 30 | 2.0 | 6.0 | 0.00 | 0.00 | 0.00 | 100 | 1016.6 |
| 20260509231201 | 55 | 55 | 2.0 | 3.0 | 0.00 | 0.00 | 0.00 | 100 | 1016.6 |
| 20260509231100 | 55 | 58 | 2.0 | 3.0 | 0.00 | 0.00 | 0.00 | 100 | 1016.6 |
| 20260509231000 | 55 | 349 | 1.0 | 3.0 | 0.00 | 0.00 | 0.00 | 100 | 1016.6 |
| 20260509230901 | 55 | 360 | 3.0 | 3.0 | 0.00 | 0.00 | 0.00 | 100 | 1016.7 |
| 20260509230801 | 55 | 19 | 1.0 | 5.0 | 0.00 | 0.00 | 0.00 | 100 | 1016.7 |
| 20260509230713 | 55 | 19 | 1.0 | 5.0 | 0.00 | 0.00 | 0.00 | 100 | 1016.7 |
| 20260509230701 | 55 | 19 | 2.0 | 5.0 | 0.00 | 0.00 | 0.00 | 100 | 1016.7 |
| 20260509230601 | 56 | 48 | 1.0 | 4.0 | 0.00 | 0.00 | 0.00 | 100 | 1016.6 |
| 20260509230501 | 56 | 34 | 0.0 | 4.0 | 0.00 | 0.00 | 0.00 | 100 | 1016.6 |
| 20260509230401 | 56 | 24 | 1.0 | 4.0 | 0.00 | 0.00 | 0.00 | 100 | 1016.6 |
| 20260509230301 | 56 | 36 | 3.0 | 4.0 | 0.00 | 0.00 | 0.00 | 100 | 1016.6 |
| 20260509230213 | 56 | 36 | 3.0 | 4.0 | 0.00 | 0.00 | 0.00 | 100 | 1016.6 |
| 20260509230201 | 56 | 36 | 2.0 | 4.0 | 0.00 | 0.00 | 0.00 | 100 | 1016.6 |
| 20260509230101 | 56 | 29 | 3.0 | 4.0 | 0.00 | 0.00 | 0.00 | 100 | 1016.6 |
| 20260509230001 | 56 | 355 | 3.0 | 4.0 | 0.00 | 0.00 | 0.00 | 100 | 1016.6 |
| 20260509225901 | 56 | 49 | 3.0 | 3.0 | 0.00 | 0.00 | 0.00 | 100 | 1016.6 |
| 20260509225801 | 56 | 20 | 2.0 | 7.0 | 0.00 | 0.00 | 0.00 | 100 | 1016.6 |
| 20260509225714 | 56 | 20 | 2.0 | 7.0 | 0.00 | 0.00 | 0.00 | 100 | 1016.6 |
| 20260509225702 | 56 | 69 | 3.0 | 7.0 | 0.00 | 0.00 | 0.00 | 100 | 1016.6 |
| 20260509225602 | 56 | 40 | 2.0 | 7.0 | 0.00 | 0.00 | 0.00 | 100 | 1016.6 |
| 20260509225502 | 56 | 31 | 5.0 | 5.0 | 0.00 | 0.00 | 0.00 | 100 | 1016.6 |
| 20260509225401 | 56 | 19 | 2.0 | 3.0 | 0.00 | 0.00 | 0.00 | 100 | 1016.6 |
| 20260509225300 | 56 | 27 | 2.0 | 9.0 | 0.00 | 0.00 | 0.00 | 100 | 1016.5 |
| 20260509225212 | 56 | 27 | 2.0 | 9.0 | 0.00 | 0.00 | 0.00 | 100 | 1016.5 |
| 20260509225200 | 56 | 30 | 3.0 | 9.0 | 0.00 | 0.00 | 0.00 | 100 | 1016.5 |
| 20260509225100 | 56 | 48 | 3.0 | 9.0 | 0.00 | 0.00 | 0.00 | 100 | 1016.5 |
| 20260509225000 | 56 | 36 | 7.0 | 7.0 | 0.00 | 0.00 | 0.00 | 100 | 1016.5 |
| 20260509224901 | 56 | 14 | 2.0 | 5.0 | 0.00 | 0.00 | 0.00 | 100 | 1016.5 |
| 20260509224801 | 56 | 61 | 4.0 | 10.0 | 0.00 | 0.00 | 0.00 | 100 | 1016.5 |
| 20260509224713 | 56 | 61 | 4.0 | 10.0 | 0.00 | 0.00 | 0.00 | 100 | 1016.5 |
| 20260509224701 | 56 | 78 | 3.0 | 10.0 | 0.00 | 0.00 | 0.00 | 100 | 1016.4 |
| 20260509224600 | 56 | 46 | 4.0 | 5.0 | 0.00 | 0.00 | 0.00 | 100 | 1016.4 |
| 20260509224500 | 56 | 17 | 2.0 | 5.0 | 0.00 | 0.00 | 0.00 | 100 | 1016.4 |
| 20260509224400 | 56 | 55 | 3.0 | 5.0 | 0.00 | 0.00 | 0.00 | 100 | 1016.4 |
| 20260509224300 | 56 | 18 | 1.0 | 9.0 | 0.00 | 0.00 | 0.00 | 100 | 1016.4 |
| 20260509224212 | 56 | 18 | 1.0 | 9.0 | 0.00 | 0.00 | 0.00 | 100 | 1016.4 |
| 20260509224200 | 56 | 51 | 2.0 | 9.0 | 0.00 | 0.00 | 0.00 | 100 | 1016.4 |
| 20260509224101 | 56 | 32 | 4.0 | 9.0 | 0.00 | 0.00 | 0.00 | 100 | 1016.4 |
| 20260509224001 | 56 | 61 | 3.0 | 6.0 | 0.00 | 0.00 | 0.00 | 100 | 1016.4 |
| 20260509223901 | 56 | 76 | 3.0 | 6.0 | 0.00 | 0.00 | 0.00 | 100 | 1016.4 |
| 20260509223801 | 56 | 24 | 2.0 | 5.0 | 0.00 | 0.00 | 0.00 | 100 | 1016.4 |
| 20260509223713 | 56 | 24 | 2.0 | 5.0 | 0.00 | 0.00 | 0.00 | 100 | 1016.4 |
| 20260509223701 | 56 | 40 | 3.0 | 5.0 | 0.00 | 0.00 | 0.00 | 100 | 1016.4 |
| 20260509223601 | 56 | 50 | 3.0 | 5.0 | 0.00 | 0.00 | 0.00 | 100 | 1016.4 |
| 20260509223500 | 56 | 76 | 3.0 | 5.0 | 0.00 | 0.00 | 0.00 | 100 | 1016.4 |
| 20260509223400 | 56 | 28 | 3.0 | 5.0 | 0.00 | 0.00 | 0.00 | 100 | 1016.4 |
| 20260509223300 | 56 | 33 | 2.0 | 7.0 | 0.00 | 0.00 | 0.00 | 100 | 1016.4 |
| 20260509223212 | 56 | 33 | 2.0 | 7.0 | 0.00 | 0.00 | 0.00 | 100 | 1016.4 |
| 20260509223200 | 56 | 13 | 5.0 | 6.0 | 0.00 | 0.00 | 0.00 | 100 | 1016.4 |
| 20260509223101 | 56 | 55 | 2.0 | 5.0 | 0.00 | 0.00 | 0.00 | 100 | 1016.4 |
| 20260509223000 | 56 | 13 | 2.0 | 5.0 | 0.00 | 0.00 | 0.00 | 100 | 1016.4 |
| 20260509222900 | 56 | 69 | 3.0 | 5.0 | 0.00 | 0.00 | 0.00 | 100 | 1016.4 |
| 20260509222800 | 56 | 78 | 4.0 | 5.0 | 0.00 | 0.00 | 0.00 | 100 | 1016.4 |
| 20260509222712 | 56 | 78 | 4.0 | 5.0 | 0.00 | 0.00 | 0.00 | 100 | 1016.4 |
| 20260509222700 | 56 | 59 | 1.0 | 5.0 | 0.00 | 0.00 | 0.00 | 100 | 1016.4 |
| 20260509222600 | 56 | 67 | 2.0 | 5.0 | 0.00 | 0.00 | 0.00 | 100 | 1016.4 |
| 20260509222501 | 56 | 34 | 2.0 | 5.0 | 0.00 | 0.00 | 0.00 | 100 | 1016.4 |
| 20260509222401 | 56 | 22 | 3.0 | 5.0 | 0.00 | 0.00 | 0.00 | 100 | 1016.4 |
| 20260509222301 | 56 | 81 | 2.0 | 5.0 | 0.00 | 0.00 | 0.00 | 100 | 1016.4 |
| 20260509222213 | 56 | 81 | 2.0 | 5.0 | 0.00 | 0.00 | 0.00 | 100 | 1016.4 |
| 20260509222201 | 56 | 77 | 2.0 | 5.0 | 0.00 | 0.00 | 0.00 | 100 | 1016.4 |
| 20260509222100 | 56 | 53 | 3.0 | 5.0 | 0.00 | 0.00 | 0.00 | 100 | 1016.4 |
| 20260509222000 | 56 | 43 | 3.0 | 4.0 | 0.00 | 0.00 | 0.00 | 100 | 1016.4 |
| 20260509221900 | 56 | 350 | 3.0 | 4.0 | 0.00 | 0.00 | 0.00 | 100 | 1016.5 |
| 20260509221800 | 56 | 59 | 1.0 | 6.0 | 0.00 | 0.00 | 0.00 | 100 | 1016.4 |
| 20260509221712 | 56 | 59 | 1.0 | 6.0 | 0.00 | 0.00 | 0.00 | 100 | 1016.4 |
| 20260509221700 | 56 | 51 | 1.0 | 6.0 | 0.00 | 0.00 | 0.00 | 100 | 1016.5 |
| 20260509221600 | 56 | 43 | 1.0 | 6.0 | 0.00 | 0.00 | 0.00 | 100 | 1016.4 |
| 20260509221500 | 56 | 76 | 2.0 | 6.0 | 0.00 | 0.00 | 0.00 | 100 | 1016.4 |
| 20260509221401 | 56 | 57 | 6.0 | 6.0 | 0.00 | 0.00 | 0.00 | 100 | 1016.4 |
| 20260509221301 | 56 | 46 | 2.0 | 6.0 | 0.00 | 0.00 | 0.00 | 100 | 1016.5 |
| 20260509221213 | 56 | 46 | 2.0 | 6.0 | 0.00 | 0.00 | 0.00 | 100 | 1016.5 |
| 20260509221201 | 56 | 55 | 5.0 | 6.0 | 0.00 | 0.00 | 0.00 | 100 | 1016.4 |
| 20260509221101 | 56 | 68 | 1.0 | 6.0 | 0.00 | 0.00 | 0.00 | 100 | 1016.4 |
| 20260509221001 | 56 | 34 | 4.0 | 6.0 | 0.00 | 0.00 | 0.00 | 100 | 1016.5 |
| 20260509220901 | 56 | 44 | 3.0 | 6.0 | 0.00 | 0.00 | 0.00 | 100 | 1016.4 |
| 20260509220800 | 56 | 338 | 2.0 | 8.0 | 0.00 | 0.00 | 0.00 | 100 | 1016.4 |
| 20260509220712 | 56 | 338 | 2.0 | 8.0 | 0.00 | 0.00 | 0.00 | 100 | 1016.4 |
| 20260509220700 | 56 | 23 | 2.0 | 8.0 | 0.00 | 0.00 | 0.00 | 100 | 1016.4 |
| 20260509220600 | 56 | 34 | 4.0 | 8.0 | 0.00 | 0.00 | 0.00 | 100 | 1016.4 |
| 20260509220500 | 56 | 63 | 3.0 | 8.0 | 0.00 | 0.00 | 0.00 | 100 | 1016.4 |
| 20260509220402 | 56 | 5 | 3.0 | 6.0 | 0.00 | 0.00 | 0.00 | 100 | 1016.4 |
| 20260509220302 | 56 | 52 | 5.0 | 7.0 | 0.00 | 0.00 | 0.00 | 100 | 1016.4 |
| 20260509220213 | 56 | 52 | 5.0 | 7.0 | 0.00 | 0.00 | 0.00 | 100 | 1016.4 |
| 20260509220201 | 56 | 53 | 3.0 | 7.0 | 0.00 | 0.00 | 0.00 | 100 | 1016.4 |
| 20260509220100 | 56 | 38 | 3.0 | 7.0 | 0.00 | 0.00 | 0.00 | 100 | 1016.4 |
| 20260509220000 | 56 | 26 | 4.0 | 6.0 | 0.00 | 0.00 | 0.00 | 100 | 1016.4 |
| 20260509215900 | 56 | 49 | 5.0 | 5.0 | 0.00 | 0.00 | 0.00 | 100 | 1016.4 |
| 20260509215800 | 56 | 24 | 4.0 | 9.0 | 0.00 | 0.00 | 0.00 | 100 | 1016.4 |
| 20260509215712 | 56 | 24 | 4.0 | 9.0 | 0.00 | 0.00 | 0.00 | 100 | 1016.4 |
| 20260509215700 | 56 | 37 | 3.0 | 9.0 | 0.00 | 0.00 | 0.00 | 100 | 1016.4 |
| 20260509215602 | 56 | 47 | 6.0 | 9.0 | 0.00 | 0.00 | 0.00 | 100 | 1016.4 |
| 20260509215501 | 56 | 343 | 6.0 | 6.0 | 0.00 | 0.00 | 0.00 | 100 | 1016.4 |
| 20260509215401 | 56 | 32 | 2.0 | 6.0 | 0.00 | 0.00 | 0.00 | 100 | 1016.4 |
| 20260509215300 | 56 | 342 | 3.0 | 7.0 | 0.00 | 0.00 | 0.00 | 100 | 1016.3 |
| 20260509215212 | 56 | 342 | 3.0 | 7.0 | 0.00 | 0.00 | 0.00 | 100 | 1016.3 |
| 20260509215200 | 56 | 87 | 3.0 | 7.0 | 0.00 | 0.00 | 0.00 | 100 | 1016.4 |
| 20260509215100 | 56 | 355 | 3.0 | 7.0 | 0.00 | 0.00 | 0.00 | 100 | 1016.3 |
| 20260509215000 | 56 | 9 | 6.0 | 7.0 | 0.00 | 0.00 | 0.00 | 100 | 1016.3 |
| 20260509214901 | 56 | 34 | 4.0 | 4.0 | 0.00 | 0.00 | 0.00 | 100 | 1016.3 |
| 20260509214801 | 56 | 360 | 6.0 | 8.0 | 0.00 | 0.00 | 0.00 | 100 | 1016.3 |
| 20260509214713 | 56 | 360 | 6.0 | 8.0 | 0.00 | 0.00 | 0.00 | 100 | 1016.3 |
| 20260509214701 | 56 | 31 | 2.0 | 8.0 | 0.00 | 0.00 | 0.00 | 100 | 1016.4 |
| 20260509214601 | 56 | 360 | 2.0 | 8.0 | 0.00 | 0.00 | 0.00 | 100 | 1016.4 |
| 20260509214501 | 56 | 55 | 0.0 | 8.0 | 0.00 | 0.00 | 0.00 | 100 | 1016.4 |
| 20260509214402 | 56 | 34 | 8.0 | 8.0 | 0.00 | 0.00 | 0.00 | 100 | 1016.4 |
| 20260509214302 | 56 | 14 | 2.0 | 6.0 | 0.00 | 0.00 | 0.00 | 100 | 1016.4 |
| 20260509214214 | 56 | 14 | 2.0 | 6.0 | 0.00 | 0.00 | 0.00 | 100 | 1016.4 |
| 20260509214201 | 56 | 74 | 4.0 | 6.0 | 0.00 | 0.00 | 0.00 | 100 | 1016.4 |
| 20260509214101 | 56 | 336 | 3.0 | 6.0 | 0.00 | 0.00 | 0.00 | 100 | 1016.4 |
| 20260509214001 | 56 | 360 | 2.0 | 6.0 | 0.00 | 0.00 | 0.00 | 100 | 1016.4 |
| 20260509213900 | 56 | 9 | 2.0 | 6.0 | 0.00 | 0.00 | 0.00 | 100 | 1016.5 |
| 20260509213800 | 56 | 22 | 3.0 | 9.0 | 0.00 | 0.00 | 0.00 | 100 | 1016.5 |
| 20260509213712 | 56 | 22 | 3.0 | 9.0 | 0.00 | 0.00 | 0.00 | 100 | 1016.5 |
| 20260509213700 | 56 | 49 | 6.0 | 9.0 | 0.00 | 0.00 | 0.00 | 100 | 1016.5 |
| 20260509213600 | 56 | 26 | 2.0 | 7.0 | 0.00 | 0.00 | 0.00 | 100 | 1016.4 |
| 20260509213500 | 56 | 49 | 4.0 | 7.0 | 0.00 | 0.00 | 0.00 | 100 | 1016.5 |
| 20260509213400 | 56 | 43 | 2.0 | 6.0 | 0.00 | 0.00 | 0.00 | 100 | 1016.4 |
| 20260509213300 | 56 | 94 | 4.0 | 7.0 | 0.00 | 0.00 | 0.00 | 100 | 1016.5 |
| 20260509213212 | 56 | 94 | 4.0 | 7.0 | 0.00 | 0.00 | 0.00 | 100 | 1016.5 |
| 20260509213200 | 56 | 40 | 3.0 | 6.0 | 0.00 | 0.00 | 0.00 | 100 | 1016.4 |
| 20260509213100 | 56 | 84 | 2.0 | 6.0 | 0.00 | 0.00 | 0.00 | 100 | 1016.5 |
| 20260509213000 | 56 | 38 | 6.0 | 6.0 | 0.00 | 0.00 | 0.00 | 2 | 1016.5 |
| 20260509212900 | 56 | 360 | 2.0 | 5.0 | 0.00 | 0.00 | 0.00 | 3 | 1016.4 |
| 20260509212802 | 56 | 5 | 3.0 | 8.0 | 0.00 | 0.00 | 0.00 | 4 | 1016.5 |
| 20260509212714 | 56 | 5 | 3.0 | 8.0 | 0.00 | 0.00 | 0.00 | 4 | 1016.5 |
| 20260509212701 | 56 | 40 | 6.0 | 8.0 | 0.00 | 0.00 | 0.00 | 4 | 1016.4 |
| 20260509212601 | 56 | 45 | 7.0 | 8.0 | 0.00 | 0.00 | 0.00 | 4 | 1016.4 |
| 20260509212501 | 56 | 55 | 5.0 | 5.0 | 0.00 | 0.00 | 0.00 | 5 | 1016.4 |
| 20260509212401 | 56 | 350 | 2.0 | 4.0 | 0.00 | 0.00 | 0.00 | 6 | 1016.4 |
| 20260509212305 | 56 | 42 | 2.0 | 6.0 | 0.00 | 0.00 | 0.00 | 6 | 1016.4 |
| 20260509212213 | 56 | 42 | 2.0 | 6.0 | 0.00 | 0.00 | 0.00 | 6 | 1016.4 |
| 20260509212201 | 56 | 54 | 3.0 | 6.0 | 0.00 | 0.00 | 0.00 | 7 | 1016.4 |
| 20260509212100 | 56 | 37 | 3.0 | 6.0 | 0.00 | 0.00 | 0.00 | 8 | 1016.4 |
| 20260509212000 | 56 | 15 | 2.0 | 6.0 | 0.00 | 0.00 | 0.00 | 8 | 1016.4 |
| 20260509211900 | 56 | 15 | 3.0 | 3.0 | 0.00 | 0.00 | 0.00 | 9 | 1016.4 |
| 20260509211801 | 56 | 32 | 2.0 | 10.0 | 0.00 | 0.00 | 0.00 | 11 | 1016.4 |
| 20260509211713 | 56 | 32 | 2.0 | 10.0 | 0.00 | 0.00 | 0.00 | 11 | 1016.4 |
| 20260509211701 | 56 | 360 | 3.0 | 10.0 | 0.00 | 0.00 | 0.00 | 11 | 1016.4 |
| 20260509211601 | 56 | 40 | 7.0 | 10.0 | 0.00 | 0.00 | 0.00 | 10 | 1016.4 |
| 20260509211501 | 56 | 61 | 3.0 | 10.0 | 0.00 | 0.00 | 0.00 | 10 | 1016.4 |
| 20260509211401 | 56 | 56 | 2.0 | 2.0 | 0.00 | 0.00 | 0.00 | 11 | 1016.4 |
| 20260509211301 | 56 | 35 | 2.0 | 6.0 | 0.00 | 0.00 | 0.00 | 12 | 1016.4 |
| 20260509211213 | 56 | 35 | 2.0 | 6.0 | 0.00 | 0.00 | 0.00 | 12 | 1016.4 |
| 20260509211201 | 56 | 40 | 1.0 | 6.0 | 0.00 | 0.00 | 0.00 | 13 | 1016.4 |
| 20260509211100 | 56 | 71 | 3.0 | 4.0 | 0.00 | 0.00 | 0.00 | 13 | 1016.4 |
| 20260509211000 | 56 | 29 | 3.0 | 3.0 | 0.00 | 0.00 | 0.00 | 14 | 1016.4 |
| 20260509210900 | 56 | 38 | 1.0 | 3.0 | 0.00 | 0.00 | 0.00 | 15 | 1016.4 |
| 20260509210800 | 56 | 51 | 1.0 | 7.0 | 0.00 | 0.00 | 0.00 | 15 | 1016.4 |
| 20260509210712 | 56 | 51 | 1.0 | 7.0 | 0.00 | 0.00 | 0.00 | 15 | 1016.4 |
| 20260509210700 | 56 | 36 | 5.0 | 7.0 | 0.00 | 0.00 | 0.00 | 17 | 1016.4 |
| 20260509210600 | 56 | 12 | 3.0 | 7.0 | 0.00 | 0.00 | 0.00 | 17 | 1016.4 |
| 20260509210500 | 56 | 27 | 3.0 | 7.0 | 0.00 | 0.00 | 0.00 | 18 | 1016.4 |
| 20260509210401 | 56 | 21 | 1.0 | 3.0 | 0.00 | 0.00 | 0.00 | 19 | 1016.4 |
| 20260509210301 | 56 | 39 | 3.0 | 5.0 | 0.00 | 0.00 | 0.00 | 19 | 1016.3 |
| 20260509210213 | 56 | 39 | 3.0 | 5.0 | 0.00 | 0.00 | 0.00 | 19 | 1016.3 |
| 20260509210201 | 56 | 46 | 2.0 | 4.0 | 0.00 | 0.00 | 0.00 | 20 | 1016.4 |
| 20260509210101 | 56 | 51 | 2.0 | 4.0 | 0.00 | 0.00 | 0.00 | 20 | 1016.3 |
| 20260509210001 | 56 | 46 | 2.0 | 4.0 | 0.00 | 0.00 | 0.00 | 21 | 1016.3 |
| 20260509205901 | 56 | 34 | 3.0 | 4.0 | 0.00 | 0.00 | 0.00 | 21 | 1016.3 |
| 20260509205801 | 57 | 59 | 0.0 | 7.0 | 0.00 | 0.00 | 0.00 | 22 | 1016.3 |
| 20260509205713 | 57 | 59 | 0.0 | 7.0 | 0.00 | 0.00 | 0.00 | 22 | 1016.3 |
| 20260509205701 | 57 | 360 | 3.0 | 7.0 | 0.00 | 0.00 | 0.00 | 23 | 1016.2 |
| 20260509205600 | 57 | 26 | 5.0 | 7.0 | 0.00 | 0.00 | 0.00 | 23 | 1016.2 |
| 20260509205500 | 57 | 35 | 3.0 | 3.0 | 0.00 | 0.00 | 0.00 | 24 | 1016.3 |
| 20260509205401 | 57 | 51 | 1.0 | 3.0 | 0.00 | 0.00 | 0.00 | 25 | 1016.3 |
| 20260509205301 | 57 | 42 | 4.0 | 5.0 | 0.00 | 0.00 | 0.00 | 25 | 1016.3 |
| 20260509205213 | 57 | 42 | 4.0 | 5.0 | 0.00 | 0.00 | 0.00 | 25 | 1016.3 |
| 20260509205201 | 57 | 30 | 2.0 | 4.0 | 0.00 | 0.00 | 0.00 | 26 | 1016.3 |
| 20260509205101 | 57 | 54 | 2.0 | 4.0 | 0.00 | 0.00 | 0.00 | 26 | 1016.2 |
| 20260509205001 | 57 | 57 | 4.0 | 4.0 | 0.00 | 0.00 | 0.00 | 27 | 1016.2 |
| 20260509204901 | 57 | 42 | 2.0 | 3.0 | 0.00 | 0.00 | 0.00 | 28 | 1016.2 |
| 20260509204801 | 57 | 58 | 4.0 | 8.0 | 0.00 | 0.00 | 0.00 | 29 | 1016.2 |
| 20260509204713 | 57 | 58 | 4.0 | 8.0 | 0.00 | 0.00 | 0.00 | 29 | 1016.2 |
| 20260509204701 | 57 | 13 | 2.0 | 6.0 | 0.00 | 0.00 | 0.00 | 29 | 1016.1 |
| 20260509204600 | 57 | 26 | 2.0 | 4.0 | 0.00 | 0.00 | 0.00 | 30 | 1016.1 |
| 20260509204500 | 57 | 75 | 2.0 | 3.0 | 0.00 | 0.00 | 0.00 | 31 | 1016.1 |
| 20260509204401 | 57 | 61 | 1.0 | 3.0 | 0.00 | 0.00 | 0.00 | 32 | 1016.1 |
| 20260509204301 | 57 | 49 | 3.0 | 7.0 | 0.00 | 0.00 | 0.00 | 33 | 1016.1 |
| 20260509204213 | 57 | 49 | 3.0 | 7.0 | 0.00 | 0.00 | 0.00 | 33 | 1016.1 |
| 20260509204201 | 57 | 96 | 3.0 | 7.0 | 0.00 | 0.00 | 0.00 | 34 | 1016.1 |
| 20260509204101 | 57 | 61 | 1.0 | 7.0 | 0.00 | 0.00 | 0.00 | 35 | 1016.1 |
| 20260509204001 | 57 | 55 | 2.0 | 7.0 | 0.00 | 0.00 | 0.00 | 36 | 1016.2 |
| 20260509203901 | 57 | 32 | 3.0 | 7.0 | 0.00 | 0.00 | 0.00 | 37 | 1016.1 |
| 20260509203801 | 57 | 41 | 4.0 | 9.0 | 0.00 | 0.00 | 0.00 | 37 | 1016.2 |
| 20260509203713 | 57 | 41 | 4.0 | 9.0 | 0.00 | 0.00 | 0.00 | 37 | 1016.2 |
| 20260509203701 | 57 | 88 | 3.0 | 9.0 | 0.00 | 0.00 | 0.00 | 39 | 1016.1 |
| 20260509203601 | 57 | 360 | 1.0 | 9.0 | 0.00 | 0.00 | 0.00 | 40 | 1016.2 |
| 20260509203501 | 57 | 13 | 5.0 | 9.0 | 0.00 | 0.00 | 0.00 | 41 | 1016.2 |
| 20260509203401 | 57 | 46 | 3.0 | 3.0 | 0.00 | 0.00 | 0.00 | 42 | 1016.1 |
| 20260509203301 | 57 | 53 | 1.0 | 6.0 | 0.00 | 0.00 | 0.00 | 43 | 1016.1 |
| 20260509203213 | 57 | 53 | 1.0 | 6.0 | 0.00 | 0.00 | 0.00 | 43 | 1016.1 |
| 20260509203201 | 57 | 46 | 3.0 | 6.0 | 0.00 | 0.00 | 0.00 | 43 | 1016.2 |
| 20260509203100 | 57 | 52 | 5.0 | 6.0 | 0.00 | 0.00 | 0.00 | 45 | 1016.1 |
| 20260509203000 | 57 | 46 | 2.0 | 5.0 | 0.00 | 0.00 | 0.00 | 45 | 1016.1 |
| 20260509202900 | 57 | 360 | 3.0 | 4.0 | 0.00 | 0.00 | 0.00 | 46 | 1016.1 |
| 20260509202800 | 57 | 51 | 2.0 | 4.0 | 0.00 | 0.00 | 0.00 | 47 | 1016.2 |
| 20260509202712 | 57 | 51 | 2.0 | 4.0 | 0.00 | 0.00 | 0.00 | 47 | 1016.2 |
| 20260509202700 | 57 | 347 | 3.0 | 4.0 | 0.00 | 0.00 | 0.00 | 47 | 1016.1 |
| 20260509202600 | 57 | 59 | 1.0 | 4.0 | 0.00 | 0.00 | 0.00 | 48 | 1016.1 |
| 20260509202500 | 57 | 51 | 2.0 | 4.0 | 0.00 | 0.00 | 0.00 | 49 | 1016.2 |
| 20260509202400 | 57 | 21 | 3.0 | 4.0 | 0.00 | 0.00 | 0.00 | 49 | 1016.2 |
| 20260509202300 | 57 | 75 | 3.0 | 4.0 | 0.00 | 0.00 | 0.00 | 49 | 1016.2 |
| 20260509202212 | 57 | 75 | 3.0 | 4.0 | 0.00 | 0.00 | 0.00 | 49 | 1016.2 |
| 20260509202200 | 57 | 64 | 2.0 | 4.0 | 0.00 | 0.00 | 0.00 | 50 | 1016.2 |
| 20260509202101 | 57 | 42 | 4.0 | 4.0 | 0.00 | 0.00 | 0.00 | 50 | 1016.2 |
| 20260509202001 | 57 | 5 | 2.0 | 4.0 | 0.00 | 0.00 | 0.00 | 51 | 1016.3 |
| 20260509201901 | 57 | 28 | 1.0 | 2.0 | 0.00 | 0.00 | 0.00 | 51 | 1016.2 |
| 20260509201801 | 57 | 38 | 3.0 | 5.0 | 0.00 | 0.00 | 0.00 | 51 | 1016.2 |
| 20260509201713 | 57 | 38 | 3.0 | 5.0 | 0.00 | 0.00 | 0.00 | 51 | 1016.2 |
| 20260509201700 | 57 | 46 | 1.0 | 5.0 | 0.00 | 0.00 | 0.00 | 52 | 1016.2 |
| 20260509201600 | 57 | 5 | 5.0 | 5.0 | 0.00 | 0.00 | 0.00 | 52 | 1016.2 |
| 20260509201501 | 57 | 64 | 2.0 | 4.0 | 0.00 | 0.00 | 0.00 | 52 | 1016.1 |
| 20260509201401 | 57 | 87 | 2.0 | 4.0 | 0.00 | 0.00 | 0.00 | 52 | 1016.2 |
| 20260509201301 | 57 | 34 | 2.0 | 4.0 | 0.00 | 0.00 | 0.00 | 52 | 1016.1 |
| 20260509201213 | 57 | 34 | 2.0 | 4.0 | 0.00 | 0.00 | 0.00 | 52 | 1016.1 |
| 20260509201201 | 57 | 42 | 3.0 | 4.0 | 0.00 | 0.00 | 0.00 | 53 | 1016.1 |
| 20260509201101 | 57 | 344 | 0.0 | 3.0 | 0.00 | 0.00 | 0.00 | 53 | 1016.1 |
| 20260509201000 | 57 | 17 | 3.0 | 3.0 | 0.00 | 0.00 | 0.00 | 53 | 1016.1 |
| 20260509200900 | 57 | 44 | 1.0 | 2.0 | 0.00 | 0.00 | 0.00 | 53 | 1016.1 |
| 20260509200800 | 57 | 46 | 1.0 | 4.0 | 0.00 | 0.00 | 0.00 | 53 | 1016.1 |
| 20260509200712 | 57 | 46 | 1.0 | 4.0 | 0.00 | 0.00 | 0.00 | 53 | 1016.1 |
| 20260509200700 | 57 | 49 | 3.0 | 4.0 | 0.00 | 0.00 | 0.00 | 53 | 1016.1 |
| 20260509200601 | 58 | 62 | 3.0 | 4.0 | 0.00 | 0.00 | 0.00 | 53 | 1016.1 |
| 20260509200501 | 58 | 40 | 1.0 | 3.0 | 0.00 | 0.00 | 0.00 | 54 | 1016.1 |
| 20260509200400 | 58 | 75 | 1.0 | 3.0 | 0.00 | 0.00 | 0.00 | 54 | 1016.1 |
| 20260509200300 | 58 | 47 | 2.0 | 6.0 | 0.00 | 0.00 | 0.00 | 54 | 1016.1 |
| 20260509200212 | 58 | 47 | 2.0 | 6.0 | 0.00 | 0.00 | 0.00 | 54 | 1016.1 |
| 20260509200200 | 58 | 90 | 0.0 | 6.0 | 0.00 | 0.00 | 0.00 | 54 | 1016.0 |
| 20260509200100 | 58 | 54 | 3.0 | 6.0 | 0.00 | 0.00 | 0.00 | 54 | 1016.0 |
| 20260509200000 | 58 | 83 | 4.0 | 6.0 | 0.00 | 0.00 | 0.00 | 54 | 1016.0 |
| 20260509195900 | 58 | 63 | 0.0 | 2.0 | 0.00 | 0.00 | 0.00 | 54 | 1016.0 |
| 20260509195800 | 58 | 69 | 1.0 | 4.0 | 0.00 | 0.00 | 0.00 | 54 | 1016.0 |
| 20260509195714 | 58 | 69 | 1.0 | 4.0 | 0.00 | 0.00 | 0.00 | 54 | 1016.0 |
| 20260509195702 | 58 | 92 | 2.0 | 4.0 | 0.00 | 0.00 | 0.00 | 55 | 1015.9 |
| 20260509195601 | 58 | 27 | 1.0 | 4.0 | 0.00 | 0.00 | 0.00 | 55 | 1016.0 |
| 20260509195500 | 58 | 58 | 3.0 | 4.0 | 0.00 | 0.00 | 0.00 | 55 | 1016.0 |
| 20260509195400 | 58 | 69 | 0.0 | 1.0 | 0.00 | 0.00 | 0.00 | 55 | 1016.0 |
| 20260509195300 | 58 | 69 | 0.0 | 4.0 | 0.00 | 0.00 | 0.00 | 55 | 1016.0 |
| 20260509195212 | 58 | 69 | 0.0 | 4.0 | 0.00 | 0.00 | 0.00 | 55 | 1016.0 |
| 20260509195200 | 58 | 21 | 0.0 | 4.0 | 0.00 | 0.00 | 0.00 | 55 | 1016.0 |
| 20260509195100 | 58 | 22 | 1.0 | 4.0 | 0.00 | 0.00 | 0.00 | 55 | 1016.1 |
| 20260509195001 | 58 | 59 | 3.0 | 4.0 | 0.00 | 0.00 | 0.00 | 55 | 1016.0 |
| 20260509194900 | 58 | 29 | 2.0 | 2.0 | 0.00 | 0.00 | 0.00 | 55 | 1016.0 |
| 20260509194800 | 58 | 21 | 1.0 | 6.0 | 0.00 | 0.00 | 0.00 | 55 | 1016.0 |
| 20260509194712 | 58 | 21 | 1.0 | 6.0 | 0.00 | 0.00 | 0.00 | 55 | 1016.0 |
| 20260509194700 | 58 | 52 | 3.0 | 6.0 | 0.00 | 0.00 | 0.00 | 55 | 1016.0 |
| 20260509194601 | 58 | 43 | 2.0 | 6.0 | 0.00 | 0.00 | 0.00 | 55 | 1016.0 |
| 20260509194501 | 58 | 37 | 3.0 | 6.0 | 0.00 | 0.00 | 0.00 | 55 | 1016.0 |
| 20260509194400 | 58 | 48 | 4.0 | 6.0 | 0.00 | 0.00 | 0.00 | 55 | 1016.0 |
| 20260509194300 | 58 | 52 | 3.0 | 4.0 | 0.00 | 0.00 | 0.00 | 55 | 1016.1 |
| 20260509194212 | 58 | 52 | 3.0 | 4.0 | 0.00 | 0.00 | 0.00 | 55 | 1016.1 |
| 20260509194200 | 58 | 63 | 3.0 | 4.0 | 0.00 | 0.00 | 0.00 | 55 | 1016.1 |
| 20260509194101 | 58 | 55 | 1.0 | 4.0 | 0.00 | 0.00 | 0.00 | 55 | 1016.1 |
| 20260509194001 | 58 | 72 | 3.0 | 4.0 | 0.00 | 0.00 | 0.00 | 55 | 1016.1 |
| 20260509193901 | 58 | 39 | 4.0 | 4.0 | 0.00 | 0.00 | 0.00 | 55 | 1016.1 |
| 20260509193801 | 58 | 83 | 1.0 | 5.0 | 0.00 | 0.00 | 0.00 | 55 | 1016.1 |
| 20260509193712 | 58 | 83 | 1.0 | 5.0 | 0.00 | 0.00 | 0.00 | 55 | 1016.1 |
| 20260509193700 | 58 | 32 | 2.0 | 5.0 | 0.00 | 0.00 | 0.00 | 55 | 1016.1 |
| 20260509193600 | 58 | 78 | 3.0 | 4.0 | 0.00 | 0.00 | 0.00 | 55 | 1016.1 |
| 20260509193500 | 58 | 14 | 3.0 | 4.0 | 0.00 | 0.00 | 0.00 | 55 | 1016.1 |
| 20260509193400 | 59 | 55 | 3.0 | 4.0 | 0.00 | 0.00 | 0.00 | 55 | 1016.0 |
| 20260509193301 | 59 | 49 | 3.0 | 7.0 | 0.00 | 0.00 | 0.00 | 55 | 1016.0 |
| 20260509193213 | 59 | 49 | 3.0 | 7.0 | 0.00 | 0.00 | 0.00 | 55 | 1016.0 |
| 20260509193201 | 59 | 40 | 3.0 | 7.0 | 0.00 | 0.00 | 0.00 | 55 | 1016.0 |
| 20260509193101 | 59 | 59 | 1.0 | 3.0 | 0.00 | 0.00 | 0.00 | 55 | 1015.9 |
| 20260509193000 | 59 | 49 | 3.0 | 3.0 | 0.00 | 0.00 | 0.00 | 55 | 1015.9 |
| 20260509192901 | 59 | 15 | 3.0 | 3.0 | 0.00 | 0.00 | 0.00 | 55 | 1016.0 |
| 20260509192801 | 59 | 32 | 3.0 | 6.0 | 0.00 | 0.00 | 0.00 | 55 | 1015.9 |
| 20260509192713 | 59 | 32 | 3.0 | 6.0 | 0.00 | 0.00 | 0.00 | 55 | 1015.9 |
| 20260509192701 | 59 | 37 | 2.0 | 6.0 | 0.00 | 0.00 | 0.00 | 55 | 1015.9 |
| 20260509192601 | 59 | 57 | 2.0 | 5.0 | 0.00 | 0.00 | 0.00 | 55 | 1015.9 |
| 20260509192501 | 59 | 39 | 3.0 | 5.0 | 0.00 | 0.00 | 0.00 | 55 | 1015.9 |
| 20260509192401 | 59 | 43 | 2.0 | 4.0 | 0.00 | 0.00 | 0.00 | 55 | 1015.8 |
| 20260509192300 | 59 | 37 | 3.0 | 5.0 | 0.00 | 0.00 | 0.00 | 55 | 1015.9 |
| 20260509192212 | 59 | 37 | 3.0 | 5.0 | 0.00 | 0.00 | 0.00 | 55 | 1015.9 |
| 20260509192200 | 59 | 51 | 3.0 | 5.0 | 0.00 | 0.00 | 0.00 | 55 | 1015.8 |
| 20260509192101 | 59 | 25 | 3.0 | 4.0 | 0.00 | 0.00 | 0.00 | 55 | 1015.8 |
| 20260509192001 | 59 | 34 | 4.0 | 4.0 | 0.00 | 0.00 | 0.00 | 55 | 1015.8 |
| 20260509191901 | 59 | 34 | 1.0 | 3.0 | 0.00 | 0.00 | 0.00 | 55 | 1015.8 |
| 20260509191801 | 59 | 17 | 1.0 | 5.0 | 0.00 | 0.00 | 0.00 | 55 | 1015.8 |
| 20260509191713 | 59 | 17 | 1.0 | 5.0 | 0.00 | 0.00 | 0.00 | 55 | 1015.8 |
| 20260509191701 | 59 | 17 | 2.0 | 5.0 | 0.00 | 0.00 | 0.00 | 55 | 1015.8 |
| 20260509191600 | 59 | 40 | 2.0 | 5.0 | 0.00 | 0.00 | 0.00 | 55 | 1015.7 |
| 20260509191500 | 59 | 63 | 2.0 | 4.0 | 0.00 | 0.00 | 0.00 | 55 | 1015.7 |
| 20260509191400 | 59 | 51 | 3.0 | 4.0 | 0.00 | 0.00 | 0.00 | 55 | 1015.7 |
| 20260509191300 | 59 | 50 | 3.0 | 7.0 | 0.00 | 0.00 | 0.00 | 55 | 1015.8 |
| 20260509191212 | 59 | 50 | 3.0 | 7.0 | 0.00 | 0.00 | 0.00 | 55 | 1015.8 |
| 20260509191200 | 59 | 32 | 3.0 | 7.0 | 0.00 | 0.00 | 0.00 | 55 | 1015.7 |
| 20260509191101 | 59 | 41 | 4.0 | 7.0 | 0.00 | 0.00 | 0.00 | 55 | 1015.8 |
| 20260509191001 | 59 | 51 | 5.0 | 5.0 | 0.00 | 0.00 | 0.00 | 55 | 1015.8 |
| 20260509190900 | 59 | 35 | 3.0 | 5.0 | 0.00 | 0.00 | 0.00 | 55 | 1015.8 |
| 20260509190800 | 60 | 15 | 3.0 | 7.0 | 0.00 | 0.00 | 0.00 | 55 | 1015.9 |
| 20260509190712 | 60 | 15 | 3.0 | 7.0 | 0.00 | 0.00 | 0.00 | 55 | 1015.9 |
| 20260509190700 | 60 | 19 | 3.0 | 7.0 | 0.00 | 0.00 | 0.00 | 55 | 1015.9 |
| 20260509190600 | 60 | 43 | 7.0 | 7.0 | 0.00 | 0.00 | 0.00 | 55 | 1015.8 |
| 20260509190500 | 60 | 51 | 3.0 | 6.0 | 0.00 | 0.00 | 0.00 | 55 | 1015.8 |
| 20260509190401 | 60 | 51 | 3.0 | 3.0 | 0.00 | 0.00 | 0.00 | 55 | 1015.8 |
| 20260509190301 | 60 | 42 | 3.0 | 7.0 | 0.00 | 0.00 | 0.00 | 55 | 1015.9 |
| 20260509190213 | 60 | 42 | 3.0 | 7.0 | 0.00 | 0.00 | 0.00 | 55 | 1015.9 |
| 20260509190201 | 60 | 51 | 4.0 | 7.0 | 0.00 | 0.00 | 0.00 | 55 | 1015.9 |
| 20260509190100 | 60 | 60 | 1.0 | 7.0 | 0.00 | 0.00 | 0.00 | 54 | 1015.9 |
| 20260509190000 | 60 | 46 | 4.0 | 7.0 | 0.00 | 0.00 | 0.00 | 54 | 1015.9 |
| 20260509185900 | 60 | 360 | 3.0 | 7.0 | 0.00 | 0.00 | 0.00 | 55 | 1015.9 |
| 20260509185800 | 60 | 40 | 4.0 | 5.0 | 0.00 | 0.00 | 0.00 | 55 | 1015.9 |
| 20260509185713 | 60 | 40 | 4.0 | 5.0 | 0.00 | 0.00 | 0.00 | 55 | 1015.9 |
| 20260509185701 | 60 | 44 | 1.0 | 5.0 | 0.00 | 0.00 | 0.00 | 54 | 1015.9 |
| 20260509185601 | 60 | 61 | 2.0 | 5.0 | 0.00 | 0.00 | 0.00 | 54 | 1016.0 |
| 20260509185501 | 60 | 125 | 3.0 | 5.0 | 0.00 | 0.00 | 0.00 | 54 | 1015.9 |
| 20260509185401 | 60 | 40 | 2.0 | 3.0 | 0.00 | 0.00 | 0.00 | 54 | 1015.9 |
| 20260509185301 | 60 | 30 | 2.0 | 6.0 | 0.00 | 0.00 | 0.00 | 54 | 1015.9 |
| 20260509185213 | 60 | 30 | 2.0 | 6.0 | 0.00 | 0.00 | 0.00 | 54 | 1015.9 |
| 20260509185201 | 60 | 28 | 4.0 | 6.0 | 0.00 | 0.00 | 0.00 | 54 | 1015.9 |
| 20260509185101 | 60 | 43 | 6.0 | 6.0 | 0.00 | 0.00 | 0.00 | 54 | 1015.9 |
| 20260509185001 | 60 | 54 | 3.0 | 5.0 | 0.00 | 0.00 | 0.00 | 54 | 1015.8 |
| 20260509184901 | 60 | 44 | 4.0 | 4.0 | 0.00 | 0.00 | 0.00 | 54 | 1015.9 |
| 20260509184801 | 60 | 50 | 2.0 | 10.0 | 0.00 | 0.00 | 0.00 | 54 | 1015.9 |
| 20260509184712 | 60 | 50 | 2.0 | 10.0 | 0.00 | 0.00 | 0.00 | 54 | 1015.9 |
| 20260509184700 | 60 | 28 | 1.0 | 10.0 | 0.00 | 0.00 | 0.00 | 54 | 1015.9 |
| 20260509184601 | 60 | 23 | 2.0 | 10.0 | 0.00 | 0.00 | 0.00 | 54 | 1015.9 |
| 20260509184501 | 60 | 55 | 3.0 | 10.0 | 0.00 | 0.00 | 0.00 | 54 | 1015.9 |
| 20260509184401 | 60 | 46 | 4.0 | 10.0 | 0.00 | 0.00 | 0.00 | 54 | 1015.9 |
| 20260509184301 | 61 | 340 | 3.0 | 7.0 | 0.00 | 0.00 | 0.00 | 54 | 1015.9 |
| 20260509184214 | 61 | 340 | 3.0 | 7.0 | 0.00 | 0.00 | 0.00 | 54 | 1015.9 |
| 20260509184201 | 61 | 55 | 2.0 | 7.0 | 0.00 | 0.00 | 0.00 | 54 | 1015.9 |
| 20260509184101 | 61 | 19 | 2.0 | 7.0 | 0.00 | 0.00 | 0.00 | 54 | 1015.9 |
| 20260509184001 | 61 | 59 | 7.0 | 7.0 | 0.00 | 0.00 | 0.00 | 54 | 1015.9 |
| 20260509183901 | 61 | 43 | 2.0 | 3.0 | 0.00 | 0.00 | 0.00 | 54 | 1015.9 |
| 20260509183801 | 61 | 43 | 3.0 | 8.0 | 0.00 | 0.00 | 0.00 | 53 | 1015.9 |
| 20260509183713 | 61 | 43 | 3.0 | 8.0 | 0.00 | 0.00 | 0.00 | 53 | 1015.9 |
| 20260509183701 | 61 | 43 | 5.0 | 8.0 | 0.00 | 0.00 | 0.00 | 53 | 1015.9 |
| 20260509183601 | 61 | 360 | 4.0 | 8.0 | 0.00 | 0.00 | 0.00 | 53 | 1015.9 |
| 20260509183501 | 61 | 30 | 3.0 | 5.0 | 0.00 | 0.00 | 0.00 | 53 | 1015.8 |
| 20260509183401 | 61 | 24 | 3.0 | 5.0 | 0.00 | 0.00 | 0.00 | 53 | 1015.9 |
| 20260509183301 | 61 | 17 | 3.0 | 10.0 | 0.00 | 0.00 | 0.00 | 53 | 1015.9 |
| 20260509183213 | 61 | 17 | 3.0 | 10.0 | 0.00 | 0.00 | 0.00 | 53 | 1015.9 |
| 20260509183201 | 61 | 42 | 3.0 | 10.0 | 0.00 | 0.00 | 0.00 | 53 | 1015.9 |
| 20260509183101 | 61 | 56 | 3.0 | 10.0 | 0.00 | 0.00 | 0.00 | 53 | 1015.9 |
| 20260509183000 | 61 | 18 | 5.0 | 10.0 | 0.00 | 0.00 | 0.00 | 53 | 1015.9 |
| 20260509182900 | 61 | 29 | 3.0 | 4.0 | 0.00 | 0.00 | 0.00 | 53 | 1015.9 |
| 20260509182800 | 61 | 45 | 6.0 | 10.0 | 0.00 | 0.00 | 0.00 | 53 | 1015.9 |
| 20260509182712 | 61 | 45 | 6.0 | 10.0 | 0.00 | 0.00 | 0.00 | 53 | 1015.9 |
| 20260509182700 | 61 | 57 | 6.0 | 10.0 | 0.00 | 0.00 | 0.00 | 53 | 1015.9 |
| 20260509182600 | 61 | 53 | 3.0 | 7.0 | 0.00 | 0.00 | 0.00 | 53 | 1015.9 |
| 20260509182500 | 61 | 10 | 3.0 | 7.0 | 0.00 | 0.00 | 0.00 | 53 | 1015.9 |
| 20260509182400 | 62 | 94 | 4.0 | 4.0 | 0.00 | 0.00 | 0.00 | 53 | 1015.8 |
| 20260509182300 | 62 | 91 | 6.0 | 6.0 | 0.00 | 0.00 | 0.00 | 53 | 1015.9 |
| 20260509182213 | 62 | 91 | 6.0 | 6.0 | 0.00 | 0.00 | 0.00 | 53 | 1015.9 |
| 20260509182200 | 62 | 82 | 4.0 | 6.0 | 0.00 | 0.00 | 0.00 | 53 | 1015.8 |
| 20260509182100 | 62 | 24 | 1.0 | 6.0 | 0.00 | 0.00 | 0.00 | 53 | 1015.8 |
| 20260509182000 | 62 | 59 | 3.0 | 5.0 | 0.00 | 0.00 | 0.00 | 53 | 1015.7 |
| 20260509181900 | 62 | 71 | 2.0 | 5.0 | 0.00 | 0.00 | 0.00 | 53 | 1015.8 |
| 20260509181801 | 62 | 19 | 3.0 | 5.0 | 0.00 | 0.00 | 0.00 | 53 | 1015.7 |
| 20260509181713 | 62 | 19 | 3.0 | 5.0 | 0.00 | 0.00 | 0.00 | 53 | 1015.7 |
| 20260509181701 | 62 | 73 | 3.0 | 5.0 | 0.00 | 0.00 | 0.00 | 53 | 1015.6 |
| 20260509181601 | 62 | 38 | 3.0 | 5.0 | 0.00 | 0.00 | 0.00 | 53 | 1015.7 |
| 20260509181501 | 62 | 45 | 4.0 | 5.0 | 0.00 | 0.00 | 0.00 | 53 | 1015.7 |
| 20260509181401 | 62 | 54 | 2.0 | 3.0 | 0.00 | 0.00 | 0.00 | 53 | 1015.7 |
| 20260509181300 | 62 | 59 | 3.0 | 7.0 | 0.00 | 0.00 | 0.00 | 53 | 1015.7 |
| 20260509181212 | 62 | 59 | 3.0 | 7.0 | 0.00 | 0.00 | 0.00 | 53 | 1015.7 |
| 20260509181200 | 62 | 55 | 4.0 | 7.0 | 0.00 | 0.00 | 0.00 | 53 | 1015.7 |
| 20260509181100 | 62 | 67 | 1.0 | 5.0 | 0.00 | 0.00 | 0.00 | 53 | 1015.7 |
| 20260509181000 | 62 | 56 | 4.0 | 5.0 | 0.00 | 0.00 | 0.00 | 53 | 1015.6 |
| 20260509180900 | 62 | 5 | 2.0 | 4.0 | 0.00 | 0.00 | 0.00 | 53 | 1015.6 |
| 20260509180800 | 62 | 49 | 4.0 | 9.0 | 0.00 | 0.00 | 0.00 | 53 | 1015.6 |
| 20260509180712 | 62 | 49 | 4.0 | 9.0 | 0.00 | 0.00 | 0.00 | 53 | 1015.6 |
| 20260509180700 | 62 | 58 | 6.0 | 9.0 | 0.00 | 0.00 | 0.00 | 53 | 1015.6 |
| 20260509180600 | 62 | 41 | 4.0 | 9.0 | 0.00 | 0.00 | 0.00 | 53 | 1015.7 |
| 20260509180500 | 62 | 12 | 2.0 | 9.0 | 0.00 | 0.00 | 0.00 | 53 | 1015.7 |
| 20260509180400 | 62 | 27 | 8.0 | 9.0 | 0.00 | 0.00 | 0.00 | 53 | 1015.6 |
| 20260509180300 | 62 | 61 | 3.0 | 10.0 | 0.00 | 0.00 | 0.00 | 53 | 1015.7 |
| 20260509180212 | 62 | 61 | 3.0 | 10.0 | 0.00 | 0.00 | 0.00 | 53 | 1015.7 |
| 20260509180200 | 62 | 38 | 3.0 | 10.0 | 0.00 | 0.00 | 0.00 | 53 | 1015.6 |
| 20260509180100 | 62 | 76 | 6.0 | 10.0 | 0.00 | 0.00 | 0.00 | 53 | 1015.7 |
| 20260509180000 | 62 | 41 | 2.0 | 10.0 | 0.00 | 0.00 | 0.00 | 53 | 1015.7 |
| 20260509175901 | 62 | 31 | 3.0 | 8.0 | 0.00 | 0.00 | 0.00 | 53 | 1015.7 |
| 20260509175801 | 62 | 23 | 5.0 | 7.0 | 0.00 | 0.00 | 0.00 | 53 | 1015.7 |
| 20260509175712 | 62 | 23 | 5.0 | 7.0 | 0.00 | 0.00 | 0.00 | 53 | 1015.7 |
| 20260509175700 | 62 | 42 | 4.0 | 7.0 | 0.00 | 0.00 | 0.00 | 53 | 1015.7 |
| 20260509175600 | 62 | 355 | 3.0 | 7.0 | 0.00 | 0.00 | 0.00 | 53 | 1015.7 |
| 20260509175500 | 62 | 38 | 3.0 | 7.0 | 0.00 | 0.00 | 0.00 | 53 | 1015.7 |
| 20260509175400 | 62 | 34 | 4.0 | 7.0 | 0.00 | 0.00 | 0.00 | 53 | 1015.6 |
| 20260509175300 | 62 | 78 | 4.0 | 8.0 | 0.00 | 0.00 | 0.00 | 53 | 1015.6 |
| 20260509175213 | 62 | 78 | 4.0 | 8.0 | 0.00 | 0.00 | 0.00 | 53 | 1015.6 |
| 20260509175201 | 62 | 28 | 1.0 | 8.0 | 0.00 | 0.00 | 0.00 | 53 | 1015.6 |
| 20260509175101 | 63 | 51 | 6.0 | 8.0 | 0.00 | 0.00 | 0.00 | 53 | 1015.6 |
| 20260509175001 | 63 | 31 | 3.0 | 8.0 | 0.00 | 0.00 | 0.00 | 53 | 1015.5 |
| 20260509174901 | 63 | 44 | 2.0 | 3.0 | 0.00 | 0.00 | 0.00 | 53 | 1015.6 |
| 20260509174801 | 63 | 5 | 3.0 | 10.0 | 0.00 | 0.00 | 0.00 | 53 | 1015.6 |
| 20260509174712 | 63 | 5 | 3.0 | 10.0 | 0.00 | 0.00 | 0.00 | 53 | 1015.6 |
| 20260509174700 | 63 | 38 | 7.0 | 10.0 | 0.00 | 0.00 | 0.00 | 52 | 1015.6 |
| 20260509174601 | 63 | 63 | 3.0 | 10.0 | 0.00 | 0.00 | 0.00 | 52 | 1015.6 |
| 20260509174500 | 63 | 344 | 5.0 | 10.0 | 0.00 | 0.00 | 0.00 | 52 | 1015.6 |
| 20260509174400 | 63 | 15 | 3.0 | 10.0 | 0.00 | 0.00 | 0.00 | 52 | 1015.6 |
| 20260509174300 | 63 | 355 | 3.0 | 9.0 | 0.00 | 0.00 | 0.00 | 52 | 1015.5 |
| 20260509174212 | 63 | 355 | 3.0 | 9.0 | 0.00 | 0.00 | 0.00 | 52 | 1015.5 |
| 20260509174201 | 63 | 28 | 5.0 | 9.0 | 0.00 | 0.00 | 0.00 | 52 | 1015.5 |
| 20260509174101 | 63 | 25 | 6.0 | 9.0 | 0.00 | 0.00 | 0.00 | 52 | 1015.5 |
| 20260509174001 | 63 | 45 | 7.0 | 9.0 | 0.00 | 0.00 | 0.00 | 52 | 1015.5 |
| 20260509173901 | 63 | 19 | 6.0 | 7.0 | 0.00 | 0.00 | 0.00 | 51 | 1015.4 |
| 20260509173801 | 64 | 21 | 3.0 | 13.0 | 0.00 | 0.00 | 0.00 | 51 | 1015.4 |
| 20260509173713 | 64 | 21 | 3.0 | 13.0 | 0.00 | 0.00 | 0.00 | 51 | 1015.4 |
| 20260509173701 | 64 | 68 | 3.0 | 13.0 | 0.00 | 0.00 | 0.00 | 51 | 1015.4 |
| 20260509173601 | 64 | 343 | 4.0 | 13.0 | 0.00 | 0.00 | 0.00 | 51 | 1015.4 |
| 20260509173501 | 64 | 41 | 7.0 | 10.0 | 0.00 | 0.00 | 0.00 | 51 | 1015.4 |
| 20260509173401 | 64 | 11 | 4.0 | 7.0 | 0.00 | 0.00 | 0.00 | 51 | 1015.4 |
| 20260509173300 | 64 | 13 | 4.0 | 10.0 | 0.00 | 0.00 | 0.00 | 51 | 1015.4 |
| 20260509173212 | 64 | 13 | 4.0 | 10.0 | 0.00 | 0.00 | 0.00 | 51 | 1015.4 |
| 20260509173200 | 64 | 19 | 6.0 | 10.0 | 0.00 | 0.00 | 0.00 | 50 | 1015.4 |
| 20260509173101 | 64 | 69 | 2.0 | 10.0 | 0.00 | 0.00 | 0.00 | 50 | 1015.4 |
| 20260509173001 | 64 | 28 | 10.0 | 10.0 | 0.00 | 0.00 | 0.00 | 50 | 1015.4 |
| 20260509172901 | 64 | 39 | 4.0 | 7.0 | 0.00 | 0.00 | 0.00 | 50 | 1015.4 |
| 20260509172800 | 64 | 30 | 5.0 | 12.0 | 0.00 | 0.00 | 0.00 | 50 | 1015.4 |
| 20260509172712 | 64 | 30 | 5.0 | 12.0 | 0.00 | 0.00 | 0.00 | 50 | 1015.4 |
| 20260509172700 | 64 | 27 | 5.0 | 12.0 | 0.00 | 0.00 | 0.00 | 50 | 1015.3 |
| 20260509172600 | 65 | 11 | 5.0 | 12.0 | 0.00 | 0.00 | 0.00 | 50 | 1015.3 |
| 20260509172500 | 65 | 343 | 3.0 | 12.0 | 0.00 | 0.00 | 0.00 | 50 | 1015.4 |
| 20260509172401 | 65 | 340 | 10.0 | 10.0 | 0.00 | 0.00 | 0.00 | 50 | 1015.4 |
| 20260509172301 | 65 | 328 | 4.0 | 10.0 | 0.00 | 0.00 | 0.00 | 50 | 1015.4 |
| 20260509172213 | 65 | 328 | 4.0 | 10.0 | 0.00 | 0.00 | 0.00 | 50 | 1015.4 |
| 20260509172201 | 65 | 38 | 4.0 | 10.0 | 0.00 | 0.00 | 0.00 | 50 | 1015.4 |
| 20260509172101 | 65 | 25 | 3.0 | 8.0 | 0.00 | 0.00 | 0.00 | 50 | 1015.4 |
| 20260509172001 | 65 | 321 | 3.0 | 8.0 | 0.00 | 0.00 | 0.00 | 50 | 1015.4 |
| 20260509171901 | 65 | 33 | 4.0 | 8.0 | 0.00 | 0.00 | 0.00 | 50 | 1015.4 |
| 20260509171801 | 65 | 30 | 10.0 | 10.0 | 0.00 | 0.00 | 0.00 | 50 | 1015.4 |
| 20260509171713 | 65 | 30 | 10.0 | 10.0 | 0.00 | 0.00 | 0.00 | 50 | 1015.4 |
| 20260509171701 | 65 | 44 | 3.0 | 8.0 | 0.00 | 0.00 | 0.00 | 50 | 1015.5 |
| 20260509171601 | 65 | 31 | 3.0 | 6.0 | 0.00 | 0.00 | 0.00 | 50 | 1015.4 |
| 20260509171500 | 65 | 26 | 1.0 | 6.0 | 0.00 | 0.00 | 0.00 | 50 | 1015.5 |
| 20260509171400 | 65 | 33 | 3.0 | 6.0 | 0.00 | 0.00 | 0.00 | 51 | 1015.4 |
| 20260509171300 | 65 | 70 | 7.0 | 12.0 | 0.00 | 0.00 | 0.00 | 50 | 1015.4 |
| 20260509171213 | 65 | 70 | 7.0 | 12.0 | 0.00 | 0.00 | 0.00 | 50 | 1015.4 |
| 20260509171201 | 65 | 9 | 4.0 | 12.0 | 0.00 | 0.00 | 0.00 | 50 | 1015.5 |
| 20260509171101 | 66 | 80 | 7.0 | 12.0 | 0.00 | 0.00 | 0.00 | 50 | 1015.4 |
| 20260509171001 | 66 | 26 | 8.0 | 9.0 | 0.00 | 0.00 | 0.00 | 50 | 1015.5 |
| 20260509170901 | 66 | 36 | 6.0 | 9.0 | 0.00 | 0.00 | 0.00 | 50 | 1015.4 |
| 20260509170800 | 66 | 46 | 5.0 | 9.0 | 0.00 | 0.00 | 0.00 | 51 | 1015.4 |
| 20260509170712 | 66 | 46 | 5.0 | 9.0 | 0.00 | 0.00 | 0.00 | 51 | 1015.4 |
| 20260509170700 | 66 | 59 | 3.0 | 9.0 | 0.00 | 0.00 | 0.00 | 51 | 1015.4 |
| 20260509170600 | 66 | 17 | 2.0 | 7.0 | 0.00 | 0.00 | 0.00 | 51 | 1015.4 |
| 20260509170500 | 66 | 51 | 5.0 | 7.0 | 0.00 | 0.00 | 0.00 | 51 | 1015.4 |
| 20260509170400 | 66 | 28 | 5.0 | 7.0 | 0.00 | 0.00 | 0.00 | 51 | 1015.3 |
| 20260509170300 | 66 | 36 | 1.0 | 8.0 | 0.00 | 0.00 | 0.00 | 51 | 1015.4 |
| 20260509170212 | 66 | 36 | 1.0 | 8.0 | 0.00 | 0.00 | 0.00 | 51 | 1015.4 |
| 20260509170200 | 66 | 340 | 3.0 | 8.0 | 0.00 | 0.00 | 0.00 | 51 | 1015.4 |
| 20260509170001 | 66 | 360 | 3.0 | 6.0 | 0.00 | 0.00 | 0.00 | 51 | 1015.4 |
| 20260509165901 | 66 | 109 | 3.0 | 6.0 | 0.00 | 0.00 | 0.00 | 52 | 1015.4 |
| 20260509165801 | 66 | 22 | 2.0 | 10.0 | 0.00 | 0.00 | 0.00 | 51 | 1015.5 |
| 20260509165713 | 66 | 22 | 2.0 | 10.0 | 0.00 | 0.00 | 0.00 | 51 | 1015.5 |
| 20260509165701 | 66 | 11 | 4.0 | 10.0 | 0.00 | 0.00 | 0.00 | 51 | 1015.5 |
| 20260509165600 | 66 | 60 | 8.0 | 10.0 | 0.00 | 0.00 | 0.00 | 51 | 1015.5 |
| 20260509165500 | 66 | 37 | 2.0 | 10.0 | 0.00 | 0.00 | 0.00 | 51 | 1015.5 |
| 20260509165400 | 67 | 38 | 7.0 | 10.0 | 0.00 | 0.00 | 0.00 | 51 | 1015.5 |
| 20260509165301 | 67 | 38 | 4.0 | 9.0 | 0.00 | 0.00 | 0.00 | 51 | 1015.6 |
| 20260509165213 | 67 | 38 | 4.0 | 9.0 | 0.00 | 0.00 | 0.00 | 51 | 1015.6 |
| 20260509165201 | 67 | 346 | 3.0 | 9.0 | 0.00 | 0.00 | 0.00 | 51 | 1015.5 |
| 20260509165100 | 67 | 24 | 5.0 | 9.0 | 0.00 | 0.00 | 0.00 | 51 | 1015.5 |
| 20260509165000 | 67 | 74 | 4.0 | 9.0 | 0.00 | 0.00 | 0.00 | 50 | 1015.5 |
| 20260509164900 | 67 | 70 | 9.0 | 9.0 | 0.00 | 0.00 | 0.00 | 51 | 1015.5 |
| 20260509164801 | 67 | 40 | 4.0 | 6.0 | 0.00 | 0.00 | 0.00 | 51 | 1015.6 |
| 20260509164713 | 67 | 40 | 4.0 | 6.0 | 0.00 | 0.00 | 0.00 | 51 | 1015.6 |
| 20260509164701 | 67 | 57 | 3.0 | 6.0 | 0.00 | 0.00 | 0.00 | 51 | 1015.6 |
| 20260509164600 | 67 | 5 | 2.0 | 6.0 | 0.00 | 0.00 | 0.00 | 51 | 1015.6 |
| 20260509164500 | 67 | 63 | 6.0 | 6.0 | 0.00 | 0.00 | 0.00 | 51 | 1015.6 |
| 20260509164400 | 67 | 32 | 4.0 | 5.0 | 0.00 | 0.00 | 0.00 | 51 | 1015.6 |
| 20260509164301 | 67 | 28 | 3.0 | 11.0 | 0.00 | 0.00 | 0.00 | 51 | 1015.6 |
| 20260509164213 | 67 | 28 | 3.0 | 11.0 | 0.00 | 0.00 | 0.00 | 51 | 1015.6 |
| 20260509164201 | 67 | 82 | 3.0 | 11.0 | 0.00 | 0.00 | 0.00 | 51 | 1015.7 |
| 20260509164101 | 67 | 53 | 3.0 | 11.0 | 0.00 | 0.00 | 0.00 | 51 | 1015.6 |
| 20260509164001 | 67 | 60 | 3.0 | 11.0 | 0.00 | 0.00 | 0.00 | 51 | 1015.6 |
| 20260509163901 | 67 | 51 | 4.0 | 11.0 | 0.00 | 0.00 | 0.00 | 50 | 1015.6 |
| 20260509163801 | 67 | 19 | 2.0 | 13.0 | 0.00 | 0.00 | 0.00 | 50 | 1015.7 |
| 20260509163713 | 67 | 19 | 2.0 | 13.0 | 0.00 | 0.00 | 0.00 | 50 | 1015.7 |
| 20260509163701 | 67 | 13 | 5.0 | 13.0 | 0.00 | 0.00 | 0.00 | 50 | 1015.6 |
| 20260509163601 | 67 | 42 | 10.0 | 13.0 | 0.00 | 0.00 | 0.00 | 50 | 1015.6 |
| 20260509163501 | 67 | 50 | 7.0 | 13.0 | 0.00 | 0.00 | 0.00 | 51 | 1015.6 |
| 20260509163401 | 67 | 22 | 2.0 | 6.0 | 0.00 | 0.00 | 0.00 | 51 | 1015.6 |
| 20260509163301 | 67 | 36 | 3.0 | 10.0 | 0.00 | 0.00 | 0.00 | 51 | 1015.6 |
| 20260509163213 | 67 | 36 | 3.0 | 10.0 | 0.00 | 0.00 | 0.00 | 51 | 1015.6 |
| 20260509163201 | 67 | 78 | 10.0 | 10.0 | 0.00 | 0.00 | 0.00 | 51 | 1015.6 |
| 20260509163101 | 67 | 328 | 3.0 | 6.0 | 0.00 | 0.00 | 0.00 | 50 | 1015.6 |
| 20260509163000 | 67 | 36 | 3.0 | 6.0 | 0.00 | 0.00 | 0.00 | 50 | 1015.6 |
| 20260509162900 | 67 | 32 | 5.0 | 6.0 | 0.00 | 0.00 | 0.00 | 50 | 1015.5 |
| 20260509162800 | 67 | 43 | 3.0 | 10.0 | 0.00 | 0.00 | 0.00 | 50 | 1015.6 |
| 20260509162712 | 67 | 43 | 3.0 | 10.0 | 0.00 | 0.00 | 0.00 | 50 | 1015.6 |
| 20260509162700 | 67 | 104 | 2.0 | 10.0 | 0.00 | 0.00 | 0.00 | 50 | 1015.6 |
| 20260509162600 | 67 | 16 | 5.0 | 10.0 | 0.00 | 0.00 | 0.00 | 50 | 1015.6 |
| 20260509162500 | 67 | 114 | 7.0 | 10.0 | 0.00 | 0.00 | 0.00 | 50 | 1015.6 |
| 20260509162400 | 67 | 47 | 3.0 | 5.0 | 0.00 | 0.00 | 0.00 | 50 | 1015.6 |
| 20260509162300 | 67 | 45 | 3.0 | 10.0 | 0.00 | 0.00 | 0.00 | 50 | 1015.6 |
| 20260509162213 | 67 | 45 | 3.0 | 10.0 | 0.00 | 0.00 | 0.00 | 50 | 1015.6 |
| 20260509162201 | 67 | 80 | 5.0 | 10.0 | 0.00 | 0.00 | 0.00 | 50 | 1015.5 |
| 20260509162101 | 67 | 32 | 3.0 | 8.0 | 0.00 | 0.00 | 0.00 | 50 | 1015.5 |
| 20260509162001 | 67 | 19 | 3.0 | 8.0 | 0.00 | 0.00 | 0.00 | 50 | 1015.5 |
| 20260509161901 | 67 | 340 | 7.0 | 7.0 | 0.00 | 0.00 | 0.00 | 50 | 1015.5 |
| 20260509161801 | 67 | 355 | 10.0 | 12.0 | 0.00 | 0.00 | 0.00 | 50 | 1015.5 |
| 20260509161713 | 67 | 355 | 10.0 | 12.0 | 0.00 | 0.00 | 0.00 | 50 | 1015.5 |
| 20260509161700 | 67 | 61 | 10.0 | 10.0 | 0.00 | 0.00 | 0.00 | 50 | 1015.5 |
| 20260509161600 | 67 | 23 | 4.0 | 9.0 | 0.00 | 0.00 | 0.00 | 50 | 1015.5 |
| 20260509161500 | 67 | 42 | 4.0 | 9.0 | 0.00 | 0.00 | 0.00 | 50 | 1015.5 |
| 20260509161401 | 67 | 53 | 3.0 | 9.0 | 0.00 | 0.00 | 0.00 | 50 | 1015.5 |
| 20260509161301 | 67 | 32 | 5.0 | 11.0 | 0.00 | 0.00 | 0.00 | 50 | 1015.5 |
| 20260509161213 | 67 | 32 | 5.0 | 11.0 | 0.00 | 0.00 | 0.00 | 50 | 1015.5 |
| 20260509161200 | 67 | 54 | 7.0 | 11.0 | 0.00 | 0.00 | 0.00 | 50 | 1015.6 |
| 20260509161100 | 67 | 36 | 10.0 | 11.0 | 0.00 | 0.00 | 0.00 | 50 | 1015.5 |
| 20260509161000 | 67 | 5 | 7.0 | 7.0 | 0.00 | 0.00 | 0.00 | 50 | 1015.6 |
| 20260509160900 | 67 | 69 | 6.0 | 7.0 | 0.00 | 0.00 | 0.00 | 50 | 1015.6 |
| 20260509160800 | 67 | 61 | 9.0 | 10.0 | 0.00 | 0.00 | 0.00 | 50 | 1015.6 |
| 20260509160713 | 67 | 61 | 9.0 | 10.0 | 0.00 | 0.00 | 0.00 | 50 | 1015.6 |
| 20260509160701 | 67 | 63 | 3.0 | 10.0 | 0.00 | 0.00 | 0.00 | 49 | 1015.6 |
| 20260509160601 | 67 | 74 | 4.0 | 10.0 | 0.00 | 0.00 | 0.00 | 49 | 1015.6 |
| 20260509160501 | 68 | 20 | 5.0 | 9.0 | 0.00 | 0.00 | 0.00 | 50 | 1015.6 |
| 20260509160401 | 68 | 348 | 6.0 | 6.0 | 0.00 | 0.00 | 0.00 | 50 | 1015.6 |
| 20260509160301 | 68 | 40 | 7.0 | 10.0 | 0.00 | 0.00 | 0.00 | 50 | 1015.6 |
| 20260509160213 | 68 | 40 | 7.0 | 10.0 | 0.00 | 0.00 | 0.00 | 50 | 1015.6 |
| 20260509160201 | 68 | 65 | 8.0 | 10.0 | 0.00 | 0.00 | 0.00 | 50 | 1015.6 |
| 20260509160100 | 68 | 42 | 4.0 | 10.0 | 0.00 | 0.00 | 0.00 | 50 | 1015.6 |
| 20260509160001 | 68 | 21 | 4.0 | 10.0 | 0.00 | 0.00 | 0.00 | 49 | 1015.6 |
| 20260509155901 | 68 | 19 | 5.0 | 10.0 | 0.00 | 0.00 | 0.00 | 49 | 1015.6 |
| 20260509155801 | 68 | 342 | 3.0 | 10.0 | 0.00 | 0.00 | 0.00 | 49 | 1015.7 |
| 20260509155713 | 68 | 342 | 3.0 | 10.0 | 0.00 | 0.00 | 0.00 | 49 | 1015.7 |
| 20260509155701 | 68 | 50 | 5.0 | 10.0 | 0.00 | 0.00 | 0.00 | 49 | 1015.7 |
| 20260509155601 | 68 | 32 | 5.0 | 7.0 | 0.00 | 0.00 | 0.00 | 49 | 1015.6 |
| 20260509155501 | 68 | 42 | 7.0 | 7.0 | 0.00 | 0.00 | 0.00 | 49 | 1015.7 |
| 20260509155401 | 68 | 27 | 5.0 | 5.0 | 0.00 | 0.00 | 0.00 | 50 | 1015.7 |
| 20260509155300 | 68 | 42 | 5.0 | 8.0 | 0.00 | 0.00 | 0.00 | 50 | 1015.7 |
| 20260509155212 | 68 | 42 | 5.0 | 8.0 | 0.00 | 0.00 | 0.00 | 50 | 1015.7 |
| 20260509155200 | 68 | 59 | 3.0 | 8.0 | 0.00 | 0.00 | 0.00 | 50 | 1015.7 |
| 20260509155100 | 68 | 74 | 8.0 | 8.0 | 0.00 | 0.00 | 0.00 | 50 | 1015.7 |
| 20260509155000 | 68 | 55 | 6.0 | 7.0 | 0.00 | 0.00 | 0.00 | 50 | 1015.7 |
| 20260509154900 | 68 | 26 | 3.0 | 5.0 | 0.00 | 0.00 | 0.00 | 50 | 1015.7 |
| 20260509154800 | 68 | 33 | 3.0 | 11.0 | 0.00 | 0.00 | 0.00 | 50 | 1015.7 |
| 20260509154712 | 68 | 33 | 3.0 | 11.0 | 0.00 | 0.00 | 0.00 | 50 | 1015.7 |
| 20260509154700 | 68 | 17 | 5.0 | 10.0 | 0.00 | 0.00 | 0.00 | 50 | 1015.7 |
| 20260509154600 | 68 | 42 | 10.0 | 10.0 | 0.00 | 0.00 | 0.00 | 50 | 1015.7 |
| 20260509154501 | 68 | 33 | 5.0 | 7.0 | 0.00 | 0.00 | 0.00 | 50 | 1015.7 |
| 20260509154401 | 68 | 86 | 5.0 | 7.0 | 0.00 | 0.00 | 0.00 | 50 | 1015.8 |
| 20260509154301 | 68 | 51 | 7.0 | 10.0 | 0.00 | 0.00 | 0.00 | 50 | 1015.8 |
| 20260509154212 | 68 | 51 | 7.0 | 10.0 | 0.00 | 0.00 | 0.00 | 50 | 1015.8 |
| 20260509154200 | 68 | 34 | 3.0 | 10.0 | 0.00 | 0.00 | 0.00 | 50 | 1015.8 |
| 20260509154100 | 68 | 53 | 9.0 | 10.0 | 0.00 | 0.00 | 0.00 | 50 | 1015.9 |
| 20260509154000 | 68 | 73 | 7.0 | 8.0 | 0.00 | 0.00 | 0.00 | 50 | 1015.8 |
| 20260509153900 | 68 | 74 | 3.0 | 8.0 | 0.00 | 0.00 | 0.00 | 50 | 1015.8 |
| 20260509153800 | 68 | 35 | 7.0 | 11.0 | 0.00 | 0.00 | 0.00 | 50 | 1015.8 |
| 20260509153712 | 68 | 35 | 7.0 | 11.0 | 0.00 | 0.00 | 0.00 | 50 | 1015.8 |
| 20260509153700 | 68 | 68 | 4.0 | 11.0 | 0.00 | 0.00 | 0.00 | 50 | 1015.8 |
| 20260509153600 | 68 | 62 | 4.0 | 11.0 | 0.00 | 0.00 | 0.00 | 50 | 1015.8 |
| 20260509153500 | 68 | 58 | 10.0 | 11.0 | 0.00 | 0.00 | 0.00 | 50 | 1015.8 |
| 20260509153400 | 68 | 5 | 3.0 | 7.0 | 0.00 | 0.00 | 0.00 | 50 | 1015.8 |
| 20260509153301 | 68 | 53 | 3.0 | 10.0 | 0.00 | 0.00 | 0.00 | 50 | 1015.8 |
| 20260509153213 | 68 | 53 | 3.0 | 10.0 | 0.00 | 0.00 | 0.00 | 50 | 1015.8 |
| 20260509153201 | 68 | 60 | 3.0 | 10.0 | 0.00 | 0.00 | 0.00 | 50 | 1015.9 |
| 20260509153100 | 68 | 46 | 4.0 | 10.0 | 0.00 | 0.00 | 0.00 | 49 | 1015.9 |
| 20260509153002 | 68 | 26 | 6.0 | 10.0 | 0.00 | 0.00 | 0.00 | 50 | 1015.9 |
| 20260509152901 | 68 | 23 | 4.0 | 4.0 | 0.00 | 0.00 | 0.00 | 50 | 1015.9 |
| 20260509152801 | 68 | 9 | 4.0 | 10.0 | 0.00 | 0.00 | 0.00 | 49 | 1015.9 |
| 20260509152713 | 68 | 9 | 4.0 | 10.0 | 0.00 | 0.00 | 0.00 | 49 | 1015.9 |
| 20260509152701 | 68 | 347 | 8.0 | 10.0 | 0.00 | 0.00 | 0.00 | 49 | 1016.0 |
| 20260509152601 | 68 | 66 | 3.0 | 10.0 | 0.00 | 0.00 | 0.00 | 49 | 1016.0 |
| 20260509152500 | 68 | 74 | 8.0 | 10.0 | 0.00 | 0.00 | 0.00 | 49 | 1016.0 |
| 20260509152400 | 68 | 45 | 4.0 | 10.0 | 0.00 | 0.00 | 0.00 | 49 | 1016.0 |
| 20260509152305 | 68 | 87 | 4.0 | 10.0 | 0.00 | 0.00 | 0.00 | 49 | 1016.0 |
| 20260509152213 | 68 | 87 | 4.0 | 10.0 | 0.00 | 0.00 | 0.00 | 49 | 1016.0 |
| 20260509152201 | 68 | 94 | 7.0 | 10.0 | 0.00 | 0.00 | 0.00 | 49 | 1016.0 |
| 20260509152101 | 68 | 34 | 3.0 | 10.0 | 0.00 | 0.00 | 0.00 | 49 | 1016.0 |
| 20260509152001 | 68 | 28 | 6.0 | 10.0 | 0.00 | 0.00 | 0.00 | 50 | 1016.0 |
| 20260509151901 | 68 | 49 | 8.0 | 8.0 | 0.00 | 0.00 | 0.00 | 50 | 1016.1 |
| 20260509151801 | 68 | 24 | 3.0 | 10.0 | 0.00 | 0.00 | 0.00 | 50 | 1016.0 |
| 20260509151713 | 68 | 24 | 3.0 | 10.0 | 0.00 | 0.00 | 0.00 | 50 | 1016.0 |
| 20260509151701 | 68 | 9 | 3.0 | 10.0 | 0.00 | 0.00 | 0.00 | 50 | 1016.1 |
| 20260509151601 | 68 | 350 | 3.0 | 10.0 | 0.00 | 0.00 | 0.00 | 50 | 1016.1 |
| 20260509151501 | 68 | 44 | 9.0 | 10.0 | 0.00 | 0.00 | 0.00 | 50 | 1016.1 |
| 20260509151401 | 68 | 34 | 7.0 | 10.0 | 0.00 | 0.00 | 0.00 | 50 | 1016.1 |
| 20260509151301 | 68 | 80 | 2.0 | 12.0 | 0.00 | 0.00 | 0.00 | 50 | 1016.0 |
| 20260509151213 | 68 | 80 | 2.0 | 12.0 | 0.00 | 0.00 | 0.00 | 50 | 1016.0 |
| 20260509151201 | 68 | 323 | 3.0 | 12.0 | 0.00 | 0.00 | 0.00 | 50 | 1016.0 |
| 20260509151100 | 68 | 49 | 11.0 | 12.0 | 0.00 | 0.00 | 0.00 | 50 | 1016.0 |
| 20260509151000 | 68 | 67 | 7.0 | 10.0 | 0.00 | 0.00 | 0.00 | 49 | 1016.0 |
| 20260509150900 | 68 | 12 | 4.0 | 7.0 | 0.00 | 0.00 | 0.00 | 49 | 1016.0 |
| 20260509150800 | 68 | 9 | 3.0 | 11.0 | 0.00 | 0.00 | 0.00 | 49 | 1016.0 |
| 20260509150712 | 68 | 9 | 3.0 | 11.0 | 0.00 | 0.00 | 0.00 | 49 | 1016.0 |
| 20260509150700 | 68 | 9 | 11.0 | 11.0 | 0.00 | 0.00 | 0.00 | 49 | 1016.1 |
| 20260509150600 | 68 | 23 | 10.0 | 10.0 | 0.00 | 0.00 | 0.00 | 49 | 1016.1 |
| 20260509150500 | 68 | 44 | 5.0 | 9.0 | 0.00 | 0.00 | 0.00 | 48 | 1016.1 |
| 20260509150400 | 68 | 51 | 9.0 | 9.0 | 0.00 | 0.00 | 0.00 | 49 | 1016.1 |
| 20260509150300 | 68 | 50 | 10.0 | 10.0 | 0.00 | 0.00 | 0.00 | 48 | 1016.1 |
| 20260509150212 | 68 | 50 | 10.0 | 10.0 | 0.00 | 0.00 | 0.00 | 48 | 1016.1 |
| 20260509150200 | 68 | 55 | 9.0 | 10.0 | 0.00 | 0.00 | 0.00 | 49 | 1016.1 |
| 20260509150001 | 68 | 23 | 4.0 | 10.0 | 0.00 | 0.00 | 0.00 | 48 | 1016.0 |
| 20260509145901 | 68 | 9 | 7.0 | 10.0 | 0.00 | 0.00 | 0.00 | 48 | 1016.0 |
| 20260509145801 | 68 | 355 | 8.0 | 10.0 | 0.00 | 0.00 | 0.00 | 49 | 1016.0 |
| 20260509145712 | 68 | 355 | 8.0 | 10.0 | 0.00 | 0.00 | 0.00 | 49 | 1016.0 |
| 20260509145700 | 68 | 360 | 5.0 | 10.0 | 0.00 | 0.00 | 0.00 | 49 | 1015.9 |
| 20260509145600 | 68 | 33 | 5.0 | 10.0 | 0.00 | 0.00 | 0.00 | 49 | 1015.9 |
| 20260509145501 | 68 | 51 | 5.0 | 10.0 | 0.00 | 0.00 | 0.00 | 49 | 1015.9 |
| 20260509145401 | 68 | 71 | 7.0 | 10.0 | 0.00 | 0.00 | 0.00 | 48 | 1015.9 |
| 20260509145301 | 69 | 42 | 7.0 | 9.0 | 0.00 | 0.00 | 0.00 | 48 | 1015.9 |
| 20260509145213 | 69 | 42 | 7.0 | 9.0 | 0.00 | 0.00 | 0.00 | 48 | 1015.9 |
| 20260509145201 | 69 | 9 | 5.0 | 9.0 | 0.00 | 0.00 | 0.00 | 49 | 1016.0 |
| 20260509145100 | 69 | 49 | 4.0 | 9.0 | 0.00 | 0.00 | 0.00 | 49 | 1015.9 |
| 20260509145000 | 69 | 20 | 3.0 | 8.0 | 0.00 | 0.00 | 0.00 | 49 | 1015.8 |
| 20260509144900 | 69 | 78 | 3.0 | 6.0 | 0.00 | 0.00 | 0.00 | 49 | 1015.8 |
| 20260509144801 | 68 | 48 | 3.0 | 11.0 | 0.00 | 0.00 | 0.00 | 49 | 1015.9 |
| 20260509144713 | 68 | 48 | 3.0 | 11.0 | 0.00 | 0.00 | 0.00 | 49 | 1015.9 |
| 20260509144701 | 69 | 53 | 9.0 | 11.0 | 0.00 | 0.00 | 0.00 | 48 | 1015.8 |
| 20260509144600 | 69 | 22 | 9.0 | 11.0 | 0.00 | 0.00 | 0.00 | 48 | 1015.8 |
| 20260509144500 | 69 | 18 | 5.0 | 11.0 | 0.00 | 0.00 | 0.00 | 48 | 1015.8 |
| 20260509144400 | 69 | 16 | 7.0 | 8.0 | 0.00 | 0.00 | 0.00 | 48 | 1015.8 |
| 20260509144300 | 69 | 86 | 4.0 | 10.0 | 0.00 | 0.00 | 0.00 | 49 | 1015.8 |
| 20260509144212 | 69 | 86 | 4.0 | 10.0 | 0.00 | 0.00 | 0.00 | 49 | 1015.8 |
| 20260509144200 | 69 | 39 | 7.0 | 10.0 | 0.00 | 0.00 | 0.00 | 49 | 1015.8 |
| 20260509144100 | 69 | 19 | 3.0 | 10.0 | 0.00 | 0.00 | 0.00 | 49 | 1015.8 |
| 20260509144000 | 69 | 327 | 5.0 | 8.0 | 0.00 | 0.00 | 0.00 | 48 | 1015.8 |
| 20260509143900 | 69 | 71 | 3.0 | 7.0 | 0.00 | 0.00 | 0.00 | 48 | 1015.8 |
| 20260509143801 | 69 | 57 | 2.0 | 9.0 | 0.00 | 0.00 | 0.00 | 49 | 1015.8 |
| 20260509143713 | 69 | 57 | 2.0 | 9.0 | 0.00 | 0.00 | 0.00 | 49 | 1015.8 |
| 20260509143701 | 69 | 9 | 5.0 | 9.0 | 0.00 | 0.00 | 0.00 | 48 | 1015.8 |
| 20260509143601 | 69 | 55 | 5.0 | 9.0 | 0.00 | 0.00 | 0.00 | 48 | 1015.8 |
| 20260509143501 | 69 | 12 | 4.0 | 9.0 | 0.00 | 0.00 | 0.00 | 48 | 1015.8 |
| 20260509143401 | 69 | 55 | 9.0 | 9.0 | 0.00 | 0.00 | 0.00 | 49 | 1015.8 |
| 20260509143300 | 69 | 11 | 9.0 | 9.0 | 0.00 | 0.00 | 0.00 | 49 | 1015.7 |
| 20260509143214 | 69 | 11 | 9.0 | 9.0 | 0.00 | 0.00 | 0.00 | 49 | 1015.7 |
| 20260509143201 | 69 | 30 | 3.0 | 9.0 | 0.00 | 0.00 | 0.00 | 49 | 1015.8 |
| 20260509143101 | 69 | 31 | 3.0 | 9.0 | 0.00 | 0.00 | 0.00 | 48 | 1015.8 |
| 20260509143001 | 69 | 9 | 9.0 | 9.0 | 0.00 | 0.00 | 0.00 | 48 | 1015.8 |
| 20260509142901 | 69 | 13 | 6.0 | 8.0 | 0.00 | 0.00 | 0.00 | 48 | 1015.7 |
| 20260509142801 | 69 | 26 | 3.0 | 11.0 | 0.00 | 0.00 | 0.00 | 49 | 1015.7 |
| 20260509142713 | 69 | 26 | 3.0 | 11.0 | 0.00 | 0.00 | 0.00 | 49 | 1015.7 |
| 20260509142700 | 69 | 65 | 3.0 | 11.0 | 0.00 | 0.00 | 0.00 | 48 | 1015.7 |
| 20260509142600 | 69 | 34 | 11.0 | 11.0 | 0.00 | 0.00 | 0.00 | 49 | 1015.7 |
| 20260509142500 | 69 | 36 | 3.0 | 7.0 | 0.00 | 0.00 | 0.00 | 48 | 1015.7 |
| 20260509142400 | 69 | 342 | 5.0 | 7.0 | 0.00 | 0.00 | 0.00 | 48 | 1015.7 |
| 20260509142300 | 69 | 40 | 5.0 | 14.0 | 0.00 | 0.00 | 0.00 | 49 | 1015.8 |
| 20260509142212 | 69 | 40 | 5.0 | 14.0 | 0.00 | 0.00 | 0.00 | 49 | 1015.8 |
| 20260509142200 | 69 | 36 | 9.0 | 14.0 | 0.00 | 0.00 | 0.00 | 48 | 1015.7 |
| 20260509142100 | 69 | 39 | 7.0 | 14.0 | 0.00 | 0.00 | 0.00 | 49 | 1015.7 |
| 20260509142001 | 69 | 84 | 8.0 | 9.0 | 0.00 | 0.00 | 0.00 | 49 | 1015.7 |
| 20260509141901 | 68 | 9 | 6.0 | 8.0 | 0.00 | 0.00 | 0.00 | 49 | 1015.6 |
| 20260509141801 | 68 | 51 | 7.0 | 12.0 | 0.00 | 0.00 | 0.00 | 49 | 1015.6 |
| 20260509141713 | 68 | 51 | 7.0 | 12.0 | 0.00 | 0.00 | 0.00 | 49 | 1015.6 |
| 20260509141701 | 68 | 63 | 6.0 | 12.0 | 0.00 | 0.00 | 0.00 | 49 | 1015.6 |
| 20260509141600 | 68 | 47 | 4.0 | 12.0 | 0.00 | 0.00 | 0.00 | 49 | 1015.6 |
| 20260509141501 | 68 | 39 | 12.0 | 12.0 | 0.00 | 0.00 | 0.00 | 49 | 1015.6 |
| 20260509141401 | 68 | 46 | 4.0 | 9.0 | 0.00 | 0.00 | 0.00 | 49 | 1015.7 |
| 20260509141301 | 68 | 5 | 11.0 | 11.0 | 0.00 | 0.00 | 0.00 | 49 | 1015.6 |
| 20260509141213 | 68 | 5 | 11.0 | 11.0 | 0.00 | 0.00 | 0.00 | 49 | 1015.6 |
| 20260509141201 | 68 | 360 | 5.0 | 11.0 | 0.00 | 0.00 | 0.00 | 49 | 1015.6 |
| 20260509141100 | 68 | 355 | 4.0 | 11.0 | 0.00 | 0.00 | 0.00 | 49 | 1015.6 |
| 20260509141000 | 68 | 28 | 3.0 | 11.0 | 0.00 | 0.00 | 0.00 | 49 | 1015.6 |
| 20260509140900 | 68 | 17 | 9.0 | 11.0 | 0.00 | 0.00 | 0.00 | 49 | 1015.6 |
| 20260509140800 | 68 | 5 | 9.0 | 15.0 | 0.00 | 0.00 | 0.00 | 49 | 1015.6 |
| 20260509140712 | 68 | 5 | 9.0 | 15.0 | 0.00 | 0.00 | 0.00 | 49 | 1015.6 |
| 20260509140700 | 69 | 20 | 6.0 | 15.0 | 0.00 | 0.00 | 0.00 | 48 | 1015.6 |
| 20260509140600 | 69 | 19 | 6.0 | 15.0 | 0.00 | 0.00 | 0.00 | 48 | 1015.6 |
| 20260509140500 | 69 | 336 | 5.0 | 15.0 | 0.00 | 0.00 | 0.00 | 48 | 1015.6 |
| 20260509140400 | 69 | 34 | 8.0 | 15.0 | 0.00 | 0.00 | 0.00 | 48 | 1015.7 |
| 20260509140301 | 69 | 24 | 6.0 | 13.0 | 0.00 | 0.00 | 0.00 | 48 | 1015.7 |
| 20260509140213 | 69 | 24 | 6.0 | 13.0 | 0.00 | 0.00 | 0.00 | 48 | 1015.7 |
| 20260509140200 | 69 | 110 | 4.0 | 11.0 | 0.00 | 0.00 | 0.00 | 48 | 1015.7 |
| 20260509140100 | 69 | 76 | 7.0 | 11.0 | 0.00 | 0.00 | 0.00 | 48 | 1015.6 |
| 20260509140000 | 69 | 33 | 5.0 | 5.0 | 0.00 | 0.00 | 0.00 | 48 | 1015.7 |
| 20260509135900 | 69 | 59 | 3.0 | 5.0 | 0.00 | 0.00 | 0.00 | 48 | 1015.7 |
| 20260509135800 | 69 | 45 | 5.0 | 10.0 | 0.00 | 0.00 | 0.00 | 48 | 1015.7 |
| 20260509135712 | 69 | 45 | 5.0 | 10.0 | 0.00 | 0.00 | 0.00 | 48 | 1015.7 |
| 20260509135700 | 69 | 90 | 6.0 | 10.0 | 0.00 | 0.00 | 0.00 | 48 | 1015.7 |
| 20260509135601 | 69 | 13 | 8.0 | 10.0 | 0.00 | 0.00 | 0.00 | 48 | 1015.7 |
| 20260509135501 | 69 | 40 | 3.0 | 9.0 | 0.00 | 0.00 | 0.00 | 48 | 1015.7 |
| 20260509135401 | 69 | 25 | 7.0 | 9.0 | 0.00 | 0.00 | 0.00 | 48 | 1015.6 |
| 20260509135300 | 69 | 360 | 9.0 | 10.0 | 0.00 | 0.00 | 0.00 | 49 | 1015.6 |
| 20260509135212 | 69 | 360 | 9.0 | 10.0 | 0.00 | 0.00 | 0.00 | 49 | 1015.6 |
| 20260509135200 | 69 | 355 | 6.0 | 9.0 | 0.00 | 0.00 | 0.00 | 49 | 1015.6 |
| 20260509135100 | 69 | 76 | 2.0 | 9.0 | 0.00 | 0.00 | 0.00 | 49 | 1015.6 |
| 20260509135001 | 69 | 48 | 6.0 | 8.0 | 0.00 | 0.00 | 0.00 | 49 | 1015.6 |
| 20260509134901 | 69 | 51 | 4.0 | 6.0 | 0.00 | 0.00 | 0.00 | 49 | 1015.6 |
| 20260509134801 | 69 | 34 | 4.0 | 11.0 | 0.00 | 0.00 | 0.00 | 49 | 1015.6 |
| 20260509134713 | 69 | 34 | 4.0 | 11.0 | 0.00 | 0.00 | 0.00 | 49 | 1015.6 |
| 20260509134701 | 69 | 24 | 8.0 | 11.0 | 0.00 | 0.00 | 0.00 | 49 | 1015.6 |
| 20260509134600 | 69 | 5 | 4.0 | 10.0 | 0.00 | 0.00 | 0.00 | 49 | 1015.6 |
| 20260509134500 | 69 | 39 | 4.0 | 10.0 | 0.00 | 0.00 | 0.00 | 49 | 1015.7 |
| 20260509134400 | 69 | 28 | 7.0 | 10.0 | 0.00 | 0.00 | 0.00 | 49 | 1015.7 |
| 20260509134300 | 69 | 5 | 4.0 | 12.0 | 0.00 | 0.00 | 0.00 | 49 | 1015.7 |
| 20260509134212 | 69 | 5 | 4.0 | 12.0 | 0.00 | 0.00 | 0.00 | 49 | 1015.7 |
| 20260509134200 | 69 | 28 | 7.0 | 12.0 | 0.00 | 0.00 | 0.00 | 49 | 1015.7 |
| 20260509134101 | 68 | 18 | 4.0 | 12.0 | 0.00 | 0.00 | 0.00 | 49 | 1015.7 |
| 20260509134001 | 68 | 340 | 6.0 | 12.0 | 0.00 | 0.00 | 0.00 | 49 | 1015.7 |
| 20260509133901 | 68 | 35 | 10.0 | 10.0 | 0.00 | 0.00 | 0.00 | 49 | 1015.7 |
| 20260509133801 | 68 | 339 | 3.0 | 12.0 | 0.00 | 0.00 | 0.00 | 49 | 1015.7 |
| 20260509133713 | 68 | 339 | 3.0 | 12.0 | 0.00 | 0.00 | 0.00 | 49 | 1015.7 |
| 20260509133701 | 68 | 11 | 12.0 | 12.0 | 0.00 | 0.00 | 0.00 | 49 | 1015.7 |
| 20260509133601 | 68 | 30 | 7.0 | 9.0 | 0.00 | 0.00 | 0.00 | 49 | 1015.7 |
| 20260509133500 | 69 | 11 | 6.0 | 9.0 | 0.00 | 0.00 | 0.00 | 49 | 1015.7 |
| 20260509133400 | 69 | 40 | 7.0 | 9.0 | 0.00 | 0.00 | 0.00 | 49 | 1015.7 |
| 20260509133300 | 69 | 9 | 4.0 | 14.0 | 0.00 | 0.00 | 0.00 | 49 | 1015.7 |
| 20260509133212 | 69 | 9 | 4.0 | 14.0 | 0.00 | 0.00 | 0.00 | 49 | 1015.7 |
| 20260509133200 | 69 | 24 | 10.0 | 10.0 | 0.00 | 0.00 | 0.00 | 49 | 1015.7 |
| 20260509133101 | 69 | 46 | 4.0 | 9.0 | 0.00 | 0.00 | 0.00 | 49 | 1015.7 |
| 20260509133000 | 69 | 35 | 7.0 | 9.0 | 0.00 | 0.00 | 0.00 | 49 | 1015.7 |
| 20260509132900 | 69 | 26 | 4.0 | 8.0 | 0.00 | 0.00 | 0.00 | 49 | 1015.7 |
| 20260509132800 | 69 | 24 | 8.0 | 15.0 | 0.00 | 0.00 | 0.00 | 49 | 1015.7 |
| 20260509132712 | 69 | 24 | 8.0 | 15.0 | 0.00 | 0.00 | 0.00 | 49 | 1015.7 |
| 20260509132700 | 69 | 17 | 7.0 | 15.0 | 0.00 | 0.00 | 0.00 | 49 | 1015.6 |
| 20260509132600 | 69 | 58 | 15.0 | 15.0 | 0.00 | 0.00 | 0.00 | 49 | 1015.7 |
| 20260509132501 | 69 | 34 | 10.0 | 13.0 | 0.00 | 0.00 | 0.00 | 49 | 1015.6 |
| 20260509132400 | 69 | 53 | 6.0 | 11.0 | 0.00 | 0.00 | 0.00 | 49 | 1015.7 |
| 20260509132300 | 69 | 106 | 7.0 | 11.0 | 0.00 | 0.00 | 0.00 | 49 | 1015.7 |
| 20260509132212 | 69 | 106 | 7.0 | 11.0 | 0.00 | 0.00 | 0.00 | 49 | 1015.7 |
| 20260509132200 | 69 | 69 | 6.0 | 11.0 | 0.00 | 0.00 | 0.00 | 49 | 1015.7 |
| 20260509132100 | 69 | 44 | 5.0 | 11.0 | 0.00 | 0.00 | 0.00 | 49 | 1015.8 |
| 20260509132000 | 69 | 35 | 4.0 | 11.0 | 0.00 | 0.00 | 0.00 | 49 | 1015.7 |
| 20260509131901 | 69 | 49 | 5.0 | 9.0 | 0.00 | 0.00 | 0.00 | 49 | 1015.7 |
| 20260509131801 | 69 | 33 | 5.0 | 10.0 | 0.00 | 0.00 | 0.00 | 49 | 1015.7 |
| 20260509131713 | 69 | 33 | 5.0 | 10.0 | 0.00 | 0.00 | 0.00 | 49 | 1015.7 |
| 20260509131701 | 69 | 82 | 9.0 | 10.0 | 0.00 | 0.00 | 0.00 | 49 | 1015.8 |
| 20260509131601 | 69 | 27 | 8.0 | 10.0 | 0.00 | 0.00 | 0.00 | 48 | 1015.8 |
| 20260509131501 | 69 | 9 | 6.0 | 10.0 | 0.00 | 0.00 | 0.00 | 48 | 1015.8 |
| 20260509131359 | 69 | 26 | 10.0 | 10.0 | 0.00 | 0.00 | 0.00 | 48 | 1015.7 |
| 20260509131301 | 69 | 52 | 10.0 | 16.0 | 0.00 | 0.00 | 0.00 | 48 | 1015.8 |
| 20260509131213 | 69 | 52 | 10.0 | 16.0 | 0.00 | 0.00 | 0.00 | 48 | 1015.8 |
| 20260509131201 | 69 | 355 | 7.0 | 14.0 | 0.00 | 0.00 | 0.00 | 48 | 1015.7 |
| 20260509131101 | 69 | 34 | 6.0 | 14.0 | 0.00 | 0.00 | 0.00 | 48 | 1015.8 |
| 20260509131001 | 69 | 35 | 6.0 | 9.0 | 0.00 | 0.00 | 0.00 | 48 | 1015.8 |
| 20260509130901 | 69 | 336 | 8.0 | 9.0 | 0.00 | 0.00 | 0.00 | 48 | 1015.7 |
| 20260509130801 | 69 | 16 | 9.0 | 12.0 | 0.00 | 0.00 | 0.00 | 48 | 1015.8 |
| 20260509130712 | 69 | 16 | 9.0 | 12.0 | 0.00 | 0.00 | 0.00 | 48 | 1015.8 |
| 20260509130700 | 69 | 33 | 3.0 | 12.0 | 0.00 | 0.00 | 0.00 | 48 | 1015.8 |
| 20260509130600 | 69 | 52 | 5.0 | 12.0 | 0.00 | 0.00 | 0.00 | 48 | 1015.8 |
| 20260509130500 | 69 | 339 | 3.0 | 12.0 | 0.00 | 0.00 | 0.00 | 48 | 1015.9 |
| 20260509130400 | 69 | 338 | 4.0 | 10.0 | 0.00 | 0.00 | 0.00 | 48 | 1015.8 |
| 20260509130301 | 69 | 31 | 6.0 | 12.0 | 0.00 | 0.00 | 0.00 | 47 | 1015.8 |
| 20260509130213 | 69 | 31 | 6.0 | 12.0 | 0.00 | 0.00 | 0.00 | 47 | 1015.8 |
| 20260509130201 | 69 | 351 | 8.0 | 12.0 | 0.00 | 0.00 | 0.00 | 47 | 1015.9 |
| 20260509130100 | 69 | 360 | 6.0 | 12.0 | 0.00 | 0.00 | 0.00 | 48 | 1015.9 |
| 20260509130000 | 69 | 360 | 3.0 | 12.0 | 0.00 | 0.00 | 0.00 | 48 | 1015.8 |
| 20260509125900 | 70 | 41 | 8.0 | 10.0 | 0.00 | 0.00 | 0.00 | 48 | 1015.8 |
| 20260509125800 | 70 | 69 | 6.0 | 10.0 | 0.00 | 0.00 | 0.00 | 48 | 1015.8 |
| 20260509125712 | 70 | 69 | 6.0 | 10.0 | 0.00 | 0.00 | 0.00 | 48 | 1015.8 |
| 20260509125700 | 69 | 58 | 7.0 | 10.0 | 0.00 | 0.00 | 0.00 | 48 | 1015.8 |
| 20260509125600 | 69 | 80 | 5.0 | 10.0 | 0.00 | 0.00 | 0.00 | 48 | 1015.8 |
| 20260509125500 | 69 | 9 | 8.0 | 10.0 | 0.00 | 0.00 | 0.00 | 48 | 1015.8 |
| 20260509125401 | 69 | 31 | 4.0 | 8.0 | 0.00 | 0.00 | 0.00 | 48 | 1015.8 |
| 20260509125301 | 69 | 34 | 9.0 | 11.0 | 0.00 | 0.00 | 0.00 | 48 | 1015.8 |
| 20260509125213 | 69 | 34 | 9.0 | 11.0 | 0.00 | 0.00 | 0.00 | 48 | 1015.8 |
| 20260509125200 | 69 | 123 | 3.0 | 9.0 | 0.00 | 0.00 | 0.00 | 48 | 1015.8 |
| 20260509125101 | 69 | 150 | 3.0 | 9.0 | 0.00 | 0.00 | 0.00 | 48 | 1015.9 |
| 20260509125000 | 69 | 331 | 5.0 | 9.0 | 0.00 | 0.00 | 0.00 | 48 | 1015.9 |
| 20260509124900 | 69 | 59 | 7.0 | 9.0 | 0.00 | 0.00 | 0.00 | 49 | 1015.9 |
| 20260509124800 | 69 | 66 | 3.0 | 13.0 | 0.00 | 0.00 | 0.00 | 48 | 1015.9 |
| 20260509124713 | 69 | 66 | 3.0 | 13.0 | 0.00 | 0.00 | 0.00 | 48 | 1015.9 |
| 20260509124701 | 69 | 22 | 4.0 | 13.0 | 0.00 | 0.00 | 0.00 | 48 | 1015.9 |
| 20260509124600 | 69 | 24 | 4.0 | 13.0 | 0.00 | 0.00 | 0.00 | 48 | 1015.9 |
| 20260509124500 | 69 | 360 | 7.0 | 13.0 | 0.00 | 0.00 | 0.00 | 48 | 1015.9 |
| 20260509124400 | 69 | 56 | 10.0 | 13.0 | 0.00 | 0.00 | 0.00 | 48 | 1015.9 |
| 20260509124301 | 69 | 41 | 11.0 | 13.0 | 0.00 | 0.00 | 0.00 | 48 | 1016.0 |
| 20260509124213 | 69 | 41 | 11.0 | 13.0 | 0.00 | 0.00 | 0.00 | 48 | 1016.0 |
| 20260509124201 | 69 | 51 | 5.0 | 13.0 | 0.00 | 0.00 | 0.00 | 48 | 1016.0 |
| 20260509124101 | 69 | 355 | 9.0 | 13.0 | 0.00 | 0.00 | 0.00 | 48 | 1015.9 |
| 20260509124000 | 69 | 5 | 8.0 | 13.0 | 0.00 | 0.00 | 0.00 | 48 | 1015.9 |
| 20260509123900 | 69 | 355 | 8.0 | 12.0 | 0.00 | 0.00 | 0.00 | 48 | 1016.0 |
| 20260509123800 | 69 | 355 | 5.0 | 10.0 | 0.00 | 0.00 | 0.00 | 48 | 1016.1 |
| 20260509123712 | 69 | 355 | 5.0 | 10.0 | 0.00 | 0.00 | 0.00 | 48 | 1016.1 |
| 20260509123700 | 69 | 83 | 6.0 | 10.0 | 0.00 | 0.00 | 0.00 | 48 | 1016.0 |
| 20260509123559 | 69 | 360 | 10.0 | 10.0 | 0.00 | 0.00 | 0.00 | 48 | 1016.1 |
| 20260509123500 | 69 | 338 | 6.0 | 10.0 | 0.00 | 0.00 | 0.00 | 48 | 1016.1 |
| 20260509123401 | 69 | 9 | 10.0 | 10.0 | 0.00 | 0.00 | 0.00 | 48 | 1016.1 |
| 20260509123300 | 69 | 11 | 7.0 | 10.0 | 0.00 | 0.00 | 0.00 | 48 | 1016.1 |
| 20260509123212 | 69 | 11 | 7.0 | 10.0 | 0.00 | 0.00 | 0.00 | 48 | 1016.1 |
| 20260509123200 | 69 | 65 | 3.0 | 10.0 | 0.00 | 0.00 | 0.00 | 48 | 1016.1 |
| 20260509123100 | 69 | 9 | 6.0 | 9.0 | 0.00 | 0.00 | 0.00 | 48 | 1016.2 |
| 20260509123000 | 69 | 325 | 4.0 | 9.0 | 0.00 | 0.00 | 0.00 | 48 | 1016.2 |
| 20260509122900 | 69 | 338 | 7.0 | 9.0 | 0.00 | 0.00 | 0.00 | 48 | 1016.2 |
| 20260509122800 | 69 | 61 | 7.0 | 10.0 | 0.00 | 0.00 | 0.00 | 48 | 1016.3 |
| 20260509122712 | 69 | 61 | 7.0 | 10.0 | 0.00 | 0.00 | 0.00 | 48 | 1016.3 |
| 20260509122700 | 69 | 331 | 10.0 | 10.0 | 0.00 | 0.00 | 0.00 | 48 | 1016.2 |
| 20260509122600 | 69 | 15 | 5.0 | 9.0 | 0.00 | 0.00 | 0.00 | 48 | 1016.3 |
| 20260509122500 | 69 | 355 | 7.0 | 8.0 | 0.00 | 0.00 | 0.00 | 48 | 1016.2 |
| 20260509122400 | 69 | 72 | 6.0 | 8.0 | 0.00 | 0.00 | 0.00 | 48 | 1016.2 |
| 20260509122300 | 69 | 64 | 4.0 | 12.0 | 0.00 | 0.00 | 0.00 | 48 | 1016.3 |
| 20260509122212 | 69 | 64 | 4.0 | 12.0 | 0.00 | 0.00 | 0.00 | 48 | 1016.3 |
| 20260509122201 | 69 | 57 | 8.0 | 12.0 | 0.00 | 0.00 | 0.00 | 48 | 1016.2 |
| 20260509122101 | 69 | 32 | 4.0 | 9.0 | 0.00 | 0.00 | 0.00 | 48 | 1016.3 |
| 20260509122000 | 69 | 15 | 8.0 | 9.0 | 0.00 | 0.00 | 0.00 | 48 | 1016.2 |
| 20260509121900 | 69 | 34 | 9.0 | 9.0 | 0.00 | 0.00 | 0.00 | 48 | 1016.3 |
| 20260509121800 | 69 | 32 | 5.0 | 12.0 | 0.00 | 0.00 | 0.00 | 48 | 1016.2 |
| 20260509121712 | 69 | 32 | 5.0 | 12.0 | 0.00 | 0.00 | 0.00 | 48 | 1016.2 |
| 20260509121700 | 69 | 32 | 9.0 | 12.0 | 0.00 | 0.00 | 0.00 | 48 | 1016.2 |
| 20260509121601 | 69 | 25 | 7.0 | 12.0 | 0.00 | 0.00 | 0.00 | 49 | 1016.3 |
| 20260509121501 | 69 | 112 | 4.0 | 12.0 | 0.00 | 0.00 | 0.00 | 49 | 1016.3 |
| 20260509121401 | 69 | 54 | 7.0 | 12.0 | 0.00 | 0.00 | 0.00 | 49 | 1016.3 |
| 20260509121301 | 69 | 27 | 4.0 | 11.0 | 0.00 | 0.00 | 0.00 | 49 | 1016.3 |
| 20260509121213 | 69 | 27 | 4.0 | 11.0 | 0.00 | 0.00 | 0.00 | 49 | 1016.3 |
| 20260509121201 | 68 | 355 | 6.0 | 10.0 | 0.00 | 0.00 | 0.00 | 49 | 1016.3 |
| 20260509121100 | 68 | 345 | 6.0 | 10.0 | 0.00 | 0.00 | 0.00 | 48 | 1016.3 |
| 20260509121000 | 68 | 9 | 4.0 | 10.0 | 0.00 | 0.00 | 0.00 | 48 | 1016.2 |
| 20260509120900 | 68 | 41 | 10.0 | 10.0 | 0.00 | 0.00 | 0.00 | 49 | 1016.3 |
| 20260509120800 | 68 | 27 | 8.0 | 10.0 | 0.00 | 0.00 | 0.00 | 48 | 1016.2 |
| 20260509120712 | 68 | 27 | 8.0 | 10.0 | 0.00 | 0.00 | 0.00 | 48 | 1016.2 |
| 20260509120700 | 68 | 17 | 4.0 | 10.0 | 0.00 | 0.00 | 0.00 | 48 | 1016.3 |
| 20260509120601 | 68 | 20 | 5.0 | 9.0 | 0.00 | 0.00 | 0.00 | 49 | 1016.2 |
| 20260509120501 | 68 | 355 | 8.0 | 8.0 | 0.00 | 0.00 | 0.00 | 49 | 1016.2 |
| 20260509120401 | 68 | 30 | 3.0 | 5.0 | 0.00 | 0.00 | 0.00 | 49 | 1016.3 |
| 20260509120301 | 68 | 16 | 3.0 | 12.0 | 0.00 | 0.00 | 0.00 | 49 | 1016.3 |
| 20260509120213 | 68 | 16 | 3.0 | 12.0 | 0.00 | 0.00 | 0.00 | 49 | 1016.3 |
| 20260509120200 | 68 | 17 | 6.0 | 12.0 | 0.00 | 0.00 | 0.00 | 48 | 1016.3 |
| 20260509120100 | 68 | 9 | 3.0 | 12.0 | 0.00 | 0.00 | 0.00 | 48 | 1016.3 |
| 20260509120000 | 68 | 51 | 8.0 | 9.0 | 0.00 | 0.00 | 0.00 | 48 | 1016.3 |
| 20260509115900 | 68 | 28 | 6.0 | 9.0 | 0.00 | 0.00 | 0.00 | 48 | 1016.3 |
| 20260509115800 | 69 | 66 | 9.0 | 12.0 | 0.00 | 0.00 | 0.00 | 48 | 1016.3 |
| 20260509115712 | 69 | 66 | 9.0 | 12.0 | 0.00 | 0.00 | 0.00 | 48 | 1016.3 |
| 20260509115700 | 69 | 47 | 10.0 | 10.0 | 0.00 | 0.00 | 0.00 | 48 | 1016.3 |
| 20260509115600 | 69 | 44 | 5.0 | 10.0 | 0.00 | 0.00 | 0.00 | 48 | 1016.3 |
| 20260509115500 | 69 | 30 | 10.0 | 10.0 | 0.00 | 0.00 | 0.00 | 48 | 1016.3 |
| 20260509115400 | 69 | 33 | 9.0 | 9.0 | 0.00 | 0.00 | 0.00 | 48 | 1016.3 |
| 20260509115301 | 69 | 55 | 3.0 | 12.0 | 0.00 | 0.00 | 0.00 | 48 | 1016.3 |
| 20260509115213 | 69 | 55 | 3.0 | 12.0 | 0.00 | 0.00 | 0.00 | 48 | 1016.3 |
| 20260509115201 | 69 | 360 | 3.0 | 12.0 | 0.00 | 0.00 | 0.00 | 48 | 1016.4 |
| 20260509115101 | 69 | 62 | 4.0 | 12.0 | 0.00 | 0.00 | 0.00 | 48 | 1016.3 |
| 20260509115000 | 70 | 27 | 7.0 | 10.0 | 0.00 | 0.00 | 0.00 | 48 | 1016.4 |
| 20260509114900 | 70 | 61 | 9.0 | 9.0 | 0.00 | 0.00 | 0.00 | 48 | 1016.3 |
| 20260509114801 | 70 | 360 | 7.0 | 13.0 | 0.00 | 0.00 | 0.00 | 47 | 1016.3 |
| 20260509114713 | 70 | 360 | 7.0 | 13.0 | 0.00 | 0.00 | 0.00 | 47 | 1016.3 |
| 20260509114701 | 70 | 348 | 6.0 | 13.0 | 0.00 | 0.00 | 0.00 | 47 | 1016.4 |
| 20260509114601 | 70 | 360 | 4.0 | 13.0 | 0.00 | 0.00 | 0.00 | 47 | 1016.4 |
| 20260509114500 | 70 | 28 | 3.0 | 7.0 | 0.00 | 0.00 | 0.00 | 47 | 1016.4 |
| 20260509114400 | 70 | 75 | 3.0 | 7.0 | 0.00 | 0.00 | 0.00 | 47 | 1016.3 |
| 20260509114300 | 70 | 62 | 3.0 | 8.0 | 0.00 | 0.00 | 0.00 | 48 | 1016.4 |
| 20260509114212 | 70 | 62 | 3.0 | 8.0 | 0.00 | 0.00 | 0.00 | 48 | 1016.4 |
| 20260509114201 | 70 | 53 | 5.0 | 8.0 | 0.00 | 0.00 | 0.00 | 48 | 1016.3 |
| 20260509114100 | 70 | 346 | 2.0 | 8.0 | 0.00 | 0.00 | 0.00 | 47 | 1016.3 |
| 20260509114000 | 70 | 31 | 6.0 | 7.0 | 0.00 | 0.00 | 0.00 | 47 | 1016.3 |
| 20260509113900 | 70 | 9 | 3.0 | 3.0 | 0.00 | 0.00 | 0.00 | 47 | 1016.4 |
| 20260509113800 | 70 | 15 | 3.0 | 11.0 | 0.00 | 0.00 | 0.00 | 46 | 1016.4 |
| 20260509113712 | 70 | 15 | 3.0 | 11.0 | 0.00 | 0.00 | 0.00 | 46 | 1016.4 |
| 20260509113700 | 70 | 78 | 6.0 | 11.0 | 0.00 | 0.00 | 0.00 | 47 | 1016.4 |
| 20260509113600 | 71 | 348 | 3.0 | 11.0 | 0.00 | 0.00 | 0.00 | 47 | 1016.4 |
| 20260509113501 | 71 | 24 | 3.0 | 11.0 | 0.00 | 0.00 | 0.00 | 47 | 1016.4 |
| 20260509113401 | 71 | 355 | 7.0 | 11.0 | 0.00 | 0.00 | 0.00 | 47 | 1016.4 |
| 20260509113301 | 71 | 328 | 5.0 | 11.0 | 0.00 | 0.00 | 0.00 | 47 | 1016.4 |
| 20260509113213 | 71 | 328 | 5.0 | 11.0 | 0.00 | 0.00 | 0.00 | 47 | 1016.4 |
| 20260509113201 | 71 | 333 | 2.0 | 11.0 | 0.00 | 0.00 | 0.00 | 47 | 1016.4 |
| 20260509113100 | 71 | 337 | 3.0 | 11.0 | 0.00 | 0.00 | 0.00 | 47 | 1016.4 |
| 20260509113000 | 71 | 15 | 3.0 | 11.0 | 0.00 | 0.00 | 0.00 | 47 | 1016.5 |
| 20260509112900 | 71 | 22 | 3.0 | 11.0 | 0.00 | 0.00 | 0.00 | 47 | 1016.5 |
| 20260509112800 | 71 | 40 | 4.0 | 10.0 | 0.00 | 0.00 | 0.00 | 46 | 1016.5 |
| 20260509112712 | 71 | 40 | 4.0 | 10.0 | 0.00 | 0.00 | 0.00 | 46 | 1016.5 |
| 20260509112700 | 71 | 46 | 5.0 | 10.0 | 0.00 | 0.00 | 0.00 | 45 | 1016.5 |
| 20260509112601 | 71 | 42 | 3.0 | 10.0 | 0.00 | 0.00 | 0.00 | 45 | 1016.5 |
| 20260509112501 | 71 | 67 | 7.0 | 10.0 | 0.00 | 0.00 | 0.00 | 46 | 1016.6 |
| 20260509112401 | 71 | 38 | 5.0 | 5.0 | 0.00 | 0.00 | 0.00 | 46 | 1016.5 |
| 20260509112300 | 71 | 41 | 3.0 | 6.0 | 0.00 | 0.00 | 0.00 | 46 | 1016.6 |
| 20260509112212 | 71 | 41 | 3.0 | 6.0 | 0.00 | 0.00 | 0.00 | 46 | 1016.6 |
| 20260509112200 | 71 | 87 | 5.0 | 6.0 | 0.00 | 0.00 | 0.00 | 46 | 1016.6 |
| 20260509112100 | 71 | 74 | 3.0 | 6.0 | 0.00 | 0.00 | 0.00 | 47 | 1016.6 |
| 20260509112000 | 71 | 57 | 3.0 | 6.0 | 0.00 | 0.00 | 0.00 | 47 | 1016.6 |
| 20260509111900 | 71 | 355 | 3.0 | 3.0 | 0.00 | 0.00 | 0.00 | 47 | 1016.7 |
| 20260509111800 | 71 | 26 | 7.0 | 9.0 | 0.00 | 0.00 | 0.00 | 47 | 1016.6 |
| 20260509111712 | 71 | 26 | 7.0 | 9.0 | 0.00 | 0.00 | 0.00 | 47 | 1016.6 |
| 20260509111700 | 71 | 50 | 3.0 | 8.0 | 0.00 | 0.00 | 0.00 | 47 | 1016.6 |
| 20260509111601 | 71 | 313 | 3.0 | 8.0 | 0.00 | 0.00 | 0.00 | 46 | 1016.6 |
| 20260509111501 | 70 | 59 | 7.0 | 8.0 | 0.00 | 0.00 | 0.00 | 45 | 1016.6 |
| 20260509111400 | 70 | 91 | 3.0 | 8.0 | 0.00 | 0.00 | 0.00 | 45 | 1016.7 |
| 20260509111300 | 70 | 27 | 3.0 | 7.0 | 0.00 | 0.00 | 0.00 | 45 | 1016.6 |
| 20260509111212 | 70 | 27 | 3.0 | 7.0 | 0.00 | 0.00 | 0.00 | 45 | 1016.6 |
| 20260509111200 | 70 | 74 | 3.0 | 7.0 | 0.00 | 0.00 | 0.00 | 46 | 1016.7 |
| 20260509111100 | 70 | 36 | 3.0 | 7.0 | 0.00 | 0.00 | 0.00 | 46 | 1016.7 |
| 20260509111000 | 70 | 188 | 1.0 | 3.0 | 0.00 | 0.00 | 0.00 | 46 | 1016.7 |
| 20260509110901 | 70 | 67 | 2.0 | 3.0 | 0.00 | 0.00 | 0.00 | 47 | 1016.7 |
| 20260509110801 | 70 | 87 | 6.0 | 6.0 | 0.00 | 0.00 | 0.00 | 47 | 1016.8 |
| 20260509110713 | 70 | 87 | 6.0 | 6.0 | 0.00 | 0.00 | 0.00 | 47 | 1016.8 |
| 20260509110701 | 70 | 48 | 2.0 | 6.0 | 0.00 | 0.00 | 0.00 | 47 | 1016.8 |
| 20260509110601 | 70 | 35 | 5.0 | 6.0 | 0.00 | 0.00 | 0.00 | 47 | 1016.8 |
| 20260509110500 | 70 | 24 | 3.0 | 6.0 | 0.00 | 0.00 | 0.00 | 47 | 1016.8 |
| 20260509110400 | 70 | 35 | 4.0 | 6.0 | 0.00 | 0.00 | 0.00 | 47 | 1016.8 |
| 20260509110300 | 70 | 333 | 3.0 | 10.0 | 0.00 | 0.00 | 0.00 | 47 | 1016.8 |
| 20260509110212 | 70 | 333 | 3.0 | 10.0 | 0.00 | 0.00 | 0.00 | 47 | 1016.8 |
| 20260509110200 | 70 | 33 | 5.0 | 10.0 | 0.00 | 0.00 | 0.00 | 47 | 1016.8 |
| 20260509110001 | 70 | 34 | 4.0 | 10.0 | 0.00 | 0.00 | 0.00 | 47 | 1016.8 |
| 20260509105901 | 70 | 15 | 6.0 | 10.0 | 0.00 | 0.00 | 0.00 | 46 | 1016.8 |
| 20260509105800 | 70 | 90 | 10.0 | 11.0 | 0.00 | 0.00 | 0.00 | 45 | 1016.7 |
| 20260509105712 | 70 | 90 | 10.0 | 11.0 | 0.00 | 0.00 | 0.00 | 45 | 1016.7 |
| 20260509105700 | 70 | 82 | 5.0 | 9.0 | 0.00 | 0.00 | 0.00 | 45 | 1016.8 |
| 20260509105600 | 70 | 54 | 7.0 | 9.0 | 0.00 | 0.00 | 0.00 | 46 | 1016.8 |
| 20260509105500 | 70 | 71 | 9.0 | 9.0 | 0.00 | 0.00 | 0.00 | 45 | 1016.8 |
| 20260509105400 | 70 | 344 | 5.0 | 7.0 | 0.00 | 0.00 | 0.00 | 45 | 1016.8 |
| 20260509105300 | 70 | 45 | 2.0 | 8.0 | 0.00 | 0.00 | 0.00 | 45 | 1016.8 |
| 20260509105213 | 70 | 45 | 2.0 | 8.0 | 0.00 | 0.00 | 0.00 | 45 | 1016.8 |
| 20260509105201 | 70 | 67 | 3.0 | 8.0 | 0.00 | 0.00 | 0.00 | 45 | 1016.8 |
| 20260509105100 | 70 | 70 | 3.0 | 8.0 | 0.00 | 0.00 | 0.00 | 45 | 1016.8 |
| 20260509105000 | 70 | 79 | 5.0 | 7.0 | 0.00 | 0.00 | 0.00 | 45 | 1016.8 |
| 20260509104900 | 70 | 49 | 4.0 | 7.0 | 0.00 | 0.00 | 0.00 | 45 | 1016.8 |
| 20260509104800 | 70 | 176 | 2.0 | 8.0 | 0.00 | 0.00 | 0.00 | 45 | 1016.8 |
| 20260509104712 | 70 | 176 | 2.0 | 8.0 | 0.00 | 0.00 | 0.00 | 45 | 1016.8 |
| 20260509104700 | 70 | 38 | 1.0 | 8.0 | 0.00 | 0.00 | 0.00 | 44 | 1016.8 |
| 20260509104600 | 70 | 30 | 3.0 | 8.0 | 0.00 | 0.00 | 0.00 | 44 | 1016.8 |
| 20260509104500 | 70 | 28 | 3.0 | 8.0 | 0.00 | 0.00 | 0.00 | 44 | 1016.8 |
| 20260509104400 | 70 | 58 | 7.0 | 8.0 | 0.00 | 0.00 | 0.00 | 44 | 1016.9 |
| 20260509104300 | 70 | 84 | 7.0 | 9.0 | 0.00 | 0.00 | 0.00 | 45 | 1016.9 |
| 20260509104212 | 70 | 84 | 7.0 | 9.0 | 0.00 | 0.00 | 0.00 | 45 | 1016.9 |
| 20260509104159 | 70 | 71 | 3.0 | 8.0 | 0.00 | 0.00 | 0.00 | 45 | 1016.8 |
| 20260509104101 | 70 | 34 | 6.0 | 8.0 | 0.00 | 0.00 | 0.00 | 44 | 1016.8 |
| 20260509104001 | 70 | 126 | 5.0 | 8.0 | 0.00 | 0.00 | 0.00 | 44 | 1016.8 |
| 20260509103901 | 70 | 49 | 3.0 | 8.0 | 0.00 | 0.00 | 0.00 | 44 | 1016.9 |
| 20260509103800 | 69 | 95 | 6.0 | 10.0 | 0.00 | 0.00 | 0.00 | 44 | 1016.9 |
| 20260509103712 | 69 | 95 | 6.0 | 10.0 | 0.00 | 0.00 | 0.00 | 44 | 1016.9 |
| 20260509103700 | 69 | 80 | 4.0 | 10.0 | 0.00 | 0.00 | 0.00 | 44 | 1016.9 |
| 20260509103600 | 69 | 96 | 8.0 | 9.0 | 0.00 | 0.00 | 0.00 | 44 | 1016.9 |
| 20260509103500 | 69 | 67 | 2.0 | 9.0 | 0.00 | 0.00 | 0.00 | 44 | 1016.9 |
| 20260509103401 | 69 | 78 | 3.0 | 9.0 | 0.00 | 0.00 | 0.00 | 44 | 1017.0 |
| 20260509103301 | 69 | 341 | 4.0 | 10.0 | 0.00 | 0.00 | 0.00 | 44 | 1016.9 |
| 20260509103213 | 69 | 341 | 4.0 | 10.0 | 0.00 | 0.00 | 0.00 | 44 | 1016.9 |
| 20260509103201 | 69 | 74 | 7.0 | 10.0 | 0.00 | 0.00 | 0.00 | 44 | 1016.9 |
| 20260509103101 | 69 | 12 | 4.0 | 10.0 | 0.00 | 0.00 | 0.00 | 44 | 1016.9 |
| 20260509103001 | 69 | 24 | 6.0 | 9.0 | 0.00 | 0.00 | 0.00 | 44 | 1017.0 |
| 20260509102900 | 69 | 28 | 9.0 | 9.0 | 0.00 | 0.00 | 0.00 | 44 | 1016.9 |
| 20260509102800 | 69 | 80 | 5.0 | 9.0 | 0.00 | 0.00 | 0.00 | 44 | 1016.9 |
| 20260509102712 | 69 | 80 | 5.0 | 9.0 | 0.00 | 0.00 | 0.00 | 44 | 1016.9 |
| 20260509102700 | 69 | 39 | 3.0 | 9.0 | 0.00 | 0.00 | 0.00 | 43 | 1016.9 |
| 20260509102559 | 69 | 49 | 3.0 | 9.0 | 0.00 | 0.00 | 0.00 | 43 | 1017.0 |
| 20260509102501 | 69 | 58 | 3.0 | 9.0 | 0.00 | 0.00 | 0.00 | 43 | 1016.9 |
| 20260509102401 | 69 | 42 | 3.0 | 6.0 | 0.00 | 0.00 | 0.00 | 43 | 1017.0 |
| 20260509102305 | 69 | 82 | 5.0 | 8.0 | 0.00 | 0.00 | 0.00 | 43 | 1017.0 |
| 20260509102212 | 69 | 82 | 5.0 | 8.0 | 0.00 | 0.00 | 0.00 | 43 | 1017.0 |
| 20260509102200 | 69 | 43 | 6.0 | 8.0 | 0.00 | 0.00 | 0.00 | 42 | 1017.0 |
| 20260509102100 | 69 | 59 | 3.0 | 8.0 | 0.00 | 0.00 | 0.00 | 42 | 1017.0 |
| 20260509102000 | 69 | 72 | 8.0 | 8.0 | 0.00 | 0.00 | 0.00 | 42 | 1017.0 |
| 20260509101900 | 68 | 70 | 3.0 | 8.0 | 0.00 | 0.00 | 0.00 | 42 | 1017.0 |
| 20260509101800 | 68 | 69 | 4.0 | 10.0 | 0.00 | 0.00 | 0.00 | 42 | 1017.1 |
| 20260509101712 | 68 | 69 | 4.0 | 10.0 | 0.00 | 0.00 | 0.00 | 42 | 1017.1 |
| 20260509101700 | 68 | 46 | 8.0 | 10.0 | 0.00 | 0.00 | 0.00 | 42 | 1017.0 |
| 20260509101601 | 68 | 333 | 5.0 | 9.0 | 0.00 | 0.00 | 0.00 | 42 | 1017.1 |
| 20260509101501 | 68 | 57 | 3.0 | 6.0 | 0.00 | 0.00 | 0.00 | 41 | 1017.0 |
| 20260509101401 | 68 | 80 | 5.0 | 6.0 | 0.00 | 0.00 | 0.00 | 41 | 1017.0 |
| 20260509101301 | 68 | 37 | 3.0 | 11.0 | 0.00 | 0.00 | 0.00 | 41 | 1017.0 |
| 20260509101212 | 68 | 37 | 3.0 | 11.0 | 0.00 | 0.00 | 0.00 | 41 | 1017.0 |
| 20260509101200 | 68 | 48 | 3.0 | 11.0 | 0.00 | 0.00 | 0.00 | 41 | 1017.0 |
| 20260509101100 | 68 | 32 | 2.0 | 8.0 | 0.00 | 0.00 | 0.00 | 40 | 1017.0 |
| 20260509101001 | 68 | 52 | 3.0 | 8.0 | 0.00 | 0.00 | 0.00 | 40 | 1017.0 |
| 20260509100901 | 68 | 35 | 6.0 | 6.0 | 0.00 | 0.00 | 0.00 | 40 | 1017.0 |
| 20260509100801 | 68 | 22 | 4.0 | 7.0 | 0.00 | 0.00 | 0.00 | 40 | 1017.0 |
| 20260509100713 | 68 | 22 | 4.0 | 7.0 | 0.00 | 0.00 | 0.00 | 40 | 1017.0 |
| 20260509100701 | 68 | 27 | 4.0 | 7.0 | 0.00 | 0.00 | 0.00 | 40 | 1017.0 |
| 20260509100601 | 68 | 11 | 3.0 | 7.0 | 0.00 | 0.00 | 0.00 | 40 | 1017.0 |
| 20260509100501 | 68 | 63 | 3.0 | 7.0 | 0.00 | 0.00 | 0.00 | 40 | 1017.0 |
| 20260509100400 | 68 | 92 | 4.0 | 5.0 | 0.00 | 0.00 | 0.00 | 39 | 1017.1 |
| 20260509100259 | 68 | 98 | 5.0 | 10.0 | 0.00 | 0.00 | 0.00 | 39 | 1017.1 |
| 20260509100213 | 68 | 98 | 5.0 | 10.0 | 0.00 | 0.00 | 0.00 | 39 | 1017.1 |
| 20260509100201 | 68 | 69 | 10.0 | 10.0 | 0.00 | 0.00 | 0.00 | 39 | 1017.1 |
| 20260509100001 | 68 | 59 | 3.0 | 9.0 | 0.00 | 0.00 | 0.00 | 39 | 1017.0 |
| 20260509095901 | 68 | 95 | 4.0 | 7.0 | 0.00 | 0.00 | 0.00 | 38 | 1017.0 |
| 20260509095800 | 68 | 27 | 7.0 | 7.0 | 0.00 | 0.00 | 0.00 | 38 | 1017.0 |
| 20260509095712 | 68 | 27 | 7.0 | 7.0 | 0.00 | 0.00 | 0.00 | 38 | 1017.0 |
| 20260509095700 | 68 | 31 | 4.0 | 6.0 | 0.00 | 0.00 | 0.00 | 38 | 1017.0 |
| 20260509095601 | 68 | 355 | 3.0 | 6.0 | 0.00 | 0.00 | 0.00 | 38 | 1017.0 |
| 20260509095501 | 68 | 346 | 2.0 | 6.0 | 0.00 | 0.00 | 0.00 | 38 | 1017.0 |
| 20260509095401 | 68 | 119 | 1.0 | 6.0 | 0.00 | 0.00 | 0.00 | 38 | 1017.1 |
| 20260509095305 | 68 | 32 | 7.0 | 9.0 | 0.00 | 0.00 | 0.00 | 37 | 1017.1 |
| 20260509095212 | 68 | 32 | 7.0 | 9.0 | 0.00 | 0.00 | 0.00 | 37 | 1017.1 |
| 20260509095200 | 68 | 36 | 7.0 | 9.0 | 0.00 | 0.00 | 0.00 | 37 | 1017.1 |
| 20260509095100 | 68 | 45 | 9.0 | 9.0 | 0.00 | 0.00 | 0.00 | 37 | 1017.1 |
| 20260509095000 | 68 | 54 | 7.0 | 7.0 | 0.00 | 0.00 | 0.00 | 37 | 1017.1 |
| 20260509094900 | 68 | 360 | 2.0 | 3.0 | 0.00 | 0.00 | 0.00 | 37 | 1017.1 |
| 20260509094800 | 68 | 20 | 2.0 | 8.0 | 0.00 | 0.00 | 0.00 | 37 | 1017.1 |
| 20260509094713 | 68 | 20 | 2.0 | 8.0 | 0.00 | 0.00 | 0.00 | 37 | 1017.1 |
| 20260509094701 | 68 | 29 | 7.0 | 8.0 | 0.00 | 0.00 | 0.00 | 36 | 1017.1 |
| 20260509094600 | 68 | 23 | 4.0 | 7.0 | 0.00 | 0.00 | 0.00 | 36 | 1017.1 |
| 20260509094500 | 67 | 31 | 3.0 | 7.0 | 0.00 | 0.00 | 0.00 | 36 | 1017.2 |
| 20260509094400 | 67 | 86 | 6.0 | 7.0 | 0.00 | 0.00 | 0.00 | 36 | 1017.2 |
| 20260509094301 | 67 | 74 | 2.0 | 7.0 | 0.00 | 0.00 | 0.00 | 36 | 1017.1 |
| 20260509094213 | 67 | 74 | 2.0 | 7.0 | 0.00 | 0.00 | 0.00 | 36 | 1017.1 |
| 20260509094201 | 67 | 75 | 6.0 | 7.0 | 0.00 | 0.00 | 0.00 | 35 | 1017.2 |
| 20260509094101 | 67 | 100 | 6.0 | 6.0 | 0.00 | 0.00 | 0.00 | 35 | 1017.2 |
| 20260509094001 | 67 | 64 | 2.0 | 6.0 | 0.00 | 0.00 | 0.00 | 35 | 1017.2 |
| 20260509093901 | 67 | 44 | 5.0 | 6.0 | 0.00 | 0.00 | 0.00 | 34 | 1017.1 |
| 20260509093800 | 67 | 24 | 3.0 | 9.0 | 0.00 | 0.00 | 0.00 | 34 | 1017.2 |
| 20260509093712 | 67 | 24 | 3.0 | 9.0 | 0.00 | 0.00 | 0.00 | 34 | 1017.2 |
| 20260509093700 | 67 | 63 | 6.0 | 8.0 | 0.00 | 0.00 | 0.00 | 33 | 1017.1 |
| 20260509093600 | 67 | 360 | 3.0 | 8.0 | 0.00 | 0.00 | 0.00 | 33 | 1017.1 |
| 20260509093500 | 67 | 44 | 4.0 | 8.0 | 0.00 | 0.00 | 0.00 | 31 | 1017.1 |
| 20260509093400 | 67 | 50 | 4.0 | 8.0 | 0.00 | 0.00 | 0.00 | 30 | 1017.1 |
| 20260509093300 | 67 | 71 | 4.0 | 9.0 | 0.00 | 0.00 | 0.00 | 29 | 1017.1 |
| 20260509093212 | 67 | 71 | 4.0 | 9.0 | 0.00 | 0.00 | 0.00 | 29 | 1017.1 |
| 20260509093200 | 66 | 78 | 6.0 | 7.0 | 0.00 | 0.00 | 0.00 | 28 | 1017.1 |
| 20260509093101 | 66 | 98 | 7.0 | 7.0 | 0.00 | 0.00 | 0.00 | 28 | 1017.1 |
| 20260509093001 | 66 | 20 | 3.0 | 7.0 | 0.00 | 0.00 | 0.00 | 28 | 1017.1 |
| 20260509092901 | 66 | 20 | 3.0 | 5.0 | 0.00 | 0.00 | 0.00 | 28 | 1017.1 |
| 20260509092801 | 66 | 360 | 4.0 | 9.0 | 0.00 | 0.00 | 0.00 | 28 | 1017.1 |
| 20260509092713 | 66 | 360 | 4.0 | 9.0 | 0.00 | 0.00 | 0.00 | 28 | 1017.1 |
| 20260509092701 | 66 | 9 | 9.0 | 9.0 | 0.00 | 0.00 | 0.00 | 27 | 1017.1 |
| 20260509092601 | 66 | 360 | 2.0 | 7.0 | 0.00 | 0.00 | 0.00 | 27 | 1017.1 |
| 20260509092500 | 66 | 46 | 4.0 | 7.0 | 0.00 | 0.00 | 0.00 | 27 | 1017.1 |
| 20260509092400 | 66 | 360 | 6.0 | 6.0 | 0.00 | 0.00 | 0.00 | 25 | 1017.1 |
| 20260509092300 | 66 | 50 | 3.0 | 7.0 | 0.00 | 0.00 | 0.00 | 24 | 1017.2 |
| 20260509092212 | 66 | 50 | 3.0 | 7.0 | 0.00 | 0.00 | 0.00 | 24 | 1017.2 |
| 20260509092200 | 66 | 36 | 6.0 | 7.0 | 0.00 | 0.00 | 0.00 | 22 | 1017.1 |
| 20260509092100 | 66 | 355 | 3.0 | 7.0 | 0.00 | 0.00 | 0.00 | 22 | 1017.1 |
| 20260509092001 | 66 | 351 | 4.0 | 7.0 | 0.00 | 0.00 | 0.00 | 22 | 1017.1 |
| 20260509091901 | 66 | 312 | 3.0 | 6.0 | 0.00 | 0.00 | 0.00 | 23 | 1017.1 |
| 20260509091801 | 66 | 32 | 3.0 | 7.0 | 0.00 | 0.00 | 0.00 | 24 | 1017.1 |
| 20260509091713 | 66 | 32 | 3.0 | 7.0 | 0.00 | 0.00 | 0.00 | 24 | 1017.1 |
| 20260509091701 | 66 | 46 | 3.0 | 7.0 | 0.00 | 0.00 | 0.00 | 24 | 1017.1 |
| 20260509091600 | 66 | 40 | 5.0 | 7.0 | 0.00 | 0.00 | 0.00 | 22 | 1017.1 |
| 20260509091500 | 66 | 38 | 4.0 | 7.0 | 0.00 | 0.00 | 0.00 | 21 | 1017.1 |
| 20260509091400 | 66 | 343 | 5.0 | 7.0 | 0.00 | 0.00 | 0.00 | 19 | 1017.1 |
| 20260509091300 | 66 | 344 | 5.0 | 8.0 | 0.00 | 0.00 | 0.00 | 19 | 1017.2 |
| 20260509091212 | 66 | 344 | 5.0 | 8.0 | 0.00 | 0.00 | 0.00 | 19 | 1017.2 |
| 20260509091200 | 66 | 28 | 2.0 | 8.0 | 0.00 | 0.00 | 0.00 | 18 | 1017.2 |
| 20260509091100 | 66 | 350 | 3.0 | 8.0 | 0.00 | 0.00 | 0.00 | 19 | 1017.1 |
| 20260509091000 | 66 | 49 | 3.0 | 8.0 | 0.00 | 0.00 | 0.00 | 19 | 1017.2 |
| 20260509090901 | 66 | 26 | 3.0 | 8.0 | 0.00 | 0.00 | 0.00 | 19 | 1017.2 |
| 20260509090801 | 66 | 13 | 3.0 | 7.0 | 0.00 | 0.00 | 0.00 | 18 | 1017.2 |
| 20260509090713 | 66 | 13 | 3.0 | 7.0 | 0.00 | 0.00 | 0.00 | 18 | 1017.2 |
| 20260509090701 | 66 | 9 | 6.0 | 7.0 | 0.00 | 0.00 | 0.00 | 17 | 1017.2 |
| 20260509090600 | 66 | 32 | 3.0 | 7.0 | 0.00 | 0.00 | 0.00 | 17 | 1017.2 |
| 20260509090500 | 66 | 38 | 5.0 | 7.0 | 0.00 | 0.00 | 0.00 | 16 | 1017.2 |
| 20260509090400 | 66 | 56 | 7.0 | 7.0 | 0.00 | 0.00 | 0.00 | 17 | 1017.2 |
| 20260509090300 | 66 | 54 | 6.0 | 8.0 | 0.00 | 0.00 | 0.00 | 17 | 1017.2 |
| 20260509090213 | 66 | 54 | 6.0 | 8.0 | 0.00 | 0.00 | 0.00 | 17 | 1017.2 |
| 20260509090201 | 66 | 31 | 5.0 | 8.0 | 0.00 | 0.00 | 0.00 | 16 | 1017.2 |
| 20260509090101 | 66 | 30 | 4.0 | 8.0 | 0.00 | 0.00 | 0.00 | 16 | 1017.2 |
| 20260509090001 | 66 | 32 | 5.0 | 7.0 | 0.00 | 0.00 | 0.00 | 17 | 1017.2 |
| 20260509085901 | 66 | 40 | 4.0 | 7.0 | 0.00 | 0.00 | 0.00 | 18 | 1017.2 |
| 20260509085759 | 66 | 26 | 4.0 | 7.0 | 0.00 | 0.00 | 0.00 | 18 | 1017.2 |
| 20260509085713 | 66 | 26 | 4.0 | 7.0 | 0.00 | 0.00 | 0.00 | 18 | 1017.2 |
| 20260509085701 | 66 | 51 | 3.0 | 7.0 | 0.00 | 0.00 | 0.00 | 18 | 1017.2 |
| 20260509085601 | 66 | 27 | 4.0 | 7.0 | 0.00 | 0.00 | 0.00 | 17 | 1017.2 |
| 20260509085501 | 66 | 37 | 5.0 | 5.0 | 0.00 | 0.00 | 0.00 | 16 | 1017.2 |
| 20260509085401 | 66 | 69 | 3.0 | 5.0 | 0.00 | 0.00 | 0.00 | 17 | 1017.2 |
| 20260509085301 | 65 | 78 | 3.0 | 8.0 | 0.00 | 0.00 | 0.00 | 17 | 1017.2 |
| 20260509085212 | 65 | 78 | 3.0 | 8.0 | 0.00 | 0.00 | 0.00 | 17 | 1017.2 |
| 20260509085200 | 65 | 32 | 1.0 | 8.0 | 0.00 | 0.00 | 0.00 | 17 | 1017.2 |
| 20260509085100 | 65 | 30 | 3.0 | 8.0 | 0.00 | 0.00 | 0.00 | 15 | 1017.2 |
| 20260509085000 | 65 | 32 | 5.0 | 6.0 | 0.00 | 0.00 | 0.00 | 11 | 1017.2 |
| 20260509084900 | 65 | 18 | 3.0 | 5.0 | 0.00 | 0.00 | 0.00 | 9 | 1017.1 |
| 20260509084800 | 65 | 51 | 3.0 | 8.0 | 0.00 | 0.00 | 0.00 | 8 | 1017.2 |
| 20260509084713 | 65 | 51 | 3.0 | 8.0 | 0.00 | 0.00 | 0.00 | 8 | 1017.2 |
| 20260509084701 | 66 | 350 | 3.0 | 8.0 | 0.00 | 0.00 | 0.00 | 6 | 1017.2 |
| 20260509084600 | 66 | 333 | 4.0 | 8.0 | 0.00 | 0.00 | 0.00 | 5 | 1017.2 |
| 20260509084500 | 65 | 350 | 3.0 | 8.0 | 0.00 | 0.00 | 0.00 | 5 | 1017.2 |
| 20260509084400 | 65 | 5 | 4.0 | 8.0 | 0.00 | 0.00 | 0.00 | 4 | 1017.3 |
| 20260509084300 | 65 | 39 | 3.0 | 6.0 | 0.00 | 0.00 | 0.00 | 1 | 1017.2 |
| 20260509084212 | 65 | 39 | 3.0 | 6.0 | 0.00 | 0.00 | 0.00 | 1 | 1017.2 |
| 20260509084200 | 65 | 51 | 4.0 | 5.0 | 0.00 | 0.00 | 0.00 | 1 | 1017.2 |
| 20260509084100 | 65 | 38 | 4.0 | 5.0 | 0.00 | 0.00 | 0.00 | 1 | 1017.2 |
| 20260509084000 | 65 | 32 | 3.0 | 5.0 | 0.00 | 0.00 | 0.00 | 100 | 1017.3 |
| 20260509083900 | 65 | 24 | 2.0 | 2.0 | 0.00 | 0.00 | 0.00 | 100 | 1017.2 |
| 20260509083801 | 65 | 48 | 1.0 | 7.0 | 0.00 | 0.00 | 0.00 | 100 | 1017.2 |
| 20260509083713 | 65 | 48 | 1.0 | 7.0 | 0.00 | 0.00 | 0.00 | 100 | 1017.2 |
| 20260509083701 | 65 | 15 | 4.0 | 7.0 | 0.00 | 0.00 | 0.00 | 100 | 1017.2 |
| 20260509083601 | 65 | 82 | 3.0 | 6.0 | 0.00 | 0.00 | 0.00 | 100 | 1017.3 |
| 20260509083501 | 65 | 57 | 4.0 | 6.0 | 0.00 | 0.00 | 0.00 | 100 | 1017.3 |
| 20260509083401 | 65 | 5 | 2.0 | 4.0 | 0.00 | 0.00 | 0.00 | 100 | 1017.2 |
| 20260509083300 | 65 | 69 | 3.0 | 7.0 | 0.00 | 0.00 | 0.00 | 100 | 1017.2 |
| 20260509083213 | 65 | 69 | 3.0 | 7.0 | 0.00 | 0.00 | 0.00 | 100 | 1017.2 |
| 20260509083201 | 65 | 5 | 5.0 | 6.0 | 0.00 | 0.00 | 0.00 | 100 | 1017.3 |
| 20260509083101 | 65 | 41 | 3.0 | 6.0 | 0.00 | 0.00 | 0.00 | 100 | 1017.3 |
| 20260509083001 | 65 | 37 | 5.0 | 5.0 | 0.00 | 0.00 | 0.00 | 100 | 1017.3 |
| 20260509082900 | 65 | 63 | 2.0 | 3.0 | 0.00 | 0.00 | 0.00 | 100 | 1017.2 |
| 20260509082800 | 65 | 62 | 3.0 | 6.0 | 0.00 | 0.00 | 0.00 | 100 | 1017.3 |
| 20260509082712 | 65 | 62 | 3.0 | 6.0 | 0.00 | 0.00 | 0.00 | 100 | 1017.3 |
| 20260509082659 | 65 | 40 | 3.0 | 6.0 | 0.00 | 0.00 | 0.00 | 100 | 1017.3 |
| 20260509082600 | 64 | 13 | 3.0 | 4.0 | 0.00 | 0.00 | 0.00 | 100 | 1017.2 |
| 20260509082500 | 64 | 35 | 4.0 | 4.0 | 0.00 | 0.00 | 0.00 | 100 | 1017.3 |
| 20260509082400 | 64 | 32 | 2.0 | 4.0 | 0.00 | 0.00 | 0.00 | 100 | 1017.2 |
| 20260509082300 | 64 | 19 | 3.0 | 7.0 | 0.00 | 0.00 | 0.00 | 100 | 1017.3 |
| 20260509082212 | 64 | 19 | 3.0 | 7.0 | 0.00 | 0.00 | 0.00 | 100 | 1017.3 |
| 20260509082200 | 64 | 50 | 3.0 | 7.0 | 0.00 | 0.00 | 0.00 | 100 | 1017.3 |
| 20260509082100 | 64 | 62 | 2.0 | 7.0 | 0.00 | 0.00 | 0.00 | 100 | 1017.3 |
| 20260509082000 | 64 | 55 | 2.0 | 7.0 | 0.00 | 0.00 | 0.00 | 100 | 1017.3 |
| 20260509081900 | 64 | 63 | 3.0 | 7.0 | 0.00 | 0.00 | 0.00 | 100 | 1017.3 |
| 20260509081801 | 64 | 91 | 4.0 | 7.0 | 0.00 | 0.00 | 0.00 | 100 | 1017.4 |
| 20260509081713 | 64 | 91 | 4.0 | 7.0 | 0.00 | 0.00 | 0.00 | 100 | 1017.4 |
| 20260509081701 | 64 | 86 | 5.0 | 7.0 | 0.00 | 0.00 | 0.00 | 100 | 1017.3 |
| 20260509081601 | 64 | 62 | 3.0 | 7.0 | 0.00 | 0.00 | 0.00 | 100 | 1017.3 |